[[{"header":{"parameterUnit":"m.s-1","parameterCategory":1,"la1":31.0,"la2":29.5877,"lo1":-88.7671,"lo2":-86.6584,"dy":0.0162,"dx":0.0185,"nx":115,"ny":88,"refTime":"2023-08-28T06:00:00:Z","depth":0,"parameterNumber":2,"parameterNumberName":"U-component_of_WINDS"},"data":[0.0,0.0,0.0,0.0,0.0,0.0,0.0,0.0,0.0,0.0,0.0,0.0,0.0,0.0,0.0,0.0,0.0,0.0,0.0,0.0,0.0,0.0,0.0,0.0,0.0,0.0,0.0,0.0,0.0,0.0,0.0,0.0,0.0,0.0,0.0,0.0,0.0,0.0,0.0,0.0,0.0,0.0,0.0,0.0,0.0,0.0,0.0,0.0,0.0,0.0,0.0,0.0,0.0,0.0,0.0,0.0,0.0,0.0,0.0,0.0,0.0,0.0,0.0,0.0,0.0,0.0,0.0,0.0,0.0,0.0,0.0,0.0,0.0,0.0,0.0,0.0,0.0,0.0,0.0,0.0,0.0,0.0,0.0,0.0,0.0,0.0,0.0,0.0,0.0,0.0,0.0,0.0,0.0,0.0,0.0,0.0,0.0,0.0,0.0,0.0,0.0,0.0,0.0,0.0,0.0,0.0,0.0,0.0,0.0,0.0,0.0,0.0,0.0,0.0,0.0,0.0,0.0,0.0,0.0,0.0,0.0,0.0,0.0,0.0,0.0,0.0,0.0,0.0,0.0,0.0,0.0,0.0,0.0,0.0,0.0,0.0,0.0,0.0,0.0,0.0,0.0,0.0,0.0,0.0,0.0,0.0,0.0,0.0,0.0,0.0,0.0,0.0,0.0,0.0,0.0,0.0,0.0,0.0,0.0,0.0,0.0,0.0,0.0,0.0,0.0,0.0,0.0,0.0,0.0,0.0,0.0,0.0,0.0,0.0,0.0,0.0,0.0,0.0,0.0,0.0,0.0,0.0,0.0,0.0,0.0,0.0,0.0,0.0,0.0,0.0,0.0,0.0,0.0,0.0,0.0,0.0,0.0,0.0,0.0,0.0,0.0,0.0,0.0,0.0,0.0,0.0,0.0,0.0,0.0,0.0,0.0,0.0,0.0,0.0,0.0,0.0,0.0,0.0,0.0,0.0,0.0,0.0,0.0,0.0,0.0,0.0,0.0,0.0,0.0,0.0,0.0,0.0,0.0,0.0,0.0,0.0,0.0,0.0,0.0,0.0,0.0,0.0,0.0,0.0,0.0,0.0,0.0,0.0,0.0,0.0,0.0,0.0,0.0,0.0,0.0,0.0,0.0,0.0,0.0,0.0,0.0,0.0,0.0,0.0,0.0,0.0,0.0,0.0,0.0,0.0,0.0,0.0,0.0,0.0,0.0,0.0,0.0,0.0,0.0,0.0,0.0,0.0,0.0,0.0,0.0,0.0,0.0,0.0,0.0,0.0,0.0,0.0,0.0,0.0,0.0,0.0,0.0,0.0,0.0,0.0,0.0,0.0,0.0,0.0,0.0,0.0,0.0,0.0,0.0,0.0,0.0,0.0,0.0,0.0,0.0,0.0,0.0,0.0,0.0,0.0,0.0,0.0,0.0,0.0,0.0,0.0,0.0,0.0,0.0,0.0,0.0,0.0,0.0,0.0,0.0,0.0,0.0,0.0,0.0,0.0,0.0,0.0,0.0,0.0,0.0,0.0,0.0,0.0,0.0,0.0,0.0,0.0,0.0,0.0,0.0,0.0,0.0,0.0,0.0,0.0,0.0,0.0,0.0,0.0,0.0,0.0,0.0,0.0,0.0,0.0,0.0,0.0,0.0,0.0,0.0,0.0,0.0,0.0,0.0,0.0,0.0,0.0,0.0,0.0,0.0,0.0,0.0,0.0,0.0,0.0,0.0,0.0,0.0,0.0,0.0,0.0,0.0,0.0,0.0,0.0,0.0,0.0,0.0,0.0,0.0,0.0,0.0,0.0,0.0,0.0,0.0,0.0,0.0,0.0,0.0,0.0,0.0,0.0,0.0,0.0,0.0,0.0,0.0,0.0,0.0,0.0,0.0,0.0,0.0,0.0,0.0,0.0,0.0,0.0,0.0,0.0,0.0,0.0,0.0,0.0,0.0,0.0,0.0,0.0,0.0,0.0,0.0,0.0,0.0,0.0,0.0,0.0,0.0,0.0,0.0,0.0,0.0,0.0,0.0,0.0,0.0,0.0,0.0,0.0,0.0,0.0,0.0,0.0,0.0,0.0,0.0,0.0,0.0,0.0,0.0,0.0,0.0,0.0,0.0,0.0,0.0,0.0,0.0,0.0,0.0,0.0,0.0,0.0,0.0,0.0,0.0,0.0,0.0,0.0,0.0,0.0,0.0,0.0,0.0,0.0,0.0,0.0,0.0,0.0,0.0,0.0,0.0,0.0,0.0,0.0,0.0,0.0,0.0,0.0,0.0,0.0,0.0,0.0,0.0,0.0,0.0,0.0,0.0,0.0,0.0,0.0,0.0,0.0,0.0,0.0,0.0,0.0,0.0,0.0,0.0,0.0,0.0,0.0,0.0,0.0,0.0,0.0,0.0,0.0,0.0,0.0,0.0,0.0,0.0,0.0,0.0,0.0,0.0,0.0,0.0,0.0,0.0,0.0,0.0,0.0,0.0,0.0,0.0,0.0,0.0,0.0,0.0,0.0,0.0,0.0,0.0,0.0,0.0,0.0,0.0,0.0,0.0,0.0,0.0,0.0,0.0,0.0,0.0,0.0,0.0,0.0,0.0,0.0,0.0,0.0,0.0,0.0,0.0,0.0,0.0,0.0,0.0,0.0,0.0,0.0,0.0,0.0,0.0,0.0,0.0,0.0,0.0,0.0,0.0,0.0,0.0,0.0,0.0,0.0,0.0,0.0,0.0,0.0,0.0,0.0,0.0,0.0,0.0,0.0,0.0,0.0,0.0,0.0,0.0,0.0,0.0,0.0,0.0,0.0,0.0,0.0,0.0,0.0,0.0,0.0,0.0,0.0,0.0,0.0,0.0,0.0,0.0,0.0,0.0,0.0,0.0,0.0,0.0,0.0,0.0,0.0,0.0,0.0,0.0,0.0,0.0,0.0,0.0,0.0,0.0,0.0,0.0,0.0,0.0,0.0,0.0,0.0,0.0,0.0,0.0,0.0,0.0,0.0,0.0,0.0,0.0,0.0,0.0,0.0,0.0,0.0,0.0,0.0,0.0,0.0,0.0,0.0,0.0,0.0,0.0,0.0,0.0,0.0,0.0,0.0,0.0,0.0,0.0,0.0,0.0,0.0,0.0,0.0,0.0,0.0,0.0,0.0,0.0,0.0,0.0,0.0,0.0,0.0,0.0,0.0,0.0,0.0,0.0,0.0,0.0,0.0,0.0,0.0,0.0,0.0,0.0,0.0,0.0,0.0,0.0,0.0,0.0,0.0,0.0,0.0,0.0,0.0,0.0,0.0,0.0,0.0,0.0,0.0,0.0,0.0,0.0,0.0,0.0,0.0,0.0,0.0,0.0,0.0,0.0,0.0,0.0,0.0,0.0,0.0,0.0,0.0,0.0,0.0,0.0,0.0,0.0,0.0,0.0,0.0,0.0,0.0,0.0,0.0,0.0,0.0,0.0,0.0,0.0,0.0,0.0,0.0,0.0,0.0,0.0,0.0,0.0,0.0,0.0,0.0,0.0,0.0,0.0,0.0,0.0,0.0,0.0,0.0,0.0,0.0,0.0,0.0,0.0,0.0,0.0,0.0,0.0,0.0,0.0,0.0,0.0,0.0,0.0,0.0,0.0,0.0,0.0,0.0,0.0,0.0,0.0,0.0,0.0,0.0,0.0,0.0,0.0,0.0,0.0,0.0,0.0,0.0,0.0,0.0,0.0,0.0,0.0,0.0,0.0,0.0,0.0,0.0,0.0,0.0,0.0,0.0,0.0,0.0,0.0,0.0,0.0,0.0,0.0,0.0,0.0,0.0,0.0,0.0,0.0,0.0,0.0,0.0,0.0,0.0,0.0,0.0,0.0,0.0,0.0,0.0,0.0,0.0,0.0,0.0,0.0,0.0,0.0,0.0,0.0,0.0,0.0,0.0,0.0,0.0,0.0,0.0,0.0,0.0,0.0,0.0,0.0,0.0,0.0,0.0,0.0,0.0,0.0,0.0,0.0,0.0,0.0,0.0,0.0,0.0,0.0,0.0,0.0,0.0,0.0,0.0,0.0,0.0,0.0,0.0,0.0,0.0,0.0,0.0,0.0,0.0,0.0,0.0,0.0,0.0,0.0,0.0,0.0,0.0,0.0,0.0,0.0,0.0,0.0,0.0,0.0,0.0,0.0,0.0,0.0,0.0,0.0,0.0,0.0,0.0,0.0,0.0,0.0,0.0,0.0,0.0,0.0,0.0,0.0,0.0,0.0,0.0,0.0,0.0,0.0,0.0,0.0,0.0,1.7323,0.0,0.0,0.0,0.0,0.0,0.0,0.0,0.0,0.0,0.0,0.0,0.0,0.0,0.0,0.0,0.0,0.0,0.0,0.0,0.0,0.0,0.0,0.0,0.0,0.0,0.0,0.0,0.0,0.0,0.0,0.0,0.0,0.0,0.0,0.0,0.0,0.0,0.0,0.0,0.0,0.0,0.0,0.0,0.0,0.0,0.0,0.0,0.0,0.0,0.0,0.0,0.0,0.0,0.0,0.0,0.0,0.0,0.0,0.0,0.0,0.0,0.0,0.0,0.0,0.0,0.0,0.0,0.0,0.0,0.0,0.0,0.0,0.0,0.0,0.0,0.0,0.0,0.0,0.0,0.0,0.0,0.0,0.0,0.0,0.0,0.0,0.0,0.0,0.0,0.0,0.0,0.0,0.0,0.0,0.0,0.0,0.0,0.0,0.0,0.0,0.0,0.0,0.0,0.0,0.0,0.0,0.0,0.0,0.0,0.0,1.9127,1.9059,1.8338,1.8178,1.8555,0.0,0.0,0.0,0.0,0.0,0.0,0.0,0.0,0.0,0.0,0.0,0.0,0.0,0.0,0.0,0.0,0.0,0.0,0.0,0.0,0.0,0.0,0.0,0.0,0.0,0.0,0.0,0.0,0.0,0.0,0.0,0.0,0.0,0.0,0.0,0.0,0.0,0.0,0.0,0.0,0.0,0.0,0.0,0.0,0.0,0.0,0.0,0.0,0.0,0.0,0.0,0.0,0.0,0.0,0.0,0.0,0.0,0.0,0.0,0.0,0.0,0.0,0.0,0.0,0.0,0.0,0.0,0.0,0.0,0.0,0.0,0.0,0.0,0.0,0.0,0.0,0.0,0.0,0.0,0.0,0.0,0.0,0.0,0.0,0.0,0.0,0.0,0.0,0.0,0.0,0.0,0.0,0.0,0.0,0.0,0.0,0.0,0.0,0.0,0.0,0.0,0.0,0.0,0.0,0.0,0.0,0.0,0.0,0.0,0.0,0.0,0.0,1.9063,1.8833,1.9361,0.0,0.0,0.0,0.0,0.0,0.0,0.0,0.0,0.0,0.0,0.0,0.0,0.0,0.0,0.0,0.0,0.0,0.0,0.0,0.0,0.0,0.0,0.0,0.0,0.0,0.0,0.0,0.0,0.0,0.0,0.0,0.0,0.0,0.0,0.0,0.0,0.0,0.0,0.0,0.0,0.0,0.0,0.0,0.0,0.0,0.0,0.0,0.0,0.0,0.0,0.0,0.0,0.0,0.0,0.0,0.0,0.0,0.0,0.0,0.0,0.0,0.0,0.0,0.0,0.0,0.0,0.0,0.0,0.0,0.0,0.0,0.0,0.0,0.0,0.0,0.0,0.0,0.0,0.0,0.0,0.0,0.0,0.0,0.0,0.0,0.0,0.0,0.0,0.0,0.0,0.0,0.0,0.0,0.0,0.0,0.0,0.0,0.0,0.0,0.0,0.0,0.0,0.0,0.0,0.0,0.0,0.0,0.0,0.0,0.0,2.0008,2.059,1.9862,0.0,1.9155,0.0,0.0,0.0,0.0,0.0,0.0,0.0,0.0,0.0,0.0,0.0,0.0,0.0,0.0,0.0,0.0,0.0,0.0,0.0,0.0,0.0,0.0,0.0,0.0,0.0,0.0,0.0,0.0,0.0,0.0,0.0,0.0,0.0,0.0,0.0,0.0,0.0,0.0,0.0,0.0,0.0,0.0,0.0,0.0,0.0,0.0,0.0,0.0,0.0,0.0,0.0,0.0,0.0,0.0,0.0,0.0,0.0,0.0,0.0,0.0,0.0,0.0,0.0,0.0,0.0,0.0,0.0,0.0,0.0,0.0,0.0,0.0,0.0,0.0,0.0,0.0,0.0,0.0,0.0,0.0,0.0,0.0,0.0,0.0,0.0,0.0,0.0,0.0,0.0,0.0,0.0,0.0,0.0,0.0,0.0,0.0,0.0,0.0,0.0,0.0,0.0,0.0,0.0,0.0,0.0,0.0,0.0,0.0,0.0,0.0,1.9769,2.0866,2.0512,2.0124,0.0,0.0,0.0,0.0,0.0,0.0,0.0,0.0,0.0,0.0,0.0,0.0,0.0,0.0,0.0,0.0,0.0,0.0,0.0,0.0,0.0,0.0,0.0,0.0,0.0,0.0,0.0,0.0,0.0,0.0,0.0,0.0,0.0,0.0,0.0,0.0,0.0,0.0,0.0,0.0,0.0,0.0,0.0,0.0,0.0,0.0,0.0,0.0,0.0,0.0,0.0,0.0,0.0,0.0,0.0,0.0,0.0,0.0,0.0,0.0,0.0,0.0,0.0,0.0,0.0,0.0,0.0,0.0,0.0,0.0,0.0,0.0,0.0,0.0,0.0,0.0,0.0,0.0,0.0,0.0,0.0,0.0,0.0,0.0,0.0,0.0,0.0,0.0,0.0,0.0,0.0,0.0,0.0,0.0,0.0,0.0,0.0,0.0,0.0,0.0,0.0,0.0,0.0,0.0,0.0,0.0,0.0,0.0,0.0,0.0,1.9182,1.9676,2.0794,2.0716,2.047,2.0123,0.0,0.0,0.0,0.0,0.0,0.0,0.0,0.0,0.0,0.0,0.0,0.0,0.0,0.0,0.0,0.0,0.0,0.0,0.0,0.0,0.0,0.0,0.0,0.0,0.0,0.0,0.0,0.0,0.0,0.0,0.0,0.0,0.0,0.0,0.0,0.0,0.0,0.0,0.0,0.0,0.0,0.0,0.0,0.0,0.0,0.0,0.0,0.0,0.0,0.0,0.0,0.0,0.0,0.0,0.0,0.0,0.0,0.0,0.0,0.0,0.0,0.0,0.0,0.0,0.0,0.0,0.0,0.0,0.0,0.0,0.0,0.0,0.0,0.0,0.0,0.0,0.0,0.0,0.0,0.0,0.0,0.0,0.0,0.0,0.0,0.0,0.0,0.0,0.0,0.0,0.0,0.0,0.0,0.0,0.0,0.0,0.0,0.0,0.0,0.0,0.0,0.0,0.0,0.0,0.0,0.0,0.0,0.0,1.91,1.941,1.987,2.0492,2.039,2.0202,0.0,0.0,0.0,0.0,0.0,0.0,0.0,0.0,0.0,0.0,0.0,0.0,0.0,0.0,0.0,0.0,0.0,0.0,0.0,0.0,0.0,0.0,0.0,0.0,0.0,0.0,0.0,0.0,0.0,0.0,0.0,0.0,0.0,0.0,0.0,0.0,0.0,0.0,0.0,0.0,0.0,0.0,0.0,0.0,0.0,0.0,0.0,0.0,0.0,0.0,0.0,0.0,0.0,0.0,0.0,0.0,0.0,0.0,0.0,0.0,0.0,0.0,0.0,0.0,0.0,0.0,0.0,0.0,0.0,0.0,0.0,0.0,0.0,0.0,0.0,0.0,0.0,0.0,0.0,0.0,0.0,0.0,0.0,0.0,0.0,0.0,0.0,0.0,0.0,0.0,0.0,0.0,0.0,0.0,0.0,0.0,0.0,0.0,0.0,0.0,0.0,0.0,0.0,0.0,0.0,0.0,0.0,0.0,0.0,1.8007,1.8688,1.9441,2.0147,2.0224,2.0204,0.0,0.0,0.0,0.0,0.0,0.0,0.0,0.0,0.0,0.0,0.0,0.0,0.0,0.0,0.0,0.0,0.0,0.0,0.0,0.0,0.0,0.0,0.0,0.0,0.0,0.0,0.0,0.0,0.0,0.0,0.0,0.0,0.0,0.0,0.0,0.0,0.0,0.0,0.0,0.0,0.0,0.0,0.0,0.0,0.0,0.0,0.0,0.0,0.0,0.0,0.0,0.0,0.0,0.0,0.0,0.0,0.0,0.0,0.0,0.0,0.0,0.0,0.0,0.0,0.0,0.0,0.0,0.0,0.0,0.0,0.0,0.0,0.0,0.0,0.0,0.0,0.0,0.0,0.0,0.0,0.0,0.0,0.0,0.0,0.0,0.0,0.0,0.0,0.0,0.0,0.0,0.0,0.0,0.0,0.0,0.0,0.0,0.0,0.0,0.0,0.0,0.0,0.0,0.0,0.0,0.0,0.0,0.0,0.0,1.7207,0.0,1.8778,1.9617,1.9935,2.0065,0.0,0.0,0.0,0.0,0.0,0.0,0.0,0.0,0.0,0.0,0.0,0.0,0.0,0.0,0.0,0.0,0.0,0.0,0.0,0.0,0.0,0.0,0.0,0.0,0.0,0.0,0.0,0.0,0.0,0.0,0.0,0.0,0.0,0.0,0.0,0.0,0.0,0.0,0.0,0.0,0.0,0.0,0.0,0.0,0.0,0.0,0.0,0.0,0.0,0.0,0.0,0.0,0.0,0.0,0.0,0.0,0.0,0.0,0.0,0.0,0.0,0.0,0.0,0.0,0.0,0.0,0.0,0.0,0.0,0.0,0.0,0.0,0.0,0.0,0.0,0.0,0.0,0.0,0.0,0.0,0.0,0.0,0.0,0.0,0.0,0.0,0.0,0.0,0.0,0.0,0.0,0.0,0.0,0.0,0.0,0.0,0.0,0.0,0.0,0.0,0.0,0.0,0.0,0.0,0.0,0.0,0.0,0.0,1.6849,1.6876,1.7264,1.7928,1.8844,1.9485,1.9703,0.0,0.0,0.0,0.0,0.0,0.0,0.0,0.0,0.0,0.0,0.0,0.0,0.0,0.0,0.0,0.0,0.0,0.0,0.0,0.0,0.0,0.0,0.0,0.0,0.0,0.0,0.0,0.0,0.0,0.0,0.0,0.0,0.0,0.0,0.0,0.0,0.0,0.0,0.0,0.0,0.0,0.0,0.0,0.0,0.0,0.0,0.0,0.0,0.0,0.0,0.0,0.0,0.0,0.0,0.0,0.0,0.0,0.0,0.0,0.0,0.0,0.0,0.0,0.0,0.0,0.0,0.0,0.0,0.0,0.0,0.0,0.0,0.0,0.0,0.0,0.0,0.0,0.0,0.0,0.0,0.0,0.0,0.0,0.0,0.0,0.0,0.0,0.0,0.0,0.0,0.0,0.0,0.0,0.0,0.0,0.0,0.0,0.0,0.0,0.0,0.0,0.0,0.0,0.0,0.0,0.0,0.0,0.0,0.0,1.5382,1.6056,1.7002,1.8233,1.9184,1.9856,0.0,0.0,0.0,0.0,0.0,0.0,0.0,0.0,0.0,0.0,0.0,0.0,0.0,0.0,0.0,0.0,0.0,0.0,0.0,0.0,0.0,0.0,0.0,0.0,0.0,0.0,0.0,0.0,0.0,0.0,0.0,0.0,0.0,0.0,0.0,0.0,0.0,0.0,0.0,0.0,0.0,0.0,0.0,0.0,0.0,0.0,0.0,0.0,0.0,0.0,0.0,0.0,0.0,0.0,0.0,0.0,0.0,0.0,0.0,0.0,0.0,0.0,0.0,0.0,0.0,0.0,0.0,0.0,0.0,0.0,0.0,0.0,0.0,0.0,0.0,0.0,0.0,0.0,0.0,0.0,0.0,0.0,0.0,0.0,0.0,0.0,0.0,0.0,0.0,0.0,0.0,0.0,0.0,0.0,0.0,0.0,0.0,0.0,0.0,0.0,0.0,0.0,0.0,0.0,0.0,0.0,0.0,0.0,0.0,1.4814,1.5766,1.6904,1.8223,1.9507,2.0361,2.0757,0.0,0.0,0.0,0.0,0.0,0.0,0.0,0.0,0.0,0.0,0.0,0.0,0.0,0.0,0.0,0.0,0.0,0.0,0.0,0.0,0.0,0.0,0.0,0.0,0.0,0.0,0.0,0.0,0.0,0.0,0.0,0.0,0.0,0.0,0.0,0.0,0.0,0.0,0.0,0.0,0.0,0.0,0.0,0.0,0.0,0.0,0.0,0.0,0.0,0.0,0.0,0.0,0.0,0.0,0.0,0.0,0.0,0.0,0.0,0.0,0.0,0.0,0.0,0.0,0.0,0.0,0.0,0.0,0.0,0.0,0.0,0.0,0.0,0.0,0.0,0.0,0.0,0.0,0.0,0.0,0.0,0.0,0.0,0.0,0.0,0.0,0.0,0.0,0.0,0.0,0.0,0.0,0.0,0.0,0.0,0.0,0.0,0.0,0.0,0.0,0.0,0.0,0.0,0.0,0.0,0.0,0.0,0.0,1.5002,1.6349,1.7609,1.8734,2.0335,2.1125,0.0,0.0,0.0,0.0,0.0,0.0,0.0,0.0,0.0,0.0,0.0,0.0,0.0,0.0,0.0,0.0,0.0,0.0,0.0,0.0,0.0,0.0,0.0,0.0,0.0,0.0,0.0,0.0,0.0,0.0,0.0,0.0,0.0,0.0,0.0,0.0,0.0,0.0,0.0,0.0,0.0,0.0,0.0,0.0,0.0,0.0,0.0,0.0,0.0,0.0,0.0,0.0,0.0,0.0,0.0,0.0,0.0,0.0,0.0,0.0,0.0,0.0,0.0,0.0,0.0,0.0,0.0,0.0,0.0,0.0,0.0,0.0,0.0,0.0,0.0,0.0,0.0,0.0,0.0,0.0,0.0,0.0,0.0,0.0,0.0,0.0,0.0,0.0,0.0,0.0,0.0,0.0,0.0,0.0,0.0,0.0,0.0,0.0,0.0,0.0,0.0,0.0,0.0,0.0,0.0,0.0,0.0,0.0,0.0,1.6489,1.8204,1.9178,1.9388,2.0419,2.1305,0.0,0.0,0.0,0.0,0.0,0.0,0.0,0.0,0.0,0.0,0.0,0.0,0.0,0.0,0.0,0.0,0.0,0.0,0.0,0.0,0.0,0.0,0.0,0.0,0.0,0.0,0.0,0.0,0.0,0.0,0.0,0.0,0.0,0.0,0.0,0.0,0.0,0.0,0.0,0.0,0.0,0.0,0.0,0.0,0.0,0.0,0.0,0.0,0.0,0.0,0.0,0.0,0.0,0.0,0.0,0.0,0.0,0.0,0.0,0.0,0.0,0.0,0.0,0.0,0.0,0.0,0.0,0.0,0.0,0.0,0.0,0.0,0.0,0.0,0.0,0.0,0.0,0.0,0.0,0.0,0.0,0.0,0.0,0.0,0.0,0.0,0.0,0.0,0.0,0.0,0.0,0.0,0.0,0.0,0.0,0.0,0.0,0.0,0.0,0.0,0.0,0.0,0.0,0.0,0.0,0.0,0.0,0.0,1.6944,1.8172,1.9889,2.0966,2.131,2.1864,2.2587,0.0,0.0,0.0,0.0,0.0,0.0,0.0,0.0,0.0,0.0,0.0,0.0,0.0,0.0,0.0,0.0,0.0,0.0,0.0,0.0,0.0,0.0,0.0,0.0,0.0,0.0,0.0,0.0,0.0,0.0,0.0,0.0,0.0,0.0,0.0,0.0,0.0,0.0,0.0,0.0,0.0,0.0,0.0,0.0,0.0,0.0,0.0,0.0,0.0,0.0,0.0,0.0,0.0,0.0,0.0,0.0,0.0,0.0,0.0,0.0,0.0,0.0,0.0,0.0,0.0,0.0,0.0,0.0,0.0,0.0,0.0,0.0,0.0,0.0,0.0,0.0,0.0,0.0,0.0,0.0,0.0,0.0,0.0,0.0,0.0,0.0,0.0,0.0,0.0,0.0,0.0,0.0,0.0,0.0,0.0,0.0,0.0,0.0,0.0,0.0,0.0,0.0,0.0,0.0,0.0,0.0,0.0,0.0,1.8222,2.0056,2.1523,2.2817,2.3878,2.3968,2.429,0.0,0.0,0.0,0.0,0.0,0.0,0.0,0.0,0.0,0.0,0.0,0.0,0.0,0.0,0.0,0.0,0.0,0.0,0.0,0.0,0.0,0.0,0.0,0.0,0.0,0.0,0.0,0.0,0.0,0.0,0.0,0.0,0.0,0.0,0.0,0.0,0.0,0.0,0.0,0.0,0.0,0.0,0.0,0.0,0.0,0.0,0.0,0.0,0.0,0.0,0.0,0.0,0.0,0.0,0.0,0.0,0.0,0.0,0.0,0.0,0.0,0.0,0.0,0.0,0.0,0.0,0.0,0.0,0.0,0.0,0.0,0.0,0.0,0.0,0.0,0.0,0.0,0.0,0.0,0.0,0.0,0.0,0.0,0.0,0.0,0.0,0.0,0.0,0.0,0.0,0.0,0.0,0.0,0.0,0.0,0.0,0.0,0.0,0.0,0.0,0.0,0.0,0.0,0.0,0.0,0.0,0.0,0.0,2.0266,2.1969,2.3389,2.4554,2.5408,2.4949,2.4666,0.0,0.0,0.0,0.0,0.0,0.0,0.0,0.0,0.0,0.0,0.0,0.0,0.0,0.0,0.0,0.0,0.0,0.0,0.0,0.0,0.0,0.0,0.0,0.0,0.0,0.0,0.0,0.0,0.0,0.0,0.0,0.0,0.0,0.0,0.0,0.0,0.0,0.0,0.0,0.0,0.0,0.0,0.0,0.0,0.0,0.0,0.0,0.0,2.4725,0.0,0.0,0.0,0.0,0.0,0.0,0.0,0.0,0.0,0.0,0.0,0.0,0.0,0.0,0.0,0.0,0.0,0.0,0.0,0.0,0.0,0.0,0.0,0.0,0.0,0.0,0.0,0.0,0.0,0.0,0.0,0.0,0.0,0.0,0.0,0.0,0.0,0.0,0.0,0.0,0.0,0.0,0.0,0.0,0.0,0.0,0.0,0.0,0.0,0.0,0.0,0.0,0.0,0.0,0.0,0.0,0.0,0.0,0.0,2.2067,2.3805,2.4956,2.5951,2.674,2.6425,2.5974,0.0,0.0,0.0,0.0,0.0,0.0,0.0,0.0,0.0,0.0,0.0,0.0,0.0,0.0,0.0,0.0,0.0,0.0,0.0,0.0,0.0,0.0,0.0,0.0,0.0,0.0,0.0,0.0,0.0,0.0,0.0,0.0,0.0,0.0,0.0,0.0,0.0,0.0,0.0,0.0,0.0,0.0,0.0,0.0,0.0,0.0,0.0,0.0,0.0,0.0,0.0,0.0,0.0,0.0,0.0,0.0,0.0,0.0,0.0,0.0,0.0,0.0,0.0,0.0,0.0,0.0,0.0,0.0,0.0,0.0,0.0,0.0,0.0,0.0,0.0,0.0,0.0,0.0,0.0,0.0,0.0,0.0,0.0,0.0,0.0,0.0,0.0,0.0,0.0,0.0,0.0,0.0,0.0,0.0,0.0,0.0,0.0,0.0,0.0,0.0,0.0,0.0,0.0,0.0,0.0,0.0,0.0,2.2332,2.3977,2.5673,2.656,2.7344,2.8044,2.8012,2.7606,2.6784,0.0,0.0,0.0,0.0,0.0,0.0,0.0,0.0,0.0,0.0,0.0,0.0,0.0,0.0,0.0,0.0,0.0,0.0,0.0,0.0,0.0,0.0,0.0,0.0,0.0,0.0,0.0,0.0,0.0,0.0,0.0,0.0,0.0,0.0,0.0,0.0,0.0,0.0,2.1621,2.2055,0.0,0.0,0.0,0.0,0.0,0.0,0.0,0.0,2.7175,0.0,0.0,0.0,0.0,0.0,0.0,0.0,0.0,0.0,0.0,0.0,0.0,0.0,0.0,0.0,0.0,0.0,0.0,0.0,0.0,0.0,0.0,0.0,0.0,0.0,0.0,0.0,0.0,0.0,0.0,0.0,0.0,0.0,0.0,0.0,0.0,0.0,0.0,0.0,0.0,0.0,0.0,0.0,0.0,0.0,0.0,0.0,0.0,0.0,0.0,0.0,0.0,0.0,0.0,0.0,0.0,2.2945,2.4908,2.6658,2.8091,2.8818,2.9189,2.9233,2.9223,2.8639,2.7494,0.0,0.0,0.0,0.0,0.0,0.0,0.0,0.0,0.0,0.0,0.0,0.0,0.0,0.0,0.0,0.0,0.0,0.0,0.0,0.0,0.0,0.0,0.0,0.0,0.0,0.0,0.0,0.0,0.0,0.0,0.0,0.0,0.0,0.0,0.0,0.0,0.0,0.0,0.0,2.1752,2.2357,0.0,0.0,0.0,0.0,0.0,0.0,0.0,0.0,2.8234,0.0,0.0,0.0,0.0,0.0,0.0,0.0,0.0,0.0,0.0,0.0,0.0,0.0,0.0,0.0,0.0,0.0,0.0,0.0,0.0,0.0,0.0,0.0,0.0,0.0,0.0,0.0,0.0,0.0,0.0,0.0,0.0,0.0,0.0,0.0,0.0,0.0,0.0,0.0,0.0,0.0,0.0,0.0,0.0,0.0,0.0,0.0,0.0,0.0,0.0,0.0,0.0,0.0,0.0,0.0,2.4661,2.6699,2.8464,2.9819,3.0353,3.0691,3.0843,3.0345,2.9578,0.0,0.0,0.0,0.0,0.0,0.0,0.0,0.0,0.0,0.0,0.0,0.0,0.0,0.0,0.0,0.0,0.0,0.0,0.0,0.0,0.0,0.0,0.0,0.0,0.0,0.0,0.0,0.0,0.0,0.0,0.0,0.0,0.0,0.0,0.0,0.0,0.0,0.0,0.0,0.0,2.296,2.3863,2.4533,0.0,0.0,0.0,0.0,0.0,0.0,2.8441,2.8643,0.0,0.0,0.0,0.0,0.0,0.0,0.0,0.0,0.0,0.0,0.0,0.0,0.0,0.0,0.0,0.0,0.0,0.0,0.0,0.0,0.0,0.0,0.0,0.0,0.0,0.0,0.0,0.0,0.0,0.0,0.0,0.0,0.0,0.0,0.0,0.0,0.0,0.0,0.0,0.0,0.0,0.0,0.0,0.0,0.0,0.0,0.0,0.0,0.0,0.0,0.0,0.0,0.0,0.0,0.0,2.6199,2.8456,3.0243,3.1526,3.1942,3.2248,3.2477,3.1454,3.0407,0.0,0.0,0.0,0.0,0.0,0.0,0.0,0.0,0.0,0.0,0.0,0.0,0.0,0.0,0.0,0.0,0.0,0.0,0.0,0.0,0.0,0.0,0.0,0.0,0.0,0.0,0.0,0.0,0.0,0.0,0.0,0.0,0.0,0.0,0.0,0.0,0.0,0.0,0.0,0.0,0.0,2.5198,2.6015,2.6308,0.0,0.0,0.0,0.0,2.843,2.8938,0.0,0.0,0.0,0.0,0.0,0.0,0.0,0.0,0.0,0.0,0.0,0.0,0.0,0.0,0.0,0.0,0.0,0.0,0.0,0.0,0.0,0.0,0.0,0.0,0.0,0.0,0.0,0.0,0.0,0.0,0.0,0.0,0.0,0.0,0.0,0.0,0.0,0.0,0.0,0.0,0.0,0.0,0.0,0.0,0.0,0.0,0.0,0.0,0.0,0.0,0.0,0.0,0.0,0.0,0.0,0.0,2.7836,3.0566,3.259,3.377,3.4156,3.4192,3.3865,3.2602,3.1317,0.0,0.0,0.0,0.0,0.0,0.0,0.0,0.0,0.0,0.0,0.0,0.0,0.0,0.0,0.0,0.0,0.0,0.0,0.0,0.0,0.0,0.0,0.0,0.0,0.0,0.0,0.0,0.0,0.0,0.0,0.0,0.0,0.0,0.0,0.0,0.0,0.0,0.0,0.0,0.0,0.0,2.5037,2.6369,2.7151,2.7897,0.0,0.0,3.038,3.0446,3.0336,0.0,0.0,0.0,0.0,0.0,0.0,0.0,0.0,0.0,0.0,0.0,0.0,0.0,0.0,0.0,0.0,0.0,0.0,0.0,0.0,0.0,0.0,0.0,0.0,0.0,0.0,0.0,0.0,0.0,0.0,0.0,0.0,0.0,0.0,0.0,0.0,0.0,0.0,0.0,0.0,0.0,0.0,0.0,0.0,0.0,0.0,0.0,0.0,0.0,0.0,0.0,0.0,0.0,0.0,0.0,2.7291,2.9366,3.1982,3.402,3.5342,3.5787,3.5821,3.5407,3.3983,3.2481,0.0,0.0,0.0,0.0,0.0,0.0,0.0,0.0,0.0,0.0,0.0,0.0,0.0,0.0,0.0,0.0,0.0,0.0,0.0,0.0,0.0,0.0,0.0,0.0,0.0,0.0,0.0,0.0,0.0,0.0,0.0,0.0,0.0,0.0,0.0,0.0,0.0,0.0,0.0,0.0,0.0,0.0,2.7619,2.8629,0.0,0.0,0.0,3.1224,3.1158,0.0,0.0,0.0,0.0,0.0,0.0,0.0,0.0,0.0,0.0,0.0,0.0,0.0,0.0,0.0,0.0,0.0,0.0,0.0,0.0,0.0,0.0,0.0,0.0,0.0,0.0,0.0,0.0,0.0,0.0,0.0,0.0,0.0,0.0,0.0,0.0,0.0,0.0,0.0,0.0,0.0,0.0,0.0,0.0,0.0,0.0,0.0,0.0,0.0,0.0,0.0,0.0,0.0,0.0,0.0,0.0,0.0,3.0539,3.3077,3.5146,3.6658,3.7173,3.7201,3.6722,3.5152,0.0,0.0,0.0,0.0,0.0,0.0,0.0,0.0,0.0,0.0,0.0,0.0,0.0,0.0,0.0,0.0,0.0,0.0,0.0,0.0,0.0,0.0,0.0,0.0,0.0,0.0,0.0,1.9713,0.0,0.0,0.0,0.0,0.0,0.0,0.0,0.0,0.0,0.0,0.0,0.0,0.0,0.0,2.806,2.9282,3.0287,3.0941,0.0,0.0,3.1995,3.1823,3.1582,3.102,0.0,0.0,0.0,0.0,0.0,0.0,0.0,0.0,0.0,0.0,0.0,0.0,0.0,0.0,0.0,0.0,0.0,0.0,0.0,0.0,0.0,0.0,0.0,0.0,0.0,0.0,0.0,0.0,0.0,0.0,0.0,0.0,0.0,0.0,0.0,0.0,0.0,0.0,0.0,0.0,0.0,0.0,0.0,0.0,0.0,0.0,0.0,0.0,0.0,0.0,0.0,0.0,0.0,0.0,0.0,3.1234,3.3785,3.6008,3.7802,3.8282,3.8215,3.7621,3.588,3.3969,0.0,0.0,0.0,0.0,0.0,0.0,0.0,0.0,0.0,0.0,0.0,0.0,0.0,0.0,0.0,0.0,0.0,0.0,0.0,0.0,0.0,0.0,0.0,0.0,0.0,0.0,0.0,0.0,0.0,0.0,0.0,0.0,0.0,0.0,0.0,0.0,0.0,0.0,0.0,0.0,0.0,2.8604,3.1394,3.1847,3.2359,0.0,0.0,3.32,3.2913,3.246,3.1561,2.9785,0.0,0.0,0.0,0.0,0.0,0.0,0.0,0.0,0.0,0.0,0.0,0.0,0.0,0.0,0.0,0.0,0.0,0.0,0.0,0.0,0.0,0.0,0.0,0.0,0.0,0.0,0.0,0.0,0.0,0.0,0.0,0.0,0.0,0.0,0.0,0.0,0.0,0.0,0.0,0.0,0.0,0.0,0.0,0.0,0.0,0.0,0.0,0.0,0.0,0.0,0.0,0.0,0.0,2.8863,3.161,3.4299,3.6595,3.843,3.8997,3.8929,3.8286,3.6356,3.4323,0.0,0.0,0.0,0.0,0.0,0.0,0.0,0.0,0.0,0.0,0.0,0.0,0.0,0.0,0.0,0.0,0.0,0.0,0.0,0.0,0.0,0.0,0.0,0.0,0.0,0.0,0.0,0.0,1.8567,1.8654,1.8998,0.0,0.0,0.0,0.0,0.0,0.0,0.0,0.0,0.0,0.0,2.9703,3.1709,3.2622,0.0,0.0,3.386,3.3594,3.329,3.2102,3.0842,2.9669,2.8485,0.0,0.0,0.0,0.0,0.0,0.0,0.0,0.0,0.0,0.0,0.0,0.0,0.0,0.0,0.0,0.0,0.0,0.0,0.0,0.0,0.0,0.0,0.0,0.0,0.0,0.0,0.0,0.0,0.0,0.0,0.0,0.0,0.0,0.0,0.0,0.0,0.0,0.0,0.0,0.0,0.0,0.0,0.0,0.0,0.0,0.0,0.0,0.0,0.0,0.0,0.0,0.0,2.906,3.1837,3.4699,3.7059,3.8916,3.955,3.9473,3.8687,3.6965,3.4919,0.0,0.0,0.0,0.0,0.0,0.0,0.0,0.0,0.0,0.0,0.0,0.0,0.0,0.0,0.0,0.0,0.0,0.0,0.0,0.0,0.0,0.0,0.0,0.0,0.0,0.0,0.0,0.0,1.9208,1.92,1.9363,0.0,0.0,0.0,0.0,0.0,0.0,0.0,0.0,0.0,0.0,3.072,3.2377,3.3304,3.3895,3.4213,3.4016,3.3682,3.3188,3.1865,3.0606,2.9837,0.0,0.0,0.0,0.0,0.0,0.0,0.0,0.0,0.0,0.0,0.0,0.0,0.0,0.0,0.0,0.0,0.0,0.0,0.0,0.0,0.0,0.0,0.0,0.0,0.0,0.0,0.0,0.0,0.0,0.0,2.3595,0.0,0.0,0.0,0.0,0.0,0.0,0.0,0.0,0.0,0.0,0.0,0.0,0.0,0.0,0.0,0.0,0.0,0.0,0.0,0.0,0.0,0.0,2.9178,3.1978,3.494,3.7406,3.9235,3.9875,3.9786,3.8898,3.765,3.5834,3.3415,0.0,0.0,0.0,0.0,0.0,0.0,0.0,0.0,0.0,0.0,0.0,0.0,0.0,0.0,0.0,0.0,0.0,0.0,0.0,0.0,0.0,0.0,0.0,0.0,0.0,0.0,2.0572,2.0457,2.0144,0.0,0.0,0.0,0.0,0.0,0.0,0.0,0.0,0.0,0.0,2.9816,3.1567,3.3621,3.3985,3.4152,3.4695,3.415,3.3427,3.2631,3.1912,3.1182,0.0,0.0,0.0,0.0,0.0,0.0,0.0,0.0,0.0,0.0,0.0,0.0,0.0,0.0,0.0,0.0,0.0,0.0,0.0,0.0,0.0,0.0,0.0,0.0,0.0,0.0,0.0,2.474,2.5947,0.0,0.0,0.0,0.0,0.0,0.0,0.0,0.0,0.0,0.0,0.0,3.1607,3.2398,0.0,0.0,0.0,0.0,0.0,0.0,0.0,0.0,0.0,0.0,0.0,0.0,2.9645,3.2006,3.5075,3.7608,3.9455,4.0043,3.9946,3.9053,3.7687,3.5562,3.2505,0.0,0.0,0.0,0.0,0.0,0.0,0.0,0.0,0.0,0.0,0.0,0.0,0.0,0.0,0.0,0.0,0.0,0.0,0.0,0.0,0.0,0.0,0.0,0.0,0.0,2.054,0.0,0.0,0.0,0.0,0.0,0.0,0.0,0.0,0.0,0.0,0.0,2.6352,2.8224,2.9632,3.127,3.3367,3.3546,3.3662,0.0,0.0,0.0,0.0,0.0,0.0,0.0,0.0,0.0,0.0,0.0,0.0,0.0,0.0,2.672,2.6764,2.6779,2.6868,2.7242,0.0,0.0,0.0,0.0,0.0,0.0,0.0,0.0,0.0,0.0,0.0,0.0,0.0,0.0,0.0,0.0,2.9456,0.0,0.0,0.0,0.0,0.0,0.0,0.0,0.0,3.2588,3.3111,3.2993,3.3705,3.3105,0.0,3.169,3.0823,0.0,0.0,0.0,0.0,0.0,0.0,0.0,0.0,3.0243,3.2387,3.555,3.7997,3.9549,4.0135,4.0134,3.9525,3.786,3.5605,3.2783,3.1438,3.0098,0.0,0.0,0.0,0.0,0.0,0.0,0.0,0.0,0.0,0.0,0.0,0.0,0.0,0.0,0.0,0.0,0.0,0.0,0.0,0.0,0.0,0.0,0.0,2.1528,0.0,0.0,0.0,0.0,0.0,0.0,0.0,0.0,0.0,2.3969,2.5423,2.6992,2.8601,2.9774,3.1161,3.3062,0.0,0.0,0.0,0.0,0.0,0.0,0.0,3.0472,2.9797,2.9099,2.8471,2.7983,2.7731,2.7587,2.7533,0.0,0.0,2.7534,2.7579,2.7778,2.8246,2.8317,2.8326,2.8357,2.8157,2.7948,0.0,0.0,0.0,0.0,0.0,0.0,0.0,0.0,2.9437,3.0857,0.0,3.2341,0.0,0.0,0.0,0.0,0.0,3.2078,0.0,0.0,3.4133,3.4468,3.4153,3.4481,3.3855,3.2578,3.2986,3.2696,3.1593,2.8613,0.0,0.0,0.0,0.0,0.0,0.0,3.1036,3.2997,3.6275,3.8513,3.9549,4.0119,4.0341,4.015,3.7991,3.5972,3.4287,3.3915,3.2447,2.9471,2.9411,0.0,0.0,0.0,0.0,0.0,0.0,0.0,0.0,0.0,0.0,0.0,0.0,0.0,0.0,0.0,0.0,0.0,0.0,0.0,0.0,2.2341,0.0,0.0,0.0,0.0,0.0,0.0,0.0,0.0,0.0,0.0,2.5424,2.6661,2.8035,2.9435,0.0,0.0,0.0,0.0,3.2844,3.3309,3.3094,3.2611,3.1775,3.1509,3.1227,3.083,0.0,0.0,2.9381,2.89,2.8558,2.8398,2.8266,2.7911,2.7515,2.7695,2.8133,2.8899,2.9098,2.9337,2.9828,2.9696,2.9557,3.3371,0.0,0.0,0.0,0.0,2.9153,3.047,3.1907,3.3023,3.4411,3.5799,3.5565,0.0,0.0,0.0,0.0,0.0,0.0,3.4927,3.5452,3.5901,3.624,3.6483,3.6408,3.5753,3.4727,3.5061,3.4884,3.4105,3.2288,3.051,2.8822,0.0,0.0,0.0,0.0,3.195,3.3103,3.6306,3.8513,3.9581,4.0135,3.9865,3.8774,3.7484,3.599,3.4259,3.3931,3.2652,3.0229,2.9497,0.0,0.0,0.0,0.0,0.0,0.0,0.0,0.0,0.0,0.0,0.0,0.0,0.0,0.0,0.0,0.0,0.0,0.0,0.0,2.2309,2.29,2.3057,0.0,0.0,0.0,0.0,0.0,0.0,0.0,0.0,0.0,2.7586,2.7813,2.8368,0.0,0.0,3.1415,3.2733,3.2758,3.2644,3.2664,3.2839,0.0,0.0,3.1244,3.114,3.0566,2.9958,2.9662,2.9958,2.9656,2.947,2.9722,2.9759,2.9567,2.9121,2.8824,2.8856,2.9179,2.9536,2.9837,3.0021,2.9968,2.9927,3.7169,3.4378,3.2317,3.1324,3.122,3.2214,3.36,3.5169,3.6079,3.7407,3.8881,3.8578,3.8256,3.7855,3.6955,0.0,0.0,0.0,3.6761,3.739,3.7452,3.7617,3.7841,3.7435,3.6843,3.6151,3.6319,3.6234,3.5836,3.4882,3.3702,3.2258,0.0,0.0,3.0163,3.153,3.2714,3.3893,3.6801,3.8733,3.9581,4.045,3.9998,3.8148,3.7585,3.6496,3.4761,3.436,3.3123,3.0899,3.031,2.9307,0.0,0.0,0.0,0.0,0.0,0.0,0.0,0.0,0.0,0.0,0.0,2.1781,2.1761,0.0,0.0,0.0,2.2004,2.2502,2.3303,2.3738,0.0,0.0,0.0,0.0,0.0,0.0,0.0,2.5093,2.6131,2.7382,2.8845,2.9025,2.9438,3.057,3.1041,3.1639,3.2634,0.0,3.2523,3.2621,3.2659,3.2384,3.1556,3.1413,3.1218,3.069,3.0018,2.9678,2.9986,2.9735,2.9584,2.9837,2.9877,2.9735,2.9463,2.9383,2.944,2.9638,2.9939,3.0179,3.0284,3.0223,3.0204,4.0426,3.9553,3.6529,3.4924,3.441,3.5058,3.6449,3.8325,3.8796,4.0007,4.1648,4.136,4.0815,3.9986,3.8317,0.0,3.7763,3.7948,3.8314,3.8803,3.8761,3.8682,3.8579,3.7862,3.7407,3.7163,3.7146,3.7175,3.7222,3.6704,3.6518,3.658,3.2705,3.1395,3.2572,3.2632,3.3457,3.5032,3.7524,3.906,3.9659,4.0852,4.0413,3.8172,3.8031,3.7154,3.547,3.5006,3.3735,3.1549,3.1329,3.0131,2.7719,0.0,0.0,0.0,0.0,0.0,0.0,0.0,0.0,0.0,0.0,0.0,0.0,0.0,0.0,0.0,2.2852,0.0,2.4107,2.4668,0.0,0.0,0.0,2.5233,2.5199,2.562,2.6025,2.6363,0.0,0.0,2.9663,3.0259,3.0909,3.1749,3.1782,3.1969,3.2529,3.2437,3.2451,3.2806,3.248,3.2164,3.1974,3.17,3.1312,3.0906,3.0444,3.0024,2.9893,2.9489,2.9227,2.9401,2.9117,2.891,2.8933,2.9283,2.9763,2.9957,3.0157,3.0305,3.0479,3.0493,3.0326,4.3668,4.2386,4.1469,3.963,3.7397,3.842,3.9728,4.1189,4.1965,4.2861,4.3681,4.3289,4.2591,4.1669,4.0816,4.0212,3.991,3.9529,3.9532,3.9896,3.9349,3.9266,3.963,3.9002,3.8929,3.9302,3.9166,3.948,4.0025,3.8953,3.8424,3.8341,3.5853,3.4297,3.382,3.3946,3.4508,3.5526,3.7675,3.9251,4.0178,4.0507,3.9837,3.8138,3.7492,3.6583,3.5351,3.4315,3.2971,3.127,3.0532,2.9518,2.8125,2.7083,0.0,0.0,0.0,0.0,0.0,0.0,0.0,0.0,0.0,2.2202,2.269,0.0,2.3174,0.0,2.4122,2.4591,2.4706,2.49,0.0,0.0,2.5787,2.6066,2.6868,2.7305,2.7868,2.8814,2.9364,3.0143,3.1338,3.1495,3.1913,3.2975,3.2486,3.2176,3.2611,3.2404,3.2244,3.2354,3.2063,3.1688,3.1522,3.1187,3.083,3.0577,3.0184,2.9988,3.0346,2.9765,2.9374,2.9586,2.92,2.8742,2.8384,2.8567,2.8679,2.8701,2.9308,2.9987,3.0224,3.0112,2.9937,4.5415,4.4539,4.4348,4.3051,4.1162,4.0995,4.1637,4.2837,4.3748,4.4592,4.5284,4.4702,4.4013,4.3234,4.2058,4.1317,4.1026,4.0385,4.0275,4.0477,3.9866,3.9681,3.9839,3.9325,3.9446,4.0088,4.0006,4.0332,4.102,4.0367,3.9832,3.9505,3.7871,3.6616,3.5735,3.5327,3.5603,3.6608,3.8595,3.9834,4.0283,4.0739,4.0034,3.8172,3.73,3.6366,3.5301,3.3687,3.2242,3.1059,3.0166,2.9211,2.8165,2.7113,2.6291,0.0,0.0,0.0,0.0,0.0,0.0,0.0,0.0,0.0,0.0,0.0,2.4172,2.4957,2.5404,2.5785,2.6036,2.627,2.6573,2.6933,2.7182,2.7533,2.8111,2.8823,2.9488,3.005,3.0431,3.1132,3.232,3.233,3.2622,3.3697,3.3312,3.2992,3.3156,3.3081,3.2876,3.2576,3.2061,3.145,3.0875,3.0527,3.0222,3.0005,2.9696,2.9568,2.9762,2.9333,2.8998,2.9189,2.8827,2.8345,2.801,2.8076,2.8093,2.7795,2.8162,2.8792,2.9303,2.9189,2.8979,4.6508,4.6194,4.6031,4.5566,4.479,4.3164,4.3012,4.3881,4.4817,4.579,4.6652,4.5807,4.5186,4.4615,4.2797,4.1858,4.1571,4.0912,4.0628,4.0698,4.0191,3.9899,3.9781,3.9438,3.9661,4.0382,4.0412,4.0721,4.1385,4.1258,4.0872,4.017,3.9156,3.8307,3.7682,3.6746,3.6807,3.7896,3.9789,4.0594,4.0371,4.1068,4.0426,3.8319,3.7168,3.6166,3.518,3.3131,3.1693,3.1009,3.0161,2.9233,2.8251,2.724,2.6465,0.0,2.4929,0.0,0.0,0.0,0.0,0.0,0.0,0.0,0.0,2.4738,2.5262,2.6631,2.6759,2.7031,2.7677,2.8082,2.8397,2.8568,2.901,2.9305,2.9311,3.0224,3.0861,3.0832,3.1193,3.1909,3.2959,3.2971,3.3221,3.4028,3.4039,3.3904,3.3923,3.3769,3.3395,3.3021,3.2208,3.119,3.0266,2.9856,2.9618,2.9399,2.9189,2.8973,2.8816,2.8562,2.8386,2.8401,2.8083,2.7716,2.7456,2.7611,2.7531,2.6869,2.7009,2.7523,2.8066,2.8092,2.7788,4.8322,4.7333,4.7242,4.6752,4.5949,4.5403,4.5117,4.5106,4.6045,4.6962,4.7747,4.711,4.6337,4.5432,4.4534,4.3416,4.2204,4.1497,4.0863,4.0287,3.9945,3.9932,4.0242,4.0199,4.0808,4.1904,4.1964,4.2273,4.2842,4.2178,4.1448,4.0662,3.9746,3.8913,3.815,0.0,0.0,0.0,4.0582,4.1308,4.1077,4.0765,4.0095,3.8926,3.6801,0.0,3.4826,3.2819,3.1622,3.1444,3.0569,0.0,0.0,0.0,0.0,0.0,0.0,0.0,0.0,0.0,0.0,0.0,2.6652,2.6324,2.6033,2.6433,2.7246,2.843,2.8259,2.8339,2.8972,2.8985,2.9367,3.0322,3.0425,3.0598,3.1096,3.1567,3.1991,3.2451,3.2759,3.3156,3.3824,3.3794,3.3865,3.4313,3.4423,3.4373,3.426,3.3528,3.2922,3.2686,3.1672,3.0534,2.9674,2.9365,2.9209,2.9131,2.8835,2.8598,2.8518,2.8055,2.7632,2.753,2.7119,2.6688,2.6105,2.6432,2.6718,2.5904,2.6259,2.6829,2.73,2.7259,2.7095,4.9453,0.0,4.864,4.8075,0.0,4.7356,4.6988,4.6403,4.6886,4.7735,4.8752,4.8148,4.7223,4.6089,4.5142,4.3816,4.2206,4.1522,4.0851,4.0183,3.9844,3.9938,4.0397,4.0397,4.1104,4.2381,4.2381,4.2681,4.3091,4.2594,4.1922,4.1077,4.0539,3.9916,3.9179,3.974,3.9943,3.9651,4.0826,4.1368,4.1163,4.0812,4.0301,3.9537,0.0,0.0,0.0,0.0,0.0,0.0,0.0,0.0,0.0,0.0,0.0,2.8824,2.8435,2.8254,2.841,2.8249,2.8287,2.8621,2.8484,2.8122,2.7425,2.8092,2.8885,2.9681,2.962,2.9793,3.0451,3.0397,3.0557,3.1181,3.1422,3.1746,3.228,3.2741,3.3177,3.3633,3.3725,3.3992,3.4574,3.4372,3.4254,3.4452,3.4246,3.3919,3.3642,3.3581,3.3277,3.2237,3.1075,2.9985,2.9175,2.8895,2.8741,2.8542,2.8343,2.8223,2.8203,2.7817,2.7429,2.7226,2.688,2.6431,2.6021,2.6278,2.6409,2.5883,2.6104,2.6448,2.6488,2.6372,2.6255,5.0214,4.992,4.9781,4.9248,4.8619,4.8855,4.8458,4.7663,0.0,0.0,0.0,4.8895,4.788,4.6466,4.5257,4.3759,4.2028,4.1306,4.0681,4.0126,3.9912,4.0082,4.0546,4.0696,4.1403,4.2511,4.2541,4.2712,4.2981,4.2809,4.2234,4.1476,4.1177,4.0837,4.0363,4.105,4.1125,4.053,4.1134,4.1461,4.1358,4.1186,4.0786,4.015,3.8362,3.7144,3.6485,3.4137,3.2729,3.2555,3.1211,3.0326,3.0114,2.964,2.949,2.9668,2.9199,2.9184,2.984,2.9732,2.9827,3.0321,3.0183,2.9715,2.8982,2.953,3.0162,3.0738,3.0835,3.1148,3.1804,3.1739,3.1696,3.1808,3.2241,3.2671,3.3081,3.352,3.3919,3.446,3.4407,3.4538,3.5092,3.4797,3.4485,3.4359,3.3853,3.3187,3.2754,3.3146,3.2962,3.1336,3.035,2.9528,2.8727,2.8423,2.8239,2.8022,2.7901,2.7841,2.78,2.7574,2.7328,2.7083,2.6802,2.6485,2.6239,2.6404,2.6421,2.5915,2.6171,2.6328,2.5844,2.5698,2.565,5.073,5.0143,5.0136,4.9935,4.9663,4.9316,4.8909,4.8506,4.8397,4.8689,4.9229,4.9021,4.7995,4.6285,4.5365,4.3767,4.1669,4.0905,4.027,0.0,4.0124,4.0643,4.1283,4.1852,4.2481,4.313,4.319,4.3121,4.3001,4.2809,4.2263,4.1485,4.1197,4.1065,4.1013,4.1411,4.1844,4.2209,4.2254,4.2425,4.2765,4.2192,4.1459,4.0622,3.9382,3.7887,3.6228,3.5208,3.4416,3.3785,3.3358,3.3011,3.2764,3.2281,3.1957,3.1684,3.1185,3.0817,3.0673,3.0777,3.1152,3.1826,3.2027,3.1638,3.0675,3.0455,3.0825,3.1792,3.1716,3.1815,3.2382,3.2343,3.2455,3.2915,3.2961,3.3117,3.3658,3.3551,3.3842,3.4881,3.4843,3.4915,3.533,3.4914,3.4399,3.4146,3.3251,3.2486,3.1787,3.1716,3.1279,3.0167,2.9606,2.9096,2.8402,2.8102,2.7962,2.7901,2.7676,2.7574,2.7574,2.7269,2.6985,2.6759,2.6677,2.6475,2.6129,2.6436,2.6507,2.6037,2.6235,2.6304,2.5815,2.5674,2.5596,5.1111,5.0717,5.0634,5.046,5.0241,4.9992,4.9628,4.9268,4.9011,4.8962,4.9046,4.8923,4.774,4.5923,4.5097,4.3488,4.129,4.0633,4.0309,4.0257,4.0339,4.0954,4.1912,4.2261,4.272,4.326,4.329,4.315,4.287,4.2749,4.2379,4.1811,4.1791,4.1918,4.2158,4.2634,4.3187,4.3803,4.3154,4.308,4.3644,4.2686,4.2189,4.2247,4.0776,3.9391,3.8248,3.7274,3.6394,3.56,3.4975,3.4498,3.422,3.3763,3.3477,3.3485,3.2983,3.2605,3.2475,3.2266,3.2212,3.2347,3.2449,3.2314,3.1865,3.1709,3.1854,3.2359,3.2512,3.267,3.2952,3.2939,3.2999,3.328,3.3122,3.3324,3.4039,3.3963,3.4249,3.5197,3.5343,3.5243,3.5069,3.4647,3.3953,3.3218,3.2182,3.1149,3.0313,3.0149,3.0018,2.9488,2.9031,2.8485,2.7921,2.7736,2.7635,2.7537,2.7435,2.733,2.731,2.7088,2.6954,2.6951,2.6858,2.6759,2.662,2.6884,2.6806,2.6388,2.6335,2.6279,2.5864,2.5479,2.5235,5.1536,5.1256,5.1105,5.0934,5.0794,5.057,5.0252,4.9814,4.9443,4.904,4.8709,4.8529,4.7398,4.5666,4.4672,4.3149,4.1282,4.0585,4.043,4.0624,4.077,4.1403,4.2351,4.253,4.2851,4.326,4.325,4.305,4.2729,4.2648,4.2453,4.2175,4.2331,4.2668,4.309,4.3634,4.4285,4.4849,4.4039,4.3874,4.4362,4.3361,4.302,4.3317,4.21,4.0976,4.0166,3.9245,3.8301,3.7313,3.6471,3.5799,3.5388,3.4861,3.4639,3.4732,3.4227,3.3874,3.3803,3.3378,3.2993,3.2847,3.2769,3.2774,3.2817,3.28,3.2755,3.2777,3.3058,3.328,3.328,3.328,3.3308,3.329,3.3208,3.3512,3.4296,3.4399,3.4679,3.554,3.571,3.5365,3.4687,3.4239,3.3429,3.1998,3.0939,3.0042,2.9268,2.9052,2.9014,2.8987,2.8552,2.8025,2.7571,2.7473,2.7371,2.721,2.721,2.721,2.7213,2.7115,2.7092,2.7244,2.7256,2.7173,2.7305,2.7331,2.7103,2.6611,2.6496,2.6304,2.5815,2.5308,2.4941,5.1926,5.1499,5.1443,5.1424,5.1327,5.0881,5.0447,5.0002,4.9392,4.8597,4.7853,4.7803,4.7028,4.5679,4.4204,4.2782,4.1467,4.0915,4.0594,4.0632,4.1662,4.2291,4.247,4.297,4.325,4.327,4.313,4.295,4.2688,4.2535,4.231,4.2175,4.2494,4.287,4.327,4.3773,4.4393,4.5148,4.5042,4.507,4.5147,4.4614,4.3913,4.3163,4.3299,4.2422,4.0674,4.0448,3.9824,3.8505,3.8031,3.7426,3.656,3.5928,3.5463,3.5094,3.4505,3.4031,3.3691,3.344,3.3467,3.3739,3.3551,3.343,3.3474,3.3318,3.3231,3.3231,3.3269,3.3308,3.3308,3.3308,3.329,3.3283,3.3417,3.3799,3.435,3.4648,3.5004,3.5608,3.569,3.5392,3.4552,3.3799,3.2664,3.1093,3.0528,3.0033,2.9426,2.8966,2.8771,2.8671,2.8274,2.7891,2.7603,2.7353,2.7341,2.7256,2.7213,2.7302,2.7353,2.7457,2.7522,2.7667,2.7656,2.7716,2.752,2.7429,2.7327,2.6675,2.6444,2.6299,2.5791,2.5284,2.4966,5.2164,5.1962,5.1776,5.1651,5.1637,5.1558,5.0859,4.9809,4.953,4.8535,4.7129,4.6808,4.6196,4.5263,4.414,4.3015,4.1911,4.1467,4.1411,4.1602,4.2171,4.2571,4.294,4.316,4.329,4.327,4.311,4.291,4.2668,4.2372,4.2175,4.2154,4.2514,4.285,4.317,4.3821,4.4458,4.4986,4.5241,4.5502,4.5688,4.5263,4.4893,4.4675,4.4288,4.3572,4.2474,4.2169,4.149,4.0299,3.9564,3.8843,3.8139,3.7182,3.6401,3.5882,3.5001,3.4373,3.4064,3.3826,3.3699,3.3727,3.364,3.3553,3.3431,3.3343,3.3308,3.3308,3.3308,3.3308,3.3308,3.3308,3.3273,3.3205,3.341,3.3799,3.4264,3.4597,3.5039,3.5581,3.5588,3.5096,3.3945,3.265,3.1654,3.0875,3.0567,3.0244,3.006,2.9703,2.9323,2.907,2.8766,2.8347,2.7953,2.8008,2.7807,2.7486,2.7715,2.8035,2.774,2.789,2.8107,2.8292,2.8299,2.8224,2.8046,2.7806,2.7579,2.6812,2.6179,2.5936,2.5742,2.5284,2.4966,5.2396,5.2254,5.1926,5.1849,5.1904,5.2032,5.1191,4.9768,4.9582,4.8414,4.6559,4.5999,4.5476,4.4805,4.4042,4.3174,4.2369,4.2032,4.2076,4.241,4.2571,4.288,4.329,4.329,4.327,4.319,4.303,4.2789,4.2555,4.2278,4.2092,4.2154,4.2453,4.2749,4.3041,4.3704,4.4285,4.4799,4.5129,4.5481,4.5801,4.5589,4.5536,4.5641,4.4935,4.4237,4.3748,4.3271,4.2584,4.1578,4.0797,4.0058,3.9421,3.8156,3.6985,3.6029,3.5134,3.4488,3.4196,3.3951,3.3709,3.3536,3.3518,3.3466,3.3343,3.3308,3.3308,3.3308,3.3308,3.3308,3.3308,3.3308,3.3294,3.3256,3.3624,3.4009,3.4424,3.4784,3.5189,3.5528,3.5481,3.4942,3.3647,3.2319,3.1371,3.1399,3.0994,3.0642,3.0663,3.025,2.9703,2.9616,2.9339,2.8874,2.8359,2.8382,2.8264,2.8059,2.8287,2.8471,2.8264,2.8481,2.8648,2.8764,2.8746,2.8561,2.827,2.8073,2.7668,2.6757,2.6102,2.5718,2.5552,2.5186,2.4917,5.2626,5.2272,5.1926,5.1922,5.2068,5.2086,5.1244,4.9842,4.9544,4.8238,4.6344,4.5565,4.5011,4.4543,4.3726,4.3118,4.2689,4.2466,4.24,4.2481,4.3,4.328,4.329,4.329,4.321,4.305,4.2809,4.2535,4.2204,4.2171,4.2092,4.2142,4.2447,4.2666,4.3,4.333,4.3782,4.4477,4.4629,4.4961,4.5444,4.5669,4.5649,4.5548,4.5012,4.4513,4.3989,4.3427,4.275,4.1999,4.1584,4.1005,3.9978,3.8668,3.7013,3.5258,3.4664,3.4191,3.3744,3.3623,3.3536,3.3361,3.3343,3.3326,3.3308,3.3308,3.3308,3.3308,3.3329,3.3357,3.3347,3.3367,3.3465,3.3759,3.4214,3.4615,3.4979,3.5281,3.5528,3.544,3.5319,3.4815,3.394,3.2967,3.2197,3.1928,3.1493,3.103,3.0817,3.0119,2.982,2.9955,2.9764,2.9274,2.8815,2.8907,2.8838,2.8587,2.8566,2.8791,2.8906,2.9023,2.9166,2.9238,2.9263,2.9031,2.854,2.8017,2.7491,2.6769,2.6077,2.5693,2.5455,2.5137,2.4867,5.2799,5.2373,5.223,5.223,5.2266,5.2173,5.1191,4.9685,4.9209,4.788,4.6086,4.5302,4.4629,4.3927,4.3501,4.3313,4.3324,4.3098,4.3,4.3,4.322,4.329,4.329,4.317,4.3061,4.2941,4.2648,4.2576,4.2744,4.3079,4.3311,4.3354,4.3515,4.35,4.3334,4.3695,4.3968,4.3988,4.4247,4.4629,4.5074,4.5173,4.5306,4.5524,4.5467,4.5095,4.448,4.3926,4.3256,4.2416,4.156,4.0769,3.9944,3.8343,3.6783,3.5422,3.4854,3.4361,3.3708,3.3483,3.3378,3.3326,3.3308,3.3336,3.3308,3.3308,3.3308,3.3357,3.3691,3.3814,3.371,3.3683,3.3694,3.3771,3.4395,3.4862,3.4967,3.525,3.5487,3.5332,3.4888,3.4163,3.3569,3.2725,3.2219,3.2132,3.1689,3.1459,3.1433,3.0878,3.0465,3.0565,3.0277,2.9894,2.9757,2.9688,2.9574,2.9187,2.9051,2.9386,2.9591,2.9685,2.9781,2.9848,2.9852,2.9349,2.8769,2.7765,2.7235,2.6734,2.6064,2.5596,2.5357,2.5039,2.4775,5.2746,5.2427,5.2391,5.2356,5.2284,5.2173,5.1251,4.9836,4.9076,4.7791,4.6184,4.5192,4.4331,4.3665,4.3329,4.3399,4.3629,4.3289,4.3229,4.3418,4.3418,4.3507,4.3665,4.3593,4.3492,4.3369,4.3089,4.3081,4.3333,4.3776,4.3979,4.4001,4.4151,4.4025,4.3721,4.3883,4.3875,4.3788,4.3903,4.417,4.4534,4.4648,4.4874,4.5184,4.5393,4.5132,4.4405,4.3798,4.3106,4.227,4.1374,4.0507,3.9565,3.8188,3.6842,3.5735,3.5304,3.481,3.4214,3.3987,3.3916,3.3916,3.3916,3.3916,3.3916,3.3924,3.3896,3.4018,3.4248,3.4427,3.427,3.4298,3.4297,3.4193,3.4701,3.5053,3.5033,3.5224,3.5318,3.5128,3.4521,3.3882,3.3481,3.292,3.2611,3.2508,3.2088,3.1899,3.1797,3.1408,3.0962,3.0848,3.0464,3.0215,3.0078,3.0009,3.0009,2.9667,2.9508,2.9847,3.0117,3.0236,3.0329,3.0396,3.0102,2.9532,2.8725,2.772,2.7044,2.656,2.5966,2.5406,2.5186,2.4941,2.4695,5.2551,5.2409,5.2391,5.2266,5.2122,5.205,5.1423,5.0279,4.9281,4.8107,4.6716,4.5371,4.4491,4.3746,4.3409,4.3334,4.3584,4.316,4.321,4.3723,4.3732,4.4027,4.447,4.4398,4.4301,4.4139,4.405,4.3972,4.403,4.4146,4.4204,4.4095,4.4204,4.4283,4.4272,4.3868,4.3675,4.384,4.3628,4.3587,4.3899,4.4162,4.4324,4.4553,4.4687,4.4419,4.37,4.3025,4.2412,4.1683,4.1242,4.0337,3.9009,3.821,3.7326,3.6241,3.5801,3.5547,3.5215,3.5104,3.5066,3.5047,3.5142,3.5029,3.4989,3.4996,3.5011,3.4971,3.5087,3.505,3.4891,3.5109,3.5212,3.5128,3.5104,3.518,3.5319,3.5386,3.5237,3.4856,3.435,3.411,3.3976,3.3543,3.3144,3.2853,3.2537,3.2103,3.1737,3.1273,3.0938,3.0645,3.0397,3.0238,3.0216,3.0216,3.0216,3.0147,3.0078,3.0192,3.0393,3.0532,3.0532,3.0578,3.017,2.9578,2.8657,2.7675,2.6989,2.6463,2.583,2.526,2.4947,2.472,2.4579,5.2533,5.2373,5.223,5.2158,5.2083,5.1827,5.1186,5.0355,4.9567,4.8584,4.7448,4.642,4.5543,4.4798,4.4306,4.4028,4.3873,4.3669,4.3847,4.4276,4.4318,4.4385,4.4541,4.4494,4.4294,4.4196,4.4458,4.464,4.4727,4.5053,4.5285,4.5308,4.5308,4.5097,4.4749,4.4624,4.4533,4.4162,4.3803,4.3694,4.3897,4.3579,4.3527,4.3684,4.3762,4.3444,4.2765,4.2721,4.2174,4.1115,4.0698,4.0004,3.9092,3.8538,3.7835,3.6851,3.6636,3.6278,3.5705,3.5622,3.5632,3.5604,3.5494,3.5392,3.5402,3.5318,3.5253,3.5255,3.544,3.5504,3.5328,3.5625,3.5605,3.5143,3.5234,3.5305,3.5312,3.5141,3.4847,3.4579,3.4257,3.4042,3.3837,3.353,3.3193,3.277,3.2487,3.2179,3.1562,3.1184,3.0893,3.0623,3.0397,3.0284,3.0329,3.0442,3.0532,3.0487,3.042,3.0465,3.069,3.078,3.078,3.0532,3.0125,2.9463,2.8566,2.7744,2.7013,2.6322,2.5723,2.52,2.4769,2.4579,2.4516,5.2445,5.2266,5.214,5.2028,5.1849,5.1592,5.1146,5.0524,4.9791,4.8967,4.8033,4.7032,4.6143,4.5346,4.4794,4.4526,4.4342,4.4327,4.4596,4.4951,4.4789,4.4848,4.5032,4.4982,4.4829,4.4778,4.5082,4.5278,4.5285,4.5685,4.5888,4.5888,4.5917,4.5714,4.5278,4.5105,4.4873,4.4508,4.4115,4.3864,4.3723,4.3442,4.3187,4.313,4.309,4.2743,4.2138,4.2293,4.1846,4.0741,4.0018,3.9433,3.8889,3.8557,3.8076,3.7543,3.7306,3.7059,3.6566,3.651,3.6472,3.6453,3.6342,3.6249,3.6202,3.6033,3.5957,3.5938,3.6042,3.6034,3.5896,3.5931,3.5827,3.5281,3.5305,3.5325,3.5188,3.4853,3.4579,3.4324,3.4069,3.3857,3.3619,3.3405,3.3043,3.2553,3.24,3.2094,3.1451,3.1096,3.0871,3.0668,3.051,3.0465,3.0556,3.0668,3.0847,3.078,3.0713,3.0826,3.1005,3.0982,3.0982,3.0555,3.0125,2.9396,2.8524,2.7746,2.6996,2.6315,2.5615,2.5191,2.4796,2.4684,2.47,5.2266,5.2086,5.2068,5.1849,5.1536,5.1513,5.1261,5.0824,4.9999,4.9279,4.8502,4.7446,4.6356,4.5516,4.512,4.4965,4.4916,4.4988,4.5249,4.5526,4.5323,4.5265,4.5694,4.5701,4.5678,4.5743,4.5801,4.583,4.5801,4.5859,4.5917,4.5917,4.5917,4.5917,4.5714,4.5249,4.5068,4.4967,4.4566,4.4068,4.357,4.3453,4.3313,4.2754,4.2616,4.2302,4.1871,4.1725,4.127,4.029,3.9416,3.8852,3.8538,3.8333,3.8173,3.7956,3.7938,3.7824,3.7701,3.7586,3.7605,3.7548,3.7472,3.7548,3.7262,3.7061,3.6954,3.684,3.6696,3.6516,3.633,3.6158,3.5851,3.5467,3.5298,3.5168,3.4818,3.4564,3.4392,3.4173,3.3885,3.3649,3.3477,3.3273,3.2921,3.2553,3.24,3.1984,3.1408,3.1074,3.0893,3.0781,3.069,3.0758,3.0871,3.116,3.1339,3.1316,3.1251,3.1318,3.1251,3.1162,3.1004,3.0578,2.9988,2.9236,2.8479,2.7675,2.6829,2.6054,2.552,2.5157,2.4945,2.4849,2.5043,5.2266,5.2068,5.1941,5.1739,5.148,5.135,5.1205,5.1054,5.057,4.9986,4.9387,4.852,4.7524,4.6792,4.6245,4.5955,4.5658,4.5627,4.5663,4.5859,4.5772,4.5692,4.5888,4.5917,4.5917,4.5917,4.5917,4.5917,4.5917,4.5917,4.5917,4.5917,4.5917,4.5917,4.5859,4.5714,4.5656,4.5569,4.5032,4.4669,4.4356,4.3456,4.29,4.2676,4.2137,4.179,4.1662,4.1418,4.0852,3.9982,3.9225,3.8797,3.8763,3.8708,3.8634,3.8538,3.8538,3.8538,3.8482,3.8464,3.8408,3.8258,3.8108,3.7967,3.7758,3.7452,3.7298,3.7143,3.6819,3.6464,3.6365,3.6018,3.5656,3.5249,3.5086,3.4859,3.4585,3.4439,3.4377,3.4314,3.3955,3.3713,3.3546,3.3298,3.2943,3.2553,3.2335,3.2138,3.1451,3.1184,3.1095,3.105,3.1005,3.1117,3.1272,3.1605,3.1803,3.1869,3.1825,3.1871,3.1606,3.1251,3.1005,3.0623,2.9806,2.9073,2.8265,2.7466,2.6633,2.5839,2.5507,2.5214,2.5092,2.501,2.5396,5.223,5.1959,5.1868,5.1614,5.1387,5.1223,5.1124,5.0934,5.0705,5.0227,4.9582,4.8913,4.8133,4.7309,4.68,4.6336,4.5962,4.5917,4.5888,4.5888,4.5888,4.5888,4.5917,4.5917,4.5917,4.5917,4.5917,4.5917,4.5917,4.5917,4.5917,4.5917,4.5917,4.5917,4.5917,4.5917,4.5917,4.583,4.5511,4.5198,4.4821,4.4102,4.3343,4.2925,4.2299,4.2082,4.1972,4.1506,4.089,4.0186,3.9715,3.9429,3.922,3.9194,3.9113,3.8948,3.8932,3.8939,3.9053,3.9071,3.8962,3.876,3.8575,3.8315,3.8014,3.7672,3.7414,3.7278,3.6724,3.6476,3.6278,3.5838,3.5413,3.5127,3.4839,3.459,3.4418,3.4397,3.435,3.423,3.3967,3.367,3.3592,3.3298,3.2921,3.2553,3.24,3.1981,3.1473,3.1361,3.1316,3.1318,3.1499,3.1677,3.2032,3.2406,3.2701,3.2744,3.2509,3.2506,3.1928,3.1414,3.0827,3.0375,2.96,2.8859,2.8085,2.7345,2.6564,2.5926,2.5591,2.5435,2.5371,2.5388,2.5774,5.2158,5.178,5.178,5.1559,5.1256,5.1218,5.101,5.0705,5.0628,5.0129,4.9412,4.8862,4.8112,4.7287,4.6829,4.6365,4.5917,4.5917,4.5917,4.5917,4.5917,4.5917,4.5917,4.5917,4.5917,4.5917,4.5917,4.5917,4.5917,4.5917,4.5917,4.5917,4.5917,4.5917,4.5917,4.5917,4.5917,4.5917,4.5859,4.5569,4.514,4.4726,4.4131,4.3436,4.2958,4.2744,4.2427,4.1955,4.139,4.0842,4.0695,4.035,4.0022,3.9978,3.9805,3.9519,3.9457,3.9469,3.9433,3.9451,3.9379,3.9162,3.898,3.8705,3.8285,3.79,3.7558,3.7385,3.6755,3.6429,3.6158,3.5575,3.5208,3.5044,3.4688,3.4439,3.4397,3.4397,3.433,3.4147,3.3896,3.3683,3.3487,3.323,3.2961,3.2593,3.2444,3.2116,3.1739,3.1606,3.1629,3.1673,3.1966,3.2325,3.2766,3.3273,3.355,3.3716,3.3289,3.298,3.2218,3.1584,3.0763,3.0102,2.9522,2.8834,2.8037,2.7264,2.6565,2.612,2.5827,2.5796,2.5827,2.5902,2.6178,5.2158,5.178,5.178,5.1592,5.1256,5.1218,5.1067,5.082,5.0666,5.0187,4.9533,4.8872,4.8112,4.7287,4.68,4.6343,4.594,4.5917,4.5917,4.5917,4.5917,4.5917,4.5917,4.5917,4.5917,4.5917,4.5917,4.5917,4.5917,4.5917,4.5917,4.5917,4.5917,4.5917,4.5917,4.5917,4.5917,4.5917,4.5917,4.5853,4.5576,4.508,4.4637,4.4175,4.3493,4.316,4.3127,4.2826,4.2683,4.2465,4.1839,4.1281,4.1159,4.1295,4.1143,4.0716,4.0559,4.0383,3.9978,3.9917,3.9785,3.9607,3.9343,3.9119,3.8705,3.8134,3.7805,3.7481,3.6853,3.6365,3.6054,3.546,3.5254,3.5157,3.482,3.4502,3.4424,3.4424,3.4377,3.4288,3.4121,3.3925,3.3653,3.3444,3.3111,3.2723,3.2463,3.2247,3.2096,3.1922,3.2154,3.2361,3.282,3.3278,3.3787,3.419,3.4357,3.4343,3.3953,3.3377,3.2604,3.1733,3.0905,3.0211,2.9571,2.8823,2.8101,2.7459,2.6841,2.6454,2.6095,2.6053,2.6114,2.6298,2.6398,5.2158,5.178,5.178,5.1559,5.1256,5.1218,5.1048,5.0781,5.0647,5.0168,4.9441,4.8831,4.8133,4.7309,4.6829,4.6365,4.6007,4.5917,4.5917,4.5917,4.5917,4.5917,4.5917,4.5917,4.5917,4.5917,4.5917,4.5917,4.5917,4.5917,4.5917,4.5917,4.5917,4.5917,4.5917,4.5917,4.5917,4.594,4.6001,4.6046,4.5913,4.5754,4.5317,4.504,4.4344,4.407,4.4282,4.3985,4.3948,4.3827,4.327,4.2534,4.2228,4.2331,4.2159,4.1766,4.1705,4.1466,4.1008,4.0786,4.0633,4.0117,3.975,3.9355,3.8925,3.8387,3.8121,3.789,3.7433,3.6856,3.6544,3.6163,3.5927,3.5822,3.5458,3.5229,3.5124,3.4737,3.4397,3.4356,3.4199,3.4037,3.3852,3.3666,3.3351,3.2986,3.2751,3.2558,3.2754,3.2692,3.3064,3.339,3.3878,3.436,3.4871,3.5146,3.5164,3.4921,3.4405,3.3705,3.2902,3.1995,3.1042,3.0401,2.9768,2.8988,2.8268,2.7676,2.7098,2.6692,2.6393,2.6332,2.6308,2.6436,2.6499,5.2176,5.178,5.178,5.1592,5.1256,5.1218,5.0959,5.0647,5.0608,5.0109,4.9351,4.8831,4.8218,4.7417,4.6866,4.6358,4.603,4.5917,4.5917,4.5917,4.5917,4.5917,4.5917,4.5917,4.5917,4.5917,4.5917,4.5917,4.5917,4.5917,4.5917,4.5917,4.5917,4.5917,4.5917,4.5917,4.5911,4.5978,4.6113,4.6269,4.6358,4.6454,4.6248,4.603,4.5484,4.5338,4.5417,4.5192,4.5021,4.5171,4.483,4.422,4.3628,4.3232,4.302,4.2603,4.2701,4.2466,4.2093,4.1935,4.1656,4.0865,4.0439,3.9938,3.9531,3.909,3.8764,3.8441,3.8078,3.7531,3.7495,3.7005,3.6791,3.6716,3.644,3.6275,3.6074,3.5314,3.4973,3.4721,3.4675,3.4469,3.4182,3.3915,3.3586,3.3319,3.3086,3.304,3.3308,3.3536,3.3933,3.4379,3.485,3.557,3.6144,3.6042,3.6074,3.5471,3.4892,3.4086,3.3291,3.2389,3.1527,3.0692,2.9978,2.9203,2.8441,2.7818,2.7305,2.6899,2.6608,2.6435,2.6482,2.6628,2.6701,5.2176,5.178,5.178,5.1573,5.1256,5.1218,5.0959,5.0647,5.0608,5.0089,4.932,4.9006,4.8385,4.7602,4.7062,4.6491,4.6001,4.5917,4.5917,4.5917,4.5917,4.5917,4.5917,4.5917,4.5917,4.5917,4.5917,4.5917,4.5917,4.5917,4.5917,4.5917,4.5917,4.5917,4.5917,4.5917,4.6001,4.6135,4.6269,4.6469,4.6719,4.6901,4.7089,4.7079,4.6644,4.655,4.6556,4.6275,4.6071,4.61,4.6183,4.5792,4.5152,4.4596,4.4127,4.371,4.3636,4.343,4.3029,4.2949,4.2816,4.2478,4.1947,4.1455,4.0973,4.0364,3.9731,3.9196,3.8647,3.8006,3.7522,3.7504,3.7246,3.7134,3.7063,3.6869,3.6746,3.6474,3.6092,3.5934,3.5516,3.5004,3.4746,3.4541,3.4345,3.4193,3.4074,3.4196,3.4536,3.4687,3.4875,3.5327,3.5804,3.6658,3.744,3.7131,3.6859,3.6026,3.534,3.4486,3.3714,3.2874,3.2034,3.1077,3.0195,2.9377,2.8674,2.7969,2.7521,2.7101,2.6816,2.6509,2.6765,2.6995,2.7096,5.2158,5.178,5.178,5.1559,5.1223,5.1218,5.0959,5.0647,5.0589,5.0109,4.9452,4.9057,4.8469,4.7666,4.7106,4.6535,4.6023,4.5917,4.5917,4.5917,4.5917,4.5917,4.5917,4.5917,4.5917,4.5917,4.5917,4.5917,4.5917,4.5917,4.5917,4.5917,4.5917,4.5917,4.5911,4.6001,4.6113,4.6247,4.6558,4.6851,4.7151,4.7409,4.7789,4.7897,4.7829,4.7729,4.766,4.7242,4.6986,4.6914,4.6716,4.6447,4.6119,4.578,4.5272,4.4638,4.4483,4.434,4.3951,4.3805,4.36,4.3009,4.259,4.2095,4.1581,4.0961,4.0441,3.9893,3.9704,3.9188,3.8906,3.8553,3.8467,3.838,3.8135,3.796,3.7899,3.7674,3.7461,3.7137,3.6375,3.5848,3.5547,3.5344,3.515,3.5053,3.5029,3.5343,3.5731,3.5808,3.5856,3.6183,3.655,3.6782,3.7356,3.7041,3.6846,3.6199,3.555,3.47,3.3935,3.3055,3.2164,3.1218,3.038,2.9521,2.8751,2.8041,2.7664,2.737,2.7142,2.7011,2.7195,2.7371,2.7463,5.2176,5.178,5.178,5.1559,5.1256,5.1218,5.0959,5.0666,5.0608,5.0148,4.9412,4.9108,4.8573,4.7773,4.7106,4.6491,4.594,4.5917,4.5917,4.5917,4.5917,4.5917,4.5917,4.5917,4.5917,4.5917,4.5917,4.5917,4.5917,4.5917,4.5917,4.5917,4.5917,4.5917,4.5911,4.6068,4.6202,4.6558,4.6975,4.7369,4.7766,4.8166,4.8574,4.8708,4.8687,4.8615,4.8522,4.8091,4.7814,4.766,4.7373,4.6973,4.685,4.6788,4.6332,4.5525,4.5335,4.5061,4.473,4.4572,4.4286,4.3709,4.3033,4.257,4.1986,4.1459,4.0737,4.0428,4.0217,4.013,3.977,3.9788,3.9689,3.9596,3.9332,3.9121,3.9018,3.8836,3.8595,3.8043,3.7192,3.6744,3.6512,3.6044,3.5861,3.6262,3.6239,3.653,3.6876,3.6826,3.6881,3.7077,3.7212,3.6978,3.6896,3.638,3.6178,3.5819,3.5208,3.4538,3.3834,3.3093,3.2241,3.1438,3.0452,2.9581,2.8818,2.8249,2.7942,2.7707,2.7468,2.742,2.75,2.7721,2.7885,5.2176,5.1813,5.178,5.1559,5.1223,5.1218,5.0972,5.0628,5.0608,5.0207,4.9553,4.9331,4.8862,4.7997,4.704,4.638,4.6052,4.5917,4.5917,4.5917,4.5917,4.5917,4.5917,4.5917,4.5917,4.5917,4.5917,4.5917,4.5917,4.5917,4.5917,4.5917,4.5917,4.5888,4.5956,4.618,4.6425,4.6814,4.7336,4.7955,4.8645,4.8995,4.9107,4.9138,4.9047,4.8944,4.8903,4.8594,4.8409,4.8368,4.8337,4.805,4.7619,4.7496,4.7216,4.6675,4.6152,4.5608,4.5223,4.5035,4.4936,4.4452,4.4115,4.3723,4.2822,4.1874,4.1154,4.0936,4.0645,4.0371,4.0213,4.0185,4.0179,4.0201,4.0114,4.0027,3.9962,3.953,3.9324,3.9038,3.8207,3.7864,3.7602,3.7047,3.6625,3.7078,3.7511,3.774,3.7817,3.7621,3.7332,3.7356,3.7066,3.6809,3.6536,3.6009,3.5649,3.5374,3.4995,3.4409,3.3685,3.3049,3.2536,3.1677,3.0642,2.9781,2.9121,2.8635,2.8296,2.8019,2.7799,2.7742,2.7752,2.7991,2.8289,5.223,5.1959,5.1849,5.1647,5.1387,5.1256,5.0972,5.0666,5.0589,5.0227,4.9673,4.9392,4.8728,4.7752,4.6887,4.6365,4.5985,4.5917,4.5917,4.5917,4.5917,4.5917,4.5917,4.5917,4.5917,4.5917,4.5917,4.5917,4.5917,4.5917,4.5917,4.5917,4.5917,4.5978,4.609,4.6425,4.6778,4.7228,4.7801,4.8574,4.9147,4.943,4.9519,4.9633,4.9432,4.9302,4.9128,4.8975,4.8738,4.8625,4.8583,4.8491,4.8235,4.8112,4.7906,4.7289,4.6649,4.6156,4.5802,4.5416,4.5105,4.4855,4.4477,4.3858,4.303,4.2187,4.1487,4.1255,4.0951,4.0737,4.0694,4.0788,4.0901,4.0923,4.0915,4.0659,4.0531,4.0164,3.9821,3.9518,3.9235,3.881,3.8434,3.8051,3.7652,3.7861,3.8096,3.8189,3.8141,3.7945,3.7609,3.7245,3.6809,3.6339,3.611,3.5697,3.534,3.5098,3.4983,3.4357,3.3584,3.2947,3.2528,3.1849,3.0863,3.0099,2.9435,2.888,2.8376,2.826,2.8136,2.818,2.8257,2.8449,2.8593,5.2266,5.2068,5.1886,5.1666,5.1406,5.1218,5.0934,5.0628,5.0531,5.0168,4.9602,4.9178,4.8385,4.7409,4.6829,4.6365,4.5917,4.5917,4.5917,4.5917,4.5917,4.5917,4.5917,4.5917,4.5917,4.5888,4.5917,4.5917,4.5917,4.5917,4.5917,4.5917,4.5978,4.6113,4.638,4.6756,4.7193,4.788,4.8512,4.9105,4.955,4.9658,4.9738,4.9781,4.9713,4.9513,4.9311,4.9118,4.8872,4.8625,4.8583,4.8553,4.8491,4.846,4.8327,4.7793,4.7259,4.668,4.6133,4.557,4.5085,4.4723,4.4285,4.3566,4.2778,4.21,4.1814,4.1675,4.1689,4.1603,4.1668,4.1924,4.2044,4.1986,4.178,4.1404,4.1064,4.0821,4.0448,4.0045,3.9766,3.9457,3.9131,3.8913,3.8769,3.8751,3.876,3.8692,3.847,3.825,3.7802,3.7341,3.6684,3.6282,3.6062,3.5681,3.5254,3.4947,3.4847,3.4528,3.3832,3.3198,3.2674,3.1912,3.0979,3.0263,2.9537,2.8998,2.8534,2.8531,2.8548,2.8699,2.8788,2.8916,2.8755,5.2299,5.2068,5.1886,5.1577,5.1237,5.0991,5.0801,5.0589,5.0414,5.001,4.9401,4.8728,4.7986,4.7331,4.6785,4.6321,4.5917,4.5917,4.5917,4.5917,4.5917,4.5917,4.5917,4.594,4.5911,4.5911,4.5978,4.5978,4.5911,4.5956,4.5911,4.594,4.609,4.6314,4.669,4.7149,4.7901,4.8573,4.9188,4.949,4.9761,4.986,4.986,4.984,4.9713,4.9481,4.93,4.9118,4.8893,4.8604,4.8583,4.8583,4.8583,4.8583,4.846,4.8266,4.7742,4.7156,4.6568,4.5619,4.4833,4.4431,4.402,4.3468,4.2825,4.2457,4.226,4.2324,4.2473,4.2831,4.3178,4.3567,4.3367,4.3227,4.296,4.2668,4.2228,4.1632,4.1227,4.0692,4.0358,4.0211,3.9932,3.9771,3.9204,3.9132,3.9159,3.9118,3.8709,3.8395,3.795,3.744,3.6699,3.6332,3.6269,3.5868,3.5358,3.5191,3.5131,3.4759,3.429,3.3645,3.2833,3.1844,3.0941,3.0296,2.968,2.9197,2.8895,2.8924,2.8975,2.8945,2.8797,2.8707,2.8553,5.2212,5.1904,5.1831,5.1614,5.135,5.1029,5.0781,5.057,5.0207,4.9653,4.8954,4.8208,4.7572,4.7062,4.658,4.618,4.594,4.5917,4.5917,4.5917,4.5917,4.5917,4.594,4.6023,4.609,4.6135,4.6225,4.6314,4.6336,4.618,4.6225,4.6269,4.6291,4.6469,4.6866,4.7666,4.8531,4.9077,4.9513,4.9713,4.984,4.988,4.988,4.986,4.9681,4.9481,4.9331,4.9118,4.8893,4.8676,4.8604,4.8583,4.8583,4.8583,4.8583,4.8522,4.7989,4.7527,4.7065,4.5999,4.5114,4.4636,4.4408,4.4004,4.3269,4.3178,4.3041,4.3084,4.335,4.3798,4.3841,4.4266,4.4449,4.4394,4.4213,4.394,4.3399,4.2773,4.2188,4.1705,4.1485,4.1284,4.0945,4.06,3.9965,3.9437,3.9492,3.9431,3.8981,3.8507,3.8056,3.7487,3.6751,3.6314,3.623,3.5844,3.5428,3.5385,3.531,3.4808,3.4295,3.3685,3.2845,3.1834,3.0918,3.0226,2.9678,2.9372,2.9153,2.9035,2.8975,2.8975,2.8797,2.8612,2.8468,5.2158,5.1798,5.178,5.161,5.1293,5.0953,5.0647,5.0375,4.9991,4.932,4.8459,4.7807,4.7279,4.68,4.6403,4.6113,4.5933,4.5917,4.5917,4.5911,4.5933,4.5978,4.609,4.6247,4.6469,4.6469,4.6646,4.6807,4.6646,4.6491,4.6535,4.658,4.6624,4.6822,4.7301,4.8208,4.9087,4.9461,4.9661,4.9753,4.9912,4.988,4.988,4.986,4.9681,4.9481,4.9311,4.9118,4.8893,4.8697,4.8583,4.8583,4.8583,4.8583,4.8583,4.843,4.8183,4.7835,4.7353,4.6545,4.5561,4.5092,4.4792,4.4402,4.4022,4.3791,4.3658,4.3658,4.4116,4.4625,4.472,4.5473,4.5725,4.569,4.5499,4.5203,4.4486,4.3807,4.3272,4.2761,4.2407,4.1862,4.1494,4.1096,4.0606,4.0059,3.9911,3.9674,3.9066,3.8604,3.8109,3.7493,3.6806,3.6445,3.6167,3.594,3.571,3.5364,3.5183,3.462,3.4065,3.3424,3.26,3.1478,3.0636,3.0069,2.9597,2.9231,2.9083,2.9005,2.8993,2.903,2.9082,2.8914,2.873,5.2143,5.1798,5.178,5.1462,5.0934,5.0705,5.0344,4.9971,4.9602,4.9015,4.8197,4.7516,4.6997,4.658,4.6269,4.6068,4.5933,4.594,4.594,4.5985,4.6135,4.6202,4.638,4.6624,4.6844,4.6953,4.7127,4.7171,4.6975,4.6931,4.6931,4.7062,4.7214,4.743,4.7709,4.8718,4.9372,4.9582,4.9781,4.9872,4.9912,4.988,4.988,4.9872,4.9641,4.9441,4.9311,4.9026,4.88,4.8625,4.8583,4.8583,4.8583,4.8583,4.8583,4.8553,4.8522,4.8214,4.764,4.6772,4.6093,4.5562,4.5175,4.4666,4.4022,4.3995,4.4324,4.4413,4.5123,4.5976,4.652,4.6948,4.6894,4.6873,4.6629,4.6278,4.5586,4.4969,4.448,4.3786,4.2891,4.2119,4.1805,4.1465,4.1102,4.0737,4.0452,3.9952,3.9282,3.871,3.8241,3.7552,3.6842,3.6429,3.6198,3.6198,3.5963,3.5561,3.5035,3.4479,3.3755,3.3048,3.2113,3.1024,3.0402,2.9892,2.9468,2.9023,2.9115,2.9177,2.9133,2.911,2.9198,2.9191,2.899,5.1714,5.178,5.178,5.1355,5.0724,5.0441,5.0156,4.9741,4.8934,4.8145,4.7581,4.6887,4.6513,4.6291,4.6135,4.5978,4.5933,4.609,4.6113,4.6135,4.6358,4.6535,4.6756,4.704,4.7287,4.7409,4.7602,4.7752,4.7645,4.7516,4.7516,4.7645,4.8055,4.8281,4.8614,4.921,4.9582,4.9773,4.9872,4.988,4.988,4.988,4.9912,4.9892,4.9562,4.9361,4.927,4.8944,4.8718,4.8604,4.8583,4.8583,4.8583,4.8583,4.8583,4.8583,4.8583,4.8377,4.7882,4.7222,4.6602,4.6028,4.5534,4.5164,4.4921,4.4969,4.5136,4.5338,4.5893,4.6616,4.7035,4.749,4.7607,4.7754,4.76,4.7262,4.6706,4.6231,4.569,4.484,4.3985,4.3083,4.254,4.2018,4.1612,4.113,4.0812,4.0123,3.9436,3.8919,3.8422,3.7637,3.6938,3.6445,3.615,3.5982,3.5758,3.5312,3.4869,3.4367,3.3586,3.282,3.1911,3.0995,3.0343,2.9715,2.9413,2.9225,2.9372,2.9409,2.9403,2.9349,2.9349,2.9313,2.9141,5.097,5.1077,5.1321,5.0941,5.0275,5.0184,4.9888,4.9219,4.8187,4.7443,4.6997,4.6447,4.618,4.609,4.6023,4.5978,4.6023,4.6247,4.6417,4.6469,4.6712,4.6967,4.7271,4.7581,4.7922,4.807,4.8281,4.8448,4.8343,4.8175,4.8349,4.8743,4.9098,4.9419,4.9624,4.9712,4.9661,4.9832,4.988,4.988,4.988,4.9912,4.9872,4.9701,4.9481,4.9259,4.9108,4.8883,4.8583,4.8583,4.8583,4.8583,4.8583,4.8583,4.8583,4.8583,4.8417,4.8166,4.7713,4.7263,4.6596,4.6085,4.596,4.5769,4.5595,4.5514,4.5627,4.5927,4.6498,4.6967,4.7396,4.788,4.8103,4.825,4.8061,4.7691,4.7219,4.6681,4.5989,4.5264,4.4509,4.3757,4.3067,4.2674,4.2121,4.1603,4.1082,4.0304,3.9474,3.8883,3.824,3.7415,3.6769,3.6282,3.5872,3.5648,3.5368,3.5063,3.4674,3.4255,3.3586,3.2828,3.1891,3.0995,3.0333,2.981,2.9538,2.9434,2.9721,2.9812,2.983,2.9725,2.9539,2.9382,2.9256,4.9963,4.9733,5.0371,5.0195,4.9635,4.9813,4.9327,4.825,4.7611,4.7048,4.6558,4.6314,4.6113,4.5978,4.6113,4.6225,4.6314,4.6535,4.6778,4.6967,4.7258,4.7572,4.7955,4.8313,4.8552,4.8862,4.9047,4.8944,4.8996,4.8852,4.9151,4.9812,5.0112,5.0308,5.0254,5.0104,4.993,4.9904,4.988,4.988,4.988,4.988,4.9812,4.9653,4.9432,4.923,4.9026,4.8759,4.8625,4.8583,4.8583,4.8583,4.8583,4.8563,4.8583,4.8438,4.8154,4.7752,4.7301,4.6873,4.6535,4.6116,4.6032,4.5805,4.5714,4.5805,4.5962,4.6269,4.6785,4.7244,4.7666,4.8007,4.8292,4.826,4.8112,4.7679,4.7236,4.6616,4.5927,4.5155,4.4415,4.3689,4.297,4.256,4.2141,4.147,4.0741,3.9829,3.9062,3.8439,3.7735,3.685,3.6305,3.6004,3.5648,3.5312,3.5119,3.4813,3.459,3.4199,3.3501,3.2856,3.2026,3.1189,3.0401,2.9922,2.9756,2.9874,3.0149,3.0221,3.021,3.0009,2.9771,2.9521,2.9401,4.9349,4.9599,4.9672,4.9339,4.8786,4.8467,4.8101,4.7743,4.7236,4.6756,4.6314,4.6068,4.6046,4.6113,4.6202,4.6425,4.669,4.6997,4.7314,4.7572,4.788,4.8281,4.8573,4.8821,4.9057,4.9169,4.927,4.9331,4.925,4.921,4.9583,5.0154,5.0641,5.0743,5.0762,5.0623,5.0294,4.9987,4.9912,4.988,4.988,4.988,4.9773,4.9593,4.9412,4.9189,4.8944,4.8738,4.8604,4.8583,4.8583,4.8583,4.8583,4.8469,4.8322,4.7901,4.7602,4.7309,4.6844,4.6513,4.6247,4.6113,4.6068,4.6113,4.6023,4.6075,4.6276,4.669,4.7114,4.7546,4.7837,4.8154,4.8281,4.8154,4.7943,4.7495,4.6997,4.6403,4.5685,4.4874,4.4158,4.3499,4.2828,4.2362,4.1919,4.1198,4.0364,3.944,3.8659,3.8027,3.7254,3.6386,3.5922,3.5648,3.5262,3.4924,3.4785,3.4596,3.4423,3.4171,3.3636,3.2962,3.217,3.1434,3.0707,3.0302,3.0088,3.0277,3.0607,3.0551,3.0488,3.0233,2.9999,2.974,2.9624,4.8508,4.8763,4.885,4.8612,4.8123,4.7511,4.7201,4.7159,4.6899,4.6513,4.6113,4.6046,4.609,4.6247,4.6513,4.6866,4.7184,4.7581,4.7943,4.8322,4.851,4.8821,4.9118,4.9261,4.9372,4.9472,4.9553,4.9593,4.9533,4.9647,4.9929,5.0985,5.114,5.116,5.1274,5.1272,5.0744,5.0259,4.988,4.988,4.988,4.986,4.9753,4.9533,4.9351,4.9169,4.8883,4.8676,4.8604,4.8583,4.8583,4.8542,4.8438,4.8218,4.7901,4.7495,4.7171,4.6866,4.6491,4.6225,4.609,4.6068,4.6158,4.6358,4.6543,4.669,4.6866,4.7154,4.7495,4.7825,4.8049,4.8239,4.8133,4.7997,4.7645,4.7236,4.669,4.6113,4.5361,4.4573,4.3871,4.3235,4.2679,4.2239,4.162,4.082,3.993,3.8973,3.8262,3.7679,3.6874,3.5977,3.5621,3.534,3.4952,3.4674,3.4618,3.4541,3.4479,3.4171,3.3713,3.3278,3.2694,3.187,3.1043,3.0766,3.0554,3.0804,3.1034,3.0942,3.0836,3.0651,3.0359,3.0033,2.9961,4.7621,4.7568,4.7918,4.7898,4.765,4.6905,4.6569,4.6557,4.6588,4.6351,4.609,4.6135,4.6247,4.6535,4.6953,4.7379,4.7743,4.8154,4.8531,4.9037,4.9006,4.923,4.9493,4.9602,4.9673,4.9832,4.984,4.9761,4.984,4.9895,5.0411,5.187,5.1723,5.1597,5.1534,5.1586,5.1006,5.0101,4.988,4.988,4.988,4.9872,4.9733,4.9361,4.9219,4.9097,4.8749,4.8583,4.8583,4.8583,4.8542,4.8489,4.8112,4.7837,4.7516,4.7149,4.6778,4.6513,4.6269,4.6068,4.6113,4.6158,4.6269,4.6624,4.6873,4.7036,4.7195,4.7508,4.7858,4.7974,4.8164,4.8049,4.7922,4.7645,4.7236,4.6822,4.6336,4.5685,4.4903,4.4153,4.3586,4.297,4.2484,4.1991,4.1373,4.0516,3.9595,3.8633,3.7942,3.7382,3.6646,3.5798,3.5505,3.5229,3.4785,3.4562,3.4534,3.4507,3.4544,3.4322,3.3948,3.3592,3.3252,3.2375,3.1531,3.1271,3.1133,3.134,3.1455,3.1396,3.1282,3.106,3.0778,3.0441,3.024,4.7537,4.7419,4.6982,4.6919,4.7154,4.6394,4.6045,4.6081,4.6304,4.6369,4.6388,4.6336,4.6558,4.704,4.7379,4.7828,4.8355,4.8676,4.9047,4.9311,4.9432,4.9513,4.9773,4.9781,4.9872,4.986,4.988,4.988,4.988,5.0006,5.0279,5.1153,5.1311,5.1342,5.1342,5.1342,5.0816,4.9943,4.988,4.988,4.988,4.9821,4.9701,4.9401,4.9239,4.9067,4.8749,4.8583,4.8583,4.8583,4.8438,4.8112,4.7559,4.7409,4.704,4.658,4.6403,4.6202,4.6113,4.609,4.618,4.6336,4.6535,4.6887,4.7143,4.7271,4.7489,4.7834,4.8049,4.8122,4.8079,4.7858,4.7602,4.7214,4.6822,4.638,4.5956,4.5178,4.4392,4.3823,4.3252,4.2749,4.2237,4.1645,4.1047,4.0262,3.9389,3.8554,3.7857,3.7284,3.6745,3.6007,3.5556,3.5202,3.478,3.4694,3.4787,3.484,3.4921,3.4618,3.4246,3.3734,3.3285,3.2708,3.2083,3.1815,3.1662,3.1773,3.1814,3.1745,3.163,3.1434,3.1321,3.1012,3.0685,4.7436,4.7284,4.6597,4.6432,4.648,4.5803,4.5565,4.5726,4.5625,4.6005,4.6731,4.6761,4.7019,4.7602,4.7892,4.8313,4.8852,4.9149,4.9412,4.9653,4.9733,4.9773,4.9872,4.988,4.988,4.988,4.988,4.988,4.988,4.9975,5.0247,5.0836,5.0963,5.0963,5.0963,5.0931,5.0615,4.9963,4.9912,4.988,4.988,4.984,4.9681,4.9401,4.925,4.9047,4.8749,4.8583,4.8521,4.8313,4.807,4.7773,4.7301,4.6975,4.6624,4.6336,4.6158,4.6068,4.6068,4.6158,4.6336,4.6535,4.669,4.6997,4.7336,4.7447,4.7546,4.7831,4.78,4.7851,4.7619,4.7396,4.6953,4.6535,4.6158,4.5753,4.5138,4.4369,4.3815,4.3346,4.2831,4.2387,4.1845,4.1221,4.0593,3.985,3.8995,3.8577,3.7875,3.7403,3.681,3.6367,3.6037,3.5631,3.53,3.5219,3.5257,3.5282,3.5321,3.5106,3.4778,3.3957,3.3304,3.2898,3.2555,3.2279,3.2213,3.2227,3.2104,3.1976,3.1868,3.1771,3.167,3.1632,3.1418,4.7237,4.7081,4.6527,4.6227,4.6012,4.5302,4.5208,4.5445,4.5038,4.5627,4.6882,4.7244,4.7622,4.8009,4.8438,4.8893,4.9239,4.9493,4.9733,4.9832,4.986,4.986,4.986,4.988,4.988,4.988,4.988,4.988,4.988,4.9943,5.0216,5.0773,5.0868,5.0836,5.0868,5.0773,5.0437,5.0058,4.988,4.988,4.988,4.988,4.9661,4.9493,4.9311,4.9087,4.8769,4.8542,4.8459,4.8175,4.7752,4.7322,4.6997,4.6624,4.638,4.6135,4.609,4.609,4.618,4.6314,4.6558,4.6748,4.6887,4.7054,4.737,4.746,4.7528,4.7529,4.7516,4.7445,4.7181,4.6955,4.6489,4.6121,4.5757,4.5378,4.4678,4.3986,4.3557,4.3153,4.2706,4.2282,4.1664,4.1003,4.0286,3.9504,3.8912,3.8479,3.8064,3.7771,3.7361,3.7018,3.6769,3.6353,3.5862,3.5764,3.5745,3.5684,3.5678,3.5604,3.53,3.4473,3.3775,3.332,3.2986,3.2707,3.2576,3.2574,3.2429,3.244,3.2559,3.2562,3.2209,3.2185,3.2187,4.6612,4.6927,4.6474,4.628,4.6156,4.5628,4.5341,4.5322,4.5576,4.6158,4.6889,4.7567,4.805,4.848,4.878,4.9149,4.9533,4.9753,4.9832,4.988,4.988,4.988,4.988,4.988,4.988,4.988,4.988,4.988,4.988,4.9912,4.9943,5.0184,5.0184,5.0153,5.0153,5.0121,5.0121,4.988,4.988,4.988,4.988,4.9872,4.9773,4.9593,4.9392,4.9169,4.8903,4.8552,4.8406,4.8133,4.7624,4.7019,4.6646,4.6351,4.6195,4.6106,4.609,4.6195,4.6329,4.6535,4.677,4.6909,4.6975,4.6997,4.7133,4.7013,4.703,4.7006,4.7,4.6985,4.6837,4.6764,4.6471,4.6257,4.5973,4.5625,4.5108,4.4609,4.4152,4.3697,4.3197,4.2681,4.2105,4.1423,4.0721,4.0018,3.9367,3.8923,3.8582,3.8227,3.7936,3.7736,3.7536,3.6957,3.6429,3.6343,3.6294,3.6202,3.6037,3.5967,3.5624,3.4965,3.4357,3.3688,3.335,3.308,3.2992,3.3122,3.3203,3.3286,3.35,3.3463,3.3067,3.2831,3.298]},{"header":{"parameterUnit":"m.s-1","parameterCategory":1,"la1":31.0,"la2":29.5877,"lo1":-88.7671,"lo2":-86.6584,"dy":0.0162,"dx":0.0185,"nx":115,"ny":88,"refTime":"2023-08-28T06:00:00:Z","depth":0,"parameterNumber":3,"parameterNumberName":"V-component_of_WINDS"},"data":[0.0,0.0,0.0,0.0,0.0,0.0,0.0,0.0,0.0,0.0,0.0,0.0,0.0,0.0,0.0,0.0,0.0,0.0,0.0,0.0,0.0,0.0,0.0,0.0,0.0,0.0,0.0,0.0,0.0,0.0,0.0,0.0,0.0,0.0,0.0,0.0,0.0,0.0,0.0,0.0,0.0,0.0,0.0,0.0,0.0,0.0,0.0,0.0,0.0,0.0,0.0,0.0,0.0,0.0,0.0,0.0,0.0,0.0,0.0,0.0,0.0,0.0,0.0,0.0,0.0,0.0,0.0,0.0,0.0,0.0,0.0,0.0,0.0,0.0,0.0,0.0,0.0,0.0,0.0,0.0,0.0,0.0,0.0,0.0,0.0,0.0,0.0,0.0,0.0,0.0,0.0,0.0,0.0,0.0,0.0,0.0,0.0,0.0,0.0,0.0,0.0,0.0,0.0,0.0,0.0,0.0,0.0,0.0,0.0,0.0,0.0,0.0,0.0,0.0,0.0,0.0,0.0,0.0,0.0,0.0,0.0,0.0,0.0,0.0,0.0,0.0,0.0,0.0,0.0,0.0,0.0,0.0,0.0,0.0,0.0,0.0,0.0,0.0,0.0,0.0,0.0,0.0,0.0,0.0,0.0,0.0,0.0,0.0,0.0,0.0,0.0,0.0,0.0,0.0,0.0,0.0,0.0,0.0,0.0,0.0,0.0,0.0,0.0,0.0,0.0,0.0,0.0,0.0,0.0,0.0,0.0,0.0,0.0,0.0,0.0,0.0,0.0,0.0,0.0,0.0,0.0,0.0,0.0,0.0,0.0,0.0,0.0,0.0,0.0,0.0,0.0,0.0,0.0,0.0,0.0,0.0,0.0,0.0,0.0,0.0,0.0,0.0,0.0,0.0,0.0,0.0,0.0,0.0,0.0,0.0,0.0,0.0,0.0,0.0,0.0,0.0,0.0,0.0,0.0,0.0,0.0,0.0,0.0,0.0,0.0,0.0,0.0,0.0,0.0,0.0,0.0,0.0,0.0,0.0,0.0,0.0,0.0,0.0,0.0,0.0,0.0,0.0,0.0,0.0,0.0,0.0,0.0,0.0,0.0,0.0,0.0,0.0,0.0,0.0,0.0,0.0,0.0,0.0,0.0,0.0,0.0,0.0,0.0,0.0,0.0,0.0,0.0,0.0,0.0,0.0,0.0,0.0,0.0,0.0,0.0,0.0,0.0,0.0,0.0,0.0,0.0,0.0,0.0,0.0,0.0,0.0,0.0,0.0,0.0,0.0,0.0,0.0,0.0,0.0,0.0,0.0,0.0,0.0,0.0,0.0,0.0,0.0,0.0,0.0,0.0,0.0,0.0,0.0,0.0,0.0,0.0,0.0,0.0,0.0,0.0,0.0,0.0,0.0,0.0,0.0,0.0,0.0,0.0,0.0,0.0,0.0,0.0,0.0,0.0,0.0,0.0,0.0,0.0,0.0,0.0,0.0,0.0,0.0,0.0,0.0,0.0,0.0,0.0,0.0,0.0,0.0,0.0,0.0,0.0,0.0,0.0,0.0,0.0,0.0,0.0,0.0,0.0,0.0,0.0,0.0,0.0,0.0,0.0,0.0,0.0,0.0,0.0,0.0,0.0,0.0,0.0,0.0,0.0,0.0,0.0,0.0,0.0,0.0,0.0,0.0,0.0,0.0,0.0,0.0,0.0,0.0,0.0,0.0,0.0,0.0,0.0,0.0,0.0,0.0,0.0,0.0,0.0,0.0,0.0,0.0,0.0,0.0,0.0,0.0,0.0,0.0,0.0,0.0,0.0,0.0,0.0,0.0,0.0,0.0,0.0,0.0,0.0,0.0,0.0,0.0,0.0,0.0,0.0,0.0,0.0,0.0,0.0,0.0,0.0,0.0,0.0,0.0,0.0,0.0,0.0,0.0,0.0,0.0,0.0,0.0,0.0,0.0,0.0,0.0,0.0,0.0,0.0,0.0,0.0,0.0,0.0,0.0,0.0,0.0,0.0,0.0,0.0,0.0,0.0,0.0,0.0,0.0,0.0,0.0,0.0,0.0,0.0,0.0,0.0,0.0,0.0,0.0,0.0,0.0,0.0,0.0,0.0,0.0,0.0,0.0,0.0,0.0,0.0,0.0,0.0,0.0,0.0,0.0,0.0,0.0,0.0,0.0,0.0,0.0,0.0,0.0,0.0,0.0,0.0,0.0,0.0,0.0,0.0,0.0,0.0,0.0,0.0,0.0,0.0,0.0,0.0,0.0,0.0,0.0,0.0,0.0,0.0,0.0,0.0,0.0,0.0,0.0,0.0,0.0,0.0,0.0,0.0,0.0,0.0,0.0,0.0,0.0,0.0,0.0,0.0,0.0,0.0,0.0,0.0,0.0,0.0,0.0,0.0,0.0,0.0,0.0,0.0,0.0,0.0,0.0,0.0,0.0,0.0,0.0,0.0,0.0,0.0,0.0,0.0,0.0,0.0,0.0,0.0,0.0,0.0,0.0,0.0,0.0,0.0,0.0,0.0,0.0,0.0,0.0,0.0,0.0,0.0,0.0,0.0,0.0,0.0,0.0,0.0,0.0,0.0,0.0,0.0,0.0,0.0,0.0,0.0,0.0,0.0,0.0,0.0,0.0,0.0,0.0,0.0,0.0,0.0,0.0,0.0,0.0,0.0,0.0,0.0,0.0,0.0,0.0,0.0,0.0,0.0,0.0,0.0,0.0,0.0,0.0,0.0,0.0,0.0,0.0,0.0,0.0,0.0,0.0,0.0,0.0,0.0,0.0,0.0,0.0,0.0,0.0,0.0,0.0,0.0,0.0,0.0,0.0,0.0,0.0,0.0,0.0,0.0,0.0,0.0,0.0,0.0,0.0,0.0,0.0,0.0,0.0,0.0,0.0,0.0,0.0,0.0,0.0,0.0,0.0,0.0,0.0,0.0,0.0,0.0,0.0,0.0,0.0,0.0,0.0,0.0,0.0,0.0,0.0,0.0,0.0,0.0,0.0,0.0,0.0,0.0,0.0,0.0,0.0,0.0,0.0,0.0,0.0,0.0,0.0,0.0,0.0,0.0,0.0,0.0,0.0,0.0,0.0,0.0,0.0,0.0,0.0,0.0,0.0,0.0,0.0,0.0,0.0,0.0,0.0,0.0,0.0,0.0,0.0,0.0,0.0,0.0,0.0,0.0,0.0,0.0,0.0,0.0,0.0,0.0,0.0,0.0,0.0,0.0,0.0,0.0,0.0,0.0,0.0,0.0,0.0,0.0,0.0,0.0,0.0,0.0,0.0,0.0,0.0,0.0,0.0,0.0,0.0,0.0,0.0,0.0,0.0,0.0,0.0,0.0,0.0,0.0,0.0,0.0,0.0,0.0,0.0,0.0,0.0,0.0,0.0,0.0,0.0,0.0,0.0,0.0,0.0,0.0,0.0,0.0,0.0,0.0,0.0,0.0,0.0,0.0,0.0,0.0,0.0,0.0,0.0,0.0,0.0,0.0,0.0,0.0,0.0,0.0,0.0,0.0,0.0,0.0,0.0,0.0,0.0,0.0,0.0,0.0,0.0,0.0,0.0,0.0,0.0,0.0,0.0,0.0,0.0,0.0,0.0,0.0,0.0,0.0,0.0,0.0,0.0,0.0,0.0,0.0,0.0,0.0,0.0,0.0,0.0,0.0,0.0,0.0,0.0,0.0,0.0,0.0,0.0,0.0,0.0,0.0,0.0,0.0,0.0,0.0,0.0,0.0,0.0,0.0,0.0,0.0,0.0,0.0,0.0,0.0,0.0,0.0,0.0,0.0,0.0,0.0,0.0,0.0,0.0,0.0,0.0,0.0,0.0,0.0,0.0,0.0,0.0,0.0,0.0,0.0,0.0,0.0,0.0,0.0,0.0,0.0,0.0,0.0,0.0,0.0,0.0,0.0,0.0,0.0,0.0,0.0,0.0,0.0,0.0,0.0,0.0,0.0,0.0,0.0,0.0,0.0,0.0,0.0,0.0,0.0,0.0,0.0,0.0,0.0,0.0,0.0,0.0,0.0,0.0,0.0,0.0,0.0,0.0,0.0,0.0,0.0,0.0,0.0,0.0,0.0,0.0,0.0,0.0,0.0,0.0,0.0,0.0,0.0,0.0,0.0,0.0,0.0,0.0,0.0,0.0,0.0,0.0,0.0,0.0,0.0,0.0,0.0,0.0,0.0,0.0,0.0,0.0,0.0,0.0,0.0,0.0,0.0,0.0,0.0,0.0,0.0,0.0,0.0,0.0,0.0,0.0,1.0904,0.0,0.0,0.0,0.0,0.0,0.0,0.0,0.0,0.0,0.0,0.0,0.0,0.0,0.0,0.0,0.0,0.0,0.0,0.0,0.0,0.0,0.0,0.0,0.0,0.0,0.0,0.0,0.0,0.0,0.0,0.0,0.0,0.0,0.0,0.0,0.0,0.0,0.0,0.0,0.0,0.0,0.0,0.0,0.0,0.0,0.0,0.0,0.0,0.0,0.0,0.0,0.0,0.0,0.0,0.0,0.0,0.0,0.0,0.0,0.0,0.0,0.0,0.0,0.0,0.0,0.0,0.0,0.0,0.0,0.0,0.0,0.0,0.0,0.0,0.0,0.0,0.0,0.0,0.0,0.0,0.0,0.0,0.0,0.0,0.0,0.0,0.0,0.0,0.0,0.0,0.0,0.0,0.0,0.0,0.0,0.0,0.0,0.0,0.0,0.0,0.0,0.0,0.0,0.0,0.0,0.0,0.0,0.0,0.0,0.0,0.7716,0.9219,0.961,0.9908,1.0114,0.0,0.0,0.0,0.0,0.0,0.0,0.0,0.0,0.0,0.0,0.0,0.0,0.0,0.0,0.0,0.0,0.0,0.0,0.0,0.0,0.0,0.0,0.0,0.0,0.0,0.0,0.0,0.0,0.0,0.0,0.0,0.0,0.0,0.0,0.0,0.0,0.0,0.0,0.0,0.0,0.0,0.0,0.0,0.0,0.0,0.0,0.0,0.0,0.0,0.0,0.0,0.0,0.0,0.0,0.0,0.0,0.0,0.0,0.0,0.0,0.0,0.0,0.0,0.0,0.0,0.0,0.0,0.0,0.0,0.0,0.0,0.0,0.0,0.0,0.0,0.0,0.0,0.0,0.0,0.0,0.0,0.0,0.0,0.0,0.0,0.0,0.0,0.0,0.0,0.0,0.0,0.0,0.0,0.0,0.0,0.0,0.0,0.0,0.0,0.0,0.0,0.0,0.0,0.0,0.0,0.0,0.0,0.0,0.0,0.0,0.0,0.0,0.9478,0.9326,0.9222,0.0,0.0,0.0,0.0,0.0,0.0,0.0,0.0,0.0,0.0,0.0,0.0,0.0,0.0,0.0,0.0,0.0,0.0,0.0,0.0,0.0,0.0,0.0,0.0,0.0,0.0,0.0,0.0,0.0,0.0,0.0,0.0,0.0,0.0,0.0,0.0,0.0,0.0,0.0,0.0,0.0,0.0,0.0,0.0,0.0,0.0,0.0,0.0,0.0,0.0,0.0,0.0,0.0,0.0,0.0,0.0,0.0,0.0,0.0,0.0,0.0,0.0,0.0,0.0,0.0,0.0,0.0,0.0,0.0,0.0,0.0,0.0,0.0,0.0,0.0,0.0,0.0,0.0,0.0,0.0,0.0,0.0,0.0,0.0,0.0,0.0,0.0,0.0,0.0,0.0,0.0,0.0,0.0,0.0,0.0,0.0,0.0,0.0,0.0,0.0,0.0,0.0,0.0,0.0,0.0,0.0,0.0,0.0,0.0,0.0,0.9316,1.0266,0.9889,0.0,0.7959,0.0,0.0,0.0,0.0,0.0,0.0,0.0,0.0,0.0,0.0,0.0,0.0,0.0,0.0,0.0,0.0,0.0,0.0,0.0,0.0,0.0,0.0,0.0,0.0,0.0,0.0,0.0,0.0,0.0,0.0,0.0,0.0,0.0,0.0,0.0,0.0,0.0,0.0,0.0,0.0,0.0,0.0,0.0,0.0,0.0,0.0,0.0,0.0,0.0,0.0,0.0,0.0,0.0,0.0,0.0,0.0,0.0,0.0,0.0,0.0,0.0,0.0,0.0,0.0,0.0,0.0,0.0,0.0,0.0,0.0,0.0,0.0,0.0,0.0,0.0,0.0,0.0,0.0,0.0,0.0,0.0,0.0,0.0,0.0,0.0,0.0,0.0,0.0,0.0,0.0,0.0,0.0,0.0,0.0,0.0,0.0,0.0,0.0,0.0,0.0,0.0,0.0,0.0,0.0,0.0,0.0,0.0,0.0,0.0,0.0,1.0497,1.1507,1.0508,0.9344,0.0,0.0,0.0,0.0,0.0,0.0,0.0,0.0,0.0,0.0,0.0,0.0,0.0,0.0,0.0,0.0,0.0,0.0,0.0,0.0,0.0,0.0,0.0,0.0,0.0,0.0,0.0,0.0,0.0,0.0,0.0,0.0,0.0,0.0,0.0,0.0,0.0,0.0,0.0,0.0,0.0,0.0,0.0,0.0,0.0,0.0,0.0,0.0,0.0,0.0,0.0,0.0,0.0,0.0,0.0,0.0,0.0,0.0,0.0,0.0,0.0,0.0,0.0,0.0,0.0,0.0,0.0,0.0,0.0,0.0,0.0,0.0,0.0,0.0,0.0,0.0,0.0,0.0,0.0,0.0,0.0,0.0,0.0,0.0,0.0,0.0,0.0,0.0,0.0,0.0,0.0,0.0,0.0,0.0,0.0,0.0,0.0,0.0,0.0,0.0,0.0,0.0,0.0,0.0,0.0,0.0,0.0,0.0,0.0,0.0,1.1229,1.1925,1.234,1.1044,0.9709,0.8477,0.0,0.0,0.0,0.0,0.0,0.0,0.0,0.0,0.0,0.0,0.0,0.0,0.0,0.0,0.0,0.0,0.0,0.0,0.0,0.0,0.0,0.0,0.0,0.0,0.0,0.0,0.0,0.0,0.0,0.0,0.0,0.0,0.0,0.0,0.0,0.0,0.0,0.0,0.0,0.0,0.0,0.0,0.0,0.0,0.0,0.0,0.0,0.0,0.0,0.0,0.0,0.0,0.0,0.0,0.0,0.0,0.0,0.0,0.0,0.0,0.0,0.0,0.0,0.0,0.0,0.0,0.0,0.0,0.0,0.0,0.0,0.0,0.0,0.0,0.0,0.0,0.0,0.0,0.0,0.0,0.0,0.0,0.0,0.0,0.0,0.0,0.0,0.0,0.0,0.0,0.0,0.0,0.0,0.0,0.0,0.0,0.0,0.0,0.0,0.0,0.0,0.0,0.0,0.0,0.0,0.0,0.0,0.0,1.233,1.3481,1.364,1.2836,1.1477,1.0169,0.0,0.0,0.0,0.0,0.0,0.0,0.0,0.0,0.0,0.0,0.0,0.0,0.0,0.0,0.0,0.0,0.0,0.0,0.0,0.0,0.0,0.0,0.0,0.0,0.0,0.0,0.0,0.0,0.0,0.0,0.0,0.0,0.0,0.0,0.0,0.0,0.0,0.0,0.0,0.0,0.0,0.0,0.0,0.0,0.0,0.0,0.0,0.0,0.0,0.0,0.0,0.0,0.0,0.0,0.0,0.0,0.0,0.0,0.0,0.0,0.0,0.0,0.0,0.0,0.0,0.0,0.0,0.0,0.0,0.0,0.0,0.0,0.0,0.0,0.0,0.0,0.0,0.0,0.0,0.0,0.0,0.0,0.0,0.0,0.0,0.0,0.0,0.0,0.0,0.0,0.0,0.0,0.0,0.0,0.0,0.0,0.0,0.0,0.0,0.0,0.0,0.0,0.0,0.0,0.0,0.0,0.0,0.0,0.0,1.4005,1.5405,1.5655,1.4604,1.3181,1.1724,0.0,0.0,0.0,0.0,0.0,0.0,0.0,0.0,0.0,0.0,0.0,0.0,0.0,0.0,0.0,0.0,0.0,0.0,0.0,0.0,0.0,0.0,0.0,0.0,0.0,0.0,0.0,0.0,0.0,0.0,0.0,0.0,0.0,0.0,0.0,0.0,0.0,0.0,0.0,0.0,0.0,0.0,0.0,0.0,0.0,0.0,0.0,0.0,0.0,0.0,0.0,0.0,0.0,0.0,0.0,0.0,0.0,0.0,0.0,0.0,0.0,0.0,0.0,0.0,0.0,0.0,0.0,0.0,0.0,0.0,0.0,0.0,0.0,0.0,0.0,0.0,0.0,0.0,0.0,0.0,0.0,0.0,0.0,0.0,0.0,0.0,0.0,0.0,0.0,0.0,0.0,0.0,0.0,0.0,0.0,0.0,0.0,0.0,0.0,0.0,0.0,0.0,0.0,0.0,0.0,0.0,0.0,0.0,0.0,1.6708,0.0,1.7665,1.6607,1.5022,1.3281,0.0,0.0,0.0,0.0,0.0,0.0,0.0,0.0,0.0,0.0,0.0,0.0,0.0,0.0,0.0,0.0,0.0,0.0,0.0,0.0,0.0,0.0,0.0,0.0,0.0,0.0,0.0,0.0,0.0,0.0,0.0,0.0,0.0,0.0,0.0,0.0,0.0,0.0,0.0,0.0,0.0,0.0,0.0,0.0,0.0,0.0,0.0,0.0,0.0,0.0,0.0,0.0,0.0,0.0,0.0,0.0,0.0,0.0,0.0,0.0,0.0,0.0,0.0,0.0,0.0,0.0,0.0,0.0,0.0,0.0,0.0,0.0,0.0,0.0,0.0,0.0,0.0,0.0,0.0,0.0,0.0,0.0,0.0,0.0,0.0,0.0,0.0,0.0,0.0,0.0,0.0,0.0,0.0,0.0,0.0,0.0,0.0,0.0,0.0,0.0,0.0,0.0,0.0,0.0,0.0,0.0,0.0,0.0,1.6959,2.0563,2.0393,1.9759,1.8721,1.6882,1.468,0.0,0.0,0.0,0.0,0.0,0.0,0.0,0.0,0.0,0.0,0.0,0.0,0.0,0.0,0.0,0.0,0.0,0.0,0.0,0.0,0.0,0.0,0.0,0.0,0.0,0.0,0.0,0.0,0.0,0.0,0.0,0.0,0.0,0.0,0.0,0.0,0.0,0.0,0.0,0.0,0.0,0.0,0.0,0.0,0.0,0.0,0.0,0.0,0.0,0.0,0.0,0.0,0.0,0.0,0.0,0.0,0.0,0.0,0.0,0.0,0.0,0.0,0.0,0.0,0.0,0.0,0.0,0.0,0.0,0.0,0.0,0.0,0.0,0.0,0.0,0.0,0.0,0.0,0.0,0.0,0.0,0.0,0.0,0.0,0.0,0.0,0.0,0.0,0.0,0.0,0.0,0.0,0.0,0.0,0.0,0.0,0.0,0.0,0.0,0.0,0.0,0.0,0.0,0.0,0.0,0.0,0.0,0.0,0.0,2.1942,2.2614,2.2208,2.0586,1.8485,1.6259,0.0,0.0,0.0,0.0,0.0,0.0,0.0,0.0,0.0,0.0,0.0,0.0,0.0,0.0,0.0,0.0,0.0,0.0,0.0,0.0,0.0,0.0,0.0,0.0,0.0,0.0,0.0,0.0,0.0,0.0,0.0,0.0,0.0,0.0,0.0,0.0,0.0,0.0,0.0,0.0,0.0,0.0,0.0,0.0,0.0,0.0,0.0,0.0,0.0,0.0,0.0,0.0,0.0,0.0,0.0,0.0,0.0,0.0,0.0,0.0,0.0,0.0,0.0,0.0,0.0,0.0,0.0,0.0,0.0,0.0,0.0,0.0,0.0,0.0,0.0,0.0,0.0,0.0,0.0,0.0,0.0,0.0,0.0,0.0,0.0,0.0,0.0,0.0,0.0,0.0,0.0,0.0,0.0,0.0,0.0,0.0,0.0,0.0,0.0,0.0,0.0,0.0,0.0,0.0,0.0,0.0,0.0,0.0,0.0,2.4776,2.5109,2.4595,2.3089,2.0692,1.8193,1.5553,0.0,0.0,0.0,0.0,0.0,0.0,0.0,0.0,0.0,0.0,0.0,0.0,0.0,0.0,0.0,0.0,0.0,0.0,0.0,0.0,0.0,0.0,0.0,0.0,0.0,0.0,0.0,0.0,0.0,0.0,0.0,0.0,0.0,0.0,0.0,0.0,0.0,0.0,0.0,0.0,0.0,0.0,0.0,0.0,0.0,0.0,0.0,0.0,0.0,0.0,0.0,0.0,0.0,0.0,0.0,0.0,0.0,0.0,0.0,0.0,0.0,0.0,0.0,0.0,0.0,0.0,0.0,0.0,0.0,0.0,0.0,0.0,0.0,0.0,0.0,0.0,0.0,0.0,0.0,0.0,0.0,0.0,0.0,0.0,0.0,0.0,0.0,0.0,0.0,0.0,0.0,0.0,0.0,0.0,0.0,0.0,0.0,0.0,0.0,0.0,0.0,0.0,0.0,0.0,0.0,0.0,0.0,0.0,2.8742,2.7998,2.7083,2.5933,2.3367,2.0355,0.0,0.0,0.0,0.0,0.0,0.0,0.0,0.0,0.0,0.0,0.0,0.0,0.0,0.0,0.0,0.0,0.0,0.0,0.0,0.0,0.0,0.0,0.0,0.0,0.0,0.0,0.0,0.0,0.0,0.0,0.0,0.0,0.0,0.0,0.0,0.0,0.0,0.0,0.0,0.0,0.0,0.0,0.0,0.0,0.0,0.0,0.0,0.0,0.0,0.0,0.0,0.0,0.0,0.0,0.0,0.0,0.0,0.0,0.0,0.0,0.0,0.0,0.0,0.0,0.0,0.0,0.0,0.0,0.0,0.0,0.0,0.0,0.0,0.0,0.0,0.0,0.0,0.0,0.0,0.0,0.0,0.0,0.0,0.0,0.0,0.0,0.0,0.0,0.0,0.0,0.0,0.0,0.0,0.0,0.0,0.0,0.0,0.0,0.0,0.0,0.0,0.0,0.0,0.0,0.0,0.0,0.0,0.0,0.0,3.1887,3.2382,3.0991,2.7721,2.4881,2.1727,0.0,0.0,0.0,0.0,0.0,0.0,0.0,0.0,0.0,0.0,0.0,0.0,0.0,0.0,0.0,0.0,0.0,0.0,0.0,0.0,0.0,0.0,0.0,0.0,0.0,0.0,0.0,0.0,0.0,0.0,0.0,0.0,0.0,0.0,0.0,0.0,0.0,0.0,0.0,0.0,0.0,0.0,0.0,0.0,0.0,0.0,0.0,0.0,0.0,0.0,0.0,0.0,0.0,0.0,0.0,0.0,0.0,0.0,0.0,0.0,0.0,0.0,0.0,0.0,0.0,0.0,0.0,0.0,0.0,0.0,0.0,0.0,0.0,0.0,0.0,0.0,0.0,0.0,0.0,0.0,0.0,0.0,0.0,0.0,0.0,0.0,0.0,0.0,0.0,0.0,0.0,0.0,0.0,0.0,0.0,0.0,0.0,0.0,0.0,0.0,0.0,0.0,0.0,0.0,0.0,0.0,0.0,0.0,3.1248,3.4357,3.5378,3.434,3.1188,2.758,2.3854,0.0,0.0,0.0,0.0,0.0,0.0,0.0,0.0,0.0,0.0,0.0,0.0,0.0,0.0,0.0,0.0,0.0,0.0,0.0,0.0,0.0,0.0,0.0,0.0,0.0,0.0,0.0,0.0,0.0,0.0,0.0,0.0,0.0,0.0,0.0,0.0,0.0,0.0,0.0,0.0,0.0,0.0,0.0,0.0,0.0,0.0,0.0,0.0,0.0,0.0,0.0,0.0,0.0,0.0,0.0,0.0,0.0,0.0,0.0,0.0,0.0,0.0,0.0,0.0,0.0,0.0,0.0,0.0,0.0,0.0,0.0,0.0,0.0,0.0,0.0,0.0,0.0,0.0,0.0,0.0,0.0,0.0,0.0,0.0,0.0,0.0,0.0,0.0,0.0,0.0,0.0,0.0,0.0,0.0,0.0,0.0,0.0,0.0,0.0,0.0,0.0,0.0,0.0,0.0,0.0,0.0,0.0,0.0,3.2372,3.6135,3.728,3.7008,3.5111,3.0746,2.622,0.0,0.0,0.0,0.0,0.0,0.0,0.0,0.0,0.0,0.0,0.0,0.0,0.0,0.0,0.0,0.0,0.0,0.0,0.0,0.0,0.0,0.0,0.0,0.0,0.0,0.0,0.0,0.0,0.0,0.0,0.0,0.0,0.0,0.0,0.0,0.0,0.0,0.0,0.0,0.0,0.0,0.0,0.0,0.0,0.0,0.0,0.0,0.0,0.0,0.0,0.0,0.0,0.0,0.0,0.0,0.0,0.0,0.0,0.0,0.0,0.0,0.0,0.0,0.0,0.0,0.0,0.0,0.0,0.0,0.0,0.0,0.0,0.0,0.0,0.0,0.0,0.0,0.0,0.0,0.0,0.0,0.0,0.0,0.0,0.0,0.0,0.0,0.0,0.0,0.0,0.0,0.0,0.0,0.0,0.0,0.0,0.0,0.0,0.0,0.0,0.0,0.0,0.0,0.0,0.0,0.0,0.0,0.0,3.3896,3.7064,3.8215,3.799,3.6286,3.2259,2.7515,0.0,0.0,0.0,0.0,0.0,0.0,0.0,0.0,0.0,0.0,0.0,0.0,0.0,0.0,0.0,0.0,0.0,0.0,0.0,0.0,0.0,0.0,0.0,0.0,0.0,0.0,0.0,0.0,0.0,0.0,0.0,0.0,0.0,0.0,0.0,0.0,0.0,0.0,0.0,0.0,0.0,0.0,0.0,0.0,0.0,0.0,0.0,0.0,1.2564,0.0,0.0,0.0,0.0,0.0,0.0,0.0,0.0,0.0,0.0,0.0,0.0,0.0,0.0,0.0,0.0,0.0,0.0,0.0,0.0,0.0,0.0,0.0,0.0,0.0,0.0,0.0,0.0,0.0,0.0,0.0,0.0,0.0,0.0,0.0,0.0,0.0,0.0,0.0,0.0,0.0,0.0,0.0,0.0,0.0,0.0,0.0,0.0,0.0,0.0,0.0,0.0,0.0,0.0,0.0,0.0,0.0,0.0,0.0,3.4062,3.7911,3.8939,3.8519,3.6678,3.3036,2.8439,0.0,0.0,0.0,0.0,0.0,0.0,0.0,0.0,0.0,0.0,0.0,0.0,0.0,0.0,0.0,0.0,0.0,0.0,0.0,0.0,0.0,0.0,0.0,0.0,0.0,0.0,0.0,0.0,0.0,0.0,0.0,0.0,0.0,0.0,0.0,0.0,0.0,0.0,0.0,0.0,0.0,0.0,0.0,0.0,0.0,0.0,0.0,0.0,0.0,0.0,0.0,0.0,0.0,0.0,0.0,0.0,0.0,0.0,0.0,0.0,0.0,0.0,0.0,0.0,0.0,0.0,0.0,0.0,0.0,0.0,0.0,0.0,0.0,0.0,0.0,0.0,0.0,0.0,0.0,0.0,0.0,0.0,0.0,0.0,0.0,0.0,0.0,0.0,0.0,0.0,0.0,0.0,0.0,0.0,0.0,0.0,0.0,0.0,0.0,0.0,0.0,0.0,0.0,0.0,0.0,0.0,0.0,3.0562,3.4045,3.8423,3.9239,3.8601,3.663,3.3199,2.8838,2.3489,0.0,0.0,0.0,0.0,0.0,0.0,0.0,0.0,0.0,0.0,0.0,0.0,0.0,0.0,0.0,0.0,0.0,0.0,0.0,0.0,0.0,0.0,0.0,0.0,0.0,0.0,0.0,0.0,0.0,0.0,0.0,0.0,0.0,0.0,0.0,0.0,0.0,0.0,1.5962,1.6752,0.0,0.0,0.0,0.0,0.0,0.0,0.0,0.0,1.3865,0.0,0.0,0.0,0.0,0.0,0.0,0.0,0.0,0.0,0.0,0.0,0.0,0.0,0.0,0.0,0.0,0.0,0.0,0.0,0.0,0.0,0.0,0.0,0.0,0.0,0.0,0.0,0.0,0.0,0.0,0.0,0.0,0.0,0.0,0.0,0.0,0.0,0.0,0.0,0.0,0.0,0.0,0.0,0.0,0.0,0.0,0.0,0.0,0.0,0.0,0.0,0.0,0.0,0.0,0.0,0.0,2.8717,3.2242,3.5377,3.7963,3.8592,3.7869,3.5739,3.2243,2.7869,2.2715,0.0,0.0,0.0,0.0,0.0,0.0,0.0,0.0,0.0,0.0,0.0,0.0,0.0,0.0,0.0,0.0,0.0,0.0,0.0,0.0,0.0,0.0,0.0,0.0,0.0,0.0,0.0,0.0,0.0,0.0,0.0,0.0,0.0,0.0,0.0,0.0,0.0,0.0,0.0,1.7206,1.7763,0.0,0.0,0.0,0.0,0.0,0.0,0.0,0.0,1.4019,0.0,0.0,0.0,0.0,0.0,0.0,0.0,0.0,0.0,0.0,0.0,0.0,0.0,0.0,0.0,0.0,0.0,0.0,0.0,0.0,0.0,0.0,0.0,0.0,0.0,0.0,0.0,0.0,0.0,0.0,0.0,0.0,0.0,0.0,0.0,0.0,0.0,0.0,0.0,0.0,0.0,0.0,0.0,0.0,0.0,0.0,0.0,0.0,0.0,0.0,0.0,0.0,0.0,0.0,0.0,2.8715,3.2209,3.4955,3.6823,3.674,3.5895,3.4254,3.0477,2.6168,0.0,0.0,0.0,0.0,0.0,0.0,0.0,0.0,0.0,0.0,0.0,0.0,0.0,0.0,0.0,0.0,0.0,0.0,0.0,0.0,0.0,0.0,0.0,0.0,0.0,0.0,0.0,0.0,0.0,0.0,0.0,0.0,0.0,0.0,0.0,0.0,0.0,0.0,0.0,0.0,1.8448,1.9195,1.9734,0.0,0.0,0.0,0.0,0.0,0.0,1.6441,1.519,0.0,0.0,0.0,0.0,0.0,0.0,0.0,0.0,0.0,0.0,0.0,0.0,0.0,0.0,0.0,0.0,0.0,0.0,0.0,0.0,0.0,0.0,0.0,0.0,0.0,0.0,0.0,0.0,0.0,0.0,0.0,0.0,0.0,0.0,0.0,0.0,0.0,0.0,0.0,0.0,0.0,0.0,0.0,0.0,0.0,0.0,0.0,0.0,0.0,0.0,0.0,0.0,0.0,0.0,0.0,2.8498,3.1673,3.4109,3.5634,3.505,3.4019,3.2654,2.8697,2.4459,0.0,0.0,0.0,0.0,0.0,0.0,0.0,0.0,0.0,0.0,0.0,0.0,0.0,0.0,0.0,0.0,0.0,0.0,0.0,0.0,0.0,0.0,0.0,0.0,0.0,0.0,0.0,0.0,0.0,0.0,0.0,0.0,0.0,0.0,0.0,0.0,0.0,0.0,0.0,0.0,0.0,2.0588,2.1255,2.1328,0.0,0.0,0.0,0.0,1.8974,1.782,0.0,0.0,0.0,0.0,0.0,0.0,0.0,0.0,0.0,0.0,0.0,0.0,0.0,0.0,0.0,0.0,0.0,0.0,0.0,0.0,0.0,0.0,0.0,0.0,0.0,0.0,0.0,0.0,0.0,0.0,0.0,0.0,0.0,0.0,0.0,0.0,0.0,0.0,0.0,0.0,0.0,0.0,0.0,0.0,0.0,0.0,0.0,0.0,0.0,0.0,0.0,0.0,0.0,0.0,0.0,0.0,2.8234,3.1411,3.3638,3.4779,3.4455,3.3309,3.127,2.7447,2.3412,0.0,0.0,0.0,0.0,0.0,0.0,0.0,0.0,0.0,0.0,0.0,0.0,0.0,0.0,0.0,0.0,0.0,0.0,0.0,0.0,0.0,0.0,0.0,0.0,0.0,0.0,0.0,0.0,0.0,0.0,0.0,0.0,0.0,0.0,0.0,0.0,0.0,0.0,0.0,0.0,0.0,2.1148,2.2053,2.2456,2.2717,0.0,0.0,2.225,2.0803,1.963,0.0,0.0,0.0,0.0,0.0,0.0,0.0,0.0,0.0,0.0,0.0,0.0,0.0,0.0,0.0,0.0,0.0,0.0,0.0,0.0,0.0,0.0,0.0,0.0,0.0,0.0,0.0,0.0,0.0,0.0,0.0,0.0,0.0,0.0,0.0,0.0,0.0,0.0,0.0,0.0,0.0,0.0,0.0,0.0,0.0,0.0,0.0,0.0,0.0,0.0,0.0,0.0,0.0,0.0,0.0,2.5145,2.7959,3.0649,3.2531,3.3465,3.3045,3.1727,2.9513,2.5782,2.1909,0.0,0.0,0.0,0.0,0.0,0.0,0.0,0.0,0.0,0.0,0.0,0.0,0.0,0.0,0.0,0.0,0.0,0.0,0.0,0.0,0.0,0.0,0.0,0.0,0.0,0.0,0.0,0.0,0.0,0.0,0.0,0.0,0.0,0.0,0.0,0.0,0.0,0.0,0.0,0.0,0.0,0.0,2.3175,2.3917,0.0,0.0,0.0,2.3342,2.197,0.0,0.0,0.0,0.0,0.0,0.0,0.0,0.0,0.0,0.0,0.0,0.0,0.0,0.0,0.0,0.0,0.0,0.0,0.0,0.0,0.0,0.0,0.0,0.0,0.0,0.0,0.0,0.0,0.0,0.0,0.0,0.0,0.0,0.0,0.0,0.0,0.0,0.0,0.0,0.0,0.0,0.0,0.0,0.0,0.0,0.0,0.0,0.0,0.0,0.0,0.0,0.0,0.0,0.0,0.0,0.0,0.0,2.7497,2.9815,3.1369,3.2077,3.1539,3.0159,2.7924,2.4301,0.0,0.0,0.0,0.0,0.0,0.0,0.0,0.0,0.0,0.0,0.0,0.0,0.0,0.0,0.0,0.0,0.0,0.0,0.0,0.0,0.0,0.0,0.0,0.0,0.0,0.0,0.0,1.625,0.0,0.0,0.0,0.0,0.0,0.0,0.0,0.0,0.0,0.0,0.0,0.0,0.0,0.0,2.3441,2.4354,2.5161,2.5534,0.0,0.0,2.433,2.3121,2.1909,2.0581,0.0,0.0,0.0,0.0,0.0,0.0,0.0,0.0,0.0,0.0,0.0,0.0,0.0,0.0,0.0,0.0,0.0,0.0,0.0,0.0,0.0,0.0,0.0,0.0,0.0,0.0,0.0,0.0,0.0,0.0,0.0,0.0,0.0,0.0,0.0,0.0,0.0,0.0,0.0,0.0,0.0,0.0,0.0,0.0,0.0,0.0,0.0,0.0,0.0,0.0,0.0,0.0,0.0,0.0,0.0,2.6765,2.8951,3.0315,3.0782,3.0247,2.8928,2.6835,2.3356,1.9835,0.0,0.0,0.0,0.0,0.0,0.0,0.0,0.0,0.0,0.0,0.0,0.0,0.0,0.0,0.0,0.0,0.0,0.0,0.0,0.0,0.0,0.0,0.0,0.0,0.0,0.0,0.0,0.0,0.0,0.0,0.0,0.0,0.0,0.0,0.0,0.0,0.0,0.0,0.0,0.0,0.0,2.3763,2.5536,2.5847,2.6145,0.0,0.0,2.5648,2.4605,2.3773,2.2616,2.0662,0.0,0.0,0.0,0.0,0.0,0.0,0.0,0.0,0.0,0.0,0.0,0.0,0.0,0.0,0.0,0.0,0.0,0.0,0.0,0.0,0.0,0.0,0.0,0.0,0.0,0.0,0.0,0.0,0.0,0.0,0.0,0.0,0.0,0.0,0.0,0.0,0.0,0.0,0.0,0.0,0.0,0.0,0.0,0.0,0.0,0.0,0.0,0.0,0.0,0.0,0.0,0.0,0.0,2.4246,2.6319,2.84,2.9667,3.0058,2.9319,2.796,2.5946,2.2608,1.9296,0.0,0.0,0.0,0.0,0.0,0.0,0.0,0.0,0.0,0.0,0.0,0.0,0.0,0.0,0.0,0.0,0.0,0.0,0.0,0.0,0.0,0.0,0.0,0.0,0.0,0.0,0.0,0.0,1.7774,1.7683,1.7313,0.0,0.0,0.0,0.0,0.0,0.0,0.0,0.0,0.0,0.0,2.4458,2.5706,2.6565,0.0,0.0,2.7146,2.6602,2.566,2.4383,2.3136,2.2029,2.1199,0.0,0.0,0.0,0.0,0.0,0.0,0.0,0.0,0.0,0.0,0.0,0.0,0.0,0.0,0.0,0.0,0.0,0.0,0.0,0.0,0.0,0.0,0.0,0.0,0.0,0.0,0.0,0.0,0.0,0.0,0.0,0.0,0.0,0.0,0.0,0.0,0.0,0.0,0.0,0.0,0.0,0.0,0.0,0.0,0.0,0.0,0.0,0.0,0.0,0.0,0.0,0.0,2.4009,2.5983,2.7911,2.9084,2.9492,2.8636,2.7256,2.5274,2.2211,1.9107,0.0,0.0,0.0,0.0,0.0,0.0,0.0,0.0,0.0,0.0,0.0,0.0,0.0,0.0,0.0,0.0,0.0,0.0,0.0,0.0,0.0,0.0,0.0,0.0,0.0,0.0,0.0,0.0,1.7892,1.7497,1.6962,0.0,0.0,0.0,0.0,0.0,0.0,0.0,0.0,0.0,0.0,2.5127,2.6247,2.715,2.7724,2.7829,2.7699,2.7305,2.6547,2.5262,2.4209,2.3733,0.0,0.0,0.0,0.0,0.0,0.0,0.0,0.0,0.0,0.0,0.0,0.0,0.0,0.0,0.0,0.0,0.0,0.0,0.0,0.0,0.0,0.0,0.0,0.0,0.0,0.0,0.0,0.0,0.0,0.0,1.5378,0.0,0.0,0.0,0.0,0.0,0.0,0.0,0.0,0.0,0.0,0.0,0.0,0.0,0.0,0.0,0.0,0.0,0.0,0.0,0.0,0.0,0.0,2.3866,2.5809,2.7545,2.8638,2.8999,2.8181,2.6867,2.502,2.2205,1.9305,1.632,0.0,0.0,0.0,0.0,0.0,0.0,0.0,0.0,0.0,0.0,0.0,0.0,0.0,0.0,0.0,0.0,0.0,0.0,0.0,0.0,0.0,0.0,0.0,0.0,0.0,0.0,1.9121,1.8319,1.7434,0.0,0.0,0.0,0.0,0.0,0.0,0.0,0.0,0.0,0.0,2.4688,2.582,2.7256,2.749,2.7779,2.8473,2.8151,2.7678,2.723,2.6689,2.6223,0.0,0.0,0.0,0.0,0.0,0.0,0.0,0.0,0.0,0.0,0.0,0.0,0.0,0.0,0.0,0.0,0.0,0.0,0.0,0.0,0.0,0.0,0.0,0.0,0.0,0.0,0.0,1.9156,1.7625,0.0,0.0,0.0,0.0,0.0,0.0,0.0,0.0,0.0,0.0,0.0,1.7184,1.8493,0.0,0.0,0.0,0.0,0.0,0.0,0.0,0.0,0.0,0.0,0.0,0.0,2.4221,2.5774,2.7373,2.8372,2.8699,2.7941,2.6628,2.485,2.2144,1.8735,1.4579,0.0,0.0,0.0,0.0,0.0,0.0,0.0,0.0,0.0,0.0,0.0,0.0,0.0,0.0,0.0,0.0,0.0,0.0,0.0,0.0,0.0,0.0,0.0,0.0,0.0,1.8636,0.0,0.0,0.0,0.0,0.0,0.0,0.0,0.0,0.0,0.0,0.0,2.3034,2.3973,2.503,2.6239,2.7689,2.8024,2.8371,0.0,0.0,0.0,0.0,0.0,0.0,0.0,0.0,0.0,0.0,0.0,0.0,0.0,0.0,2.725,2.5762,2.4836,2.4566,2.5599,0.0,0.0,0.0,0.0,0.0,0.0,0.0,0.0,0.0,0.0,0.0,0.0,0.0,0.0,0.0,0.0,1.6475,0.0,0.0,0.0,0.0,0.0,0.0,0.0,0.0,1.91,1.9675,1.9947,2.1395,2.2172,0.0,2.3369,2.3095,0.0,0.0,0.0,0.0,0.0,0.0,0.0,0.0,2.46,2.611,2.7526,2.8374,2.857,2.781,2.6627,2.4908,2.1611,1.7971,1.4042,1.195,1.0254,0.0,0.0,0.0,0.0,0.0,0.0,0.0,0.0,0.0,0.0,0.0,0.0,0.0,0.0,0.0,0.0,0.0,0.0,0.0,0.0,0.0,0.0,0.0,1.9173,0.0,0.0,0.0,0.0,0.0,0.0,0.0,0.0,0.0,2.3146,2.3656,2.4197,2.4972,2.5825,2.685,2.8113,0.0,0.0,0.0,0.0,0.0,0.0,0.0,2.8665,2.8525,2.8627,2.8815,2.9072,2.9901,3.0773,3.1603,0.0,0.0,2.8637,2.722,2.6737,2.7879,2.8472,2.8793,2.8762,2.8904,2.9322,0.0,0.0,0.0,0.0,0.0,0.0,0.0,0.0,2.1289,1.954,0.0,1.6971,0.0,0.0,0.0,0.0,0.0,2.0093,0.0,0.0,2.1667,2.2518,2.3063,2.4172,2.4909,2.5367,2.6238,2.6536,2.6217,2.3508,0.0,0.0,0.0,0.0,0.0,0.0,2.5048,2.6661,2.7929,2.8596,2.857,2.7832,2.6669,2.5088,2.0654,1.7134,1.4797,1.3019,1.1351,0.979,0.9344,0.0,0.0,0.0,0.0,0.0,0.0,0.0,0.0,0.0,0.0,0.0,0.0,0.0,0.0,0.0,0.0,0.0,0.0,0.0,0.0,1.9787,0.0,0.0,0.0,0.0,0.0,0.0,0.0,0.0,0.0,0.0,2.5011,2.519,2.5605,2.662,0.0,0.0,0.0,0.0,2.9314,3.0024,3.0492,3.061,3.0187,3.0295,3.0586,3.0931,0.0,0.0,3.2417,3.2846,3.3143,3.3434,3.3649,3.3079,3.1306,2.9185,2.838,3.052,3.1616,3.2086,3.1952,3.1915,3.215,2.9427,0.0,0.0,0.0,0.0,2.7786,2.6751,2.521,2.3257,2.1372,1.9615,1.8391,0.0,0.0,0.0,0.0,0.0,0.0,2.2601,2.294,2.4244,2.52,2.5873,2.7497,2.828,2.831,2.9257,2.9467,2.8936,2.7334,2.5686,2.4051,0.0,0.0,0.0,0.0,2.5844,2.6717,2.7953,2.8596,2.8593,2.781,2.5827,2.2528,1.9695,1.7094,1.4763,1.3302,1.1824,1.0353,0.9959,0.0,0.0,0.0,0.0,0.0,0.0,0.0,0.0,0.0,0.0,0.0,0.0,0.0,0.0,0.0,0.0,0.0,0.0,0.0,1.9999,2.0216,1.9977,0.0,0.0,0.0,0.0,0.0,0.0,0.0,0.0,0.0,2.8041,2.7094,2.6512,0.0,0.0,2.8913,2.9961,3.0281,3.0575,3.0896,3.1505,0.0,0.0,3.1346,3.1723,3.1411,3.1777,3.2583,3.4048,3.4569,3.5238,3.6499,3.6872,3.6675,3.5881,3.3378,3.1943,3.3017,3.462,3.5441,3.446,3.4247,3.4542,3.2382,3.1056,3.0467,3.015,2.9919,2.9487,2.8445,2.6804,2.4884,2.3063,2.1386,2.0217,1.965,1.9575,2.0511,0.0,0.0,0.0,2.4854,2.5458,2.6869,2.7772,2.8321,2.9743,3.0473,3.057,3.1156,3.1255,3.0879,2.9891,2.8626,2.7067,0.0,0.0,2.531,2.6049,2.6699,2.7354,2.8462,2.889,2.8593,2.7348,2.4963,2.1419,1.9332,1.7213,1.498,1.36,1.224,1.0923,1.0715,1.0504,0.0,0.0,0.0,0.0,0.0,0.0,0.0,0.0,0.0,0.0,0.0,1.3793,1.454,0.0,0.0,0.0,1.826,1.9604,2.0821,2.0979,0.0,0.0,0.0,0.0,0.0,0.0,0.0,2.2918,2.4501,2.6472,2.8939,2.8368,2.7996,2.8789,2.9201,2.9763,3.0699,0.0,3.127,3.1674,3.2305,3.2526,3.1972,3.2494,3.2897,3.2696,3.3156,3.3878,3.4955,3.5476,3.6209,3.751,3.8026,3.8187,3.8397,3.7022,3.5872,3.6114,3.7178,3.7687,3.6493,3.634,3.6559,3.4527,3.4878,3.3509,3.2425,3.16,3.088,2.9846,2.8521,2.6447,2.4727,2.3324,2.2224,2.1502,2.1149,2.2458,0.0,2.5114,2.6233,2.7141,2.7934,2.9308,3.0052,3.0311,3.1141,3.1807,3.227,3.229,3.2316,3.2321,3.1487,3.0983,3.0728,2.7809,2.6696,2.7422,2.7351,2.7703,2.8369,2.9251,2.93,2.8485,2.653,2.4133,2.1377,1.9404,1.7374,1.5308,1.3877,1.2613,1.1541,1.1461,1.1322,1.1059,0.0,0.0,0.0,0.0,0.0,0.0,0.0,0.0,0.0,0.0,0.0,0.0,0.0,0.0,0.0,1.9496,0.0,2.1328,2.1873,0.0,0.0,0.0,2.2177,2.2393,2.3094,2.3926,2.4881,0.0,0.0,2.8552,2.9285,2.9849,3.0327,3.0292,3.0437,3.1038,3.1359,3.1681,3.2379,3.298,3.3343,3.3255,3.3624,3.3985,3.425,3.4868,3.5231,3.5547,3.5933,3.6498,3.7505,3.7776,3.8278,3.9235,3.9754,4.0177,3.9396,3.9391,3.9228,3.8447,3.8335,3.8468,3.644,3.5962,3.5771,3.4908,3.3599,3.3325,3.2315,3.0758,2.9214,2.7306,2.5124,2.415,2.3639,2.3605,2.4676,2.5649,2.6541,2.7518,2.8459,2.942,3.0467,3.1269,3.1877,3.2582,3.3212,3.3678,3.3896,3.413,3.4336,3.3305,3.2781,3.2638,3.0859,2.9553,2.8789,2.8579,2.87,2.9123,2.9501,2.9044,2.7678,2.562,2.3495,2.1358,1.9258,1.7303,1.5486,1.4126,1.2967,1.2062,1.1912,1.1926,1.212,1.2254,0.0,0.0,0.0,0.0,0.0,0.0,0.0,0.0,0.0,1.542,1.6353,0.0,1.7923,0.0,2.0716,2.19,2.2124,2.22,0.0,0.0,2.2789,2.324,2.4218,2.513,2.5902,2.649,2.8018,2.9236,2.9739,3.0647,3.1671,3.2653,3.1924,3.1516,3.2187,3.2616,3.2884,3.3104,3.3494,3.3796,3.3951,3.4259,3.458,3.4752,3.5146,3.562,3.6085,3.6716,3.7428,3.8253,3.8793,3.9424,4.0209,4.0798,4.1005,4.099,4.1279,4.132,4.0613,4.0647,4.0922,3.7023,3.6674,3.6966,3.6445,3.535,3.4399,3.312,3.1553,3.0208,2.8442,2.6409,2.5066,2.4617,2.4961,2.549,2.6385,2.7542,2.8475,2.9497,3.0536,3.1392,3.2062,3.255,3.3108,3.369,3.4201,3.4357,3.4637,3.5035,3.4476,3.402,3.3741,3.2885,3.2006,3.0996,3.0272,3.0007,3.0144,2.9782,2.8908,2.7525,2.5766,2.37,2.1377,1.9288,1.7395,1.5694,1.4213,1.3108,1.249,1.2303,1.2362,1.2706,1.2932,1.345,0.0,0.0,0.0,0.0,0.0,0.0,0.0,0.0,0.0,0.0,0.0,1.912,2.0757,2.2279,2.3319,2.3624,2.3889,2.4137,2.4437,2.4744,2.5229,2.6042,2.7055,2.783,2.8145,2.9387,3.046,3.1143,3.1805,3.2729,3.403,3.3641,3.3354,3.374,3.4032,3.423,3.4516,3.457,3.4548,3.4593,3.4848,3.5113,3.5248,3.5508,3.5868,3.6265,3.6712,3.7325,3.8213,3.878,3.9374,4.0329,4.1042,4.1503,4.1844,4.2397,4.2586,4.2094,4.2173,4.2412,3.6911,3.7116,3.7442,3.727,3.6677,3.4837,3.3266,3.1845,3.0515,2.8961,2.7241,2.549,2.5079,2.5693,2.5778,2.6699,2.8271,2.9216,3.0269,3.1405,3.2113,3.2599,3.2866,3.3276,3.3799,3.4338,3.4363,3.4664,3.5269,3.5238,3.4908,3.4346,3.4264,3.3928,3.3338,3.2154,3.1367,3.11,3.0085,2.8989,2.7811,2.6195,2.4111,2.1514,1.9374,1.7542,1.5963,1.432,1.331,1.3023,1.2822,1.2901,1.3267,1.3563,1.4127,0.0,1.5389,0.0,0.0,0.0,0.0,0.0,0.0,0.0,0.0,1.9349,2.0571,2.2771,2.3989,2.4851,2.5361,2.6016,2.6481,2.664,2.7141,2.7568,2.7846,2.887,2.9673,2.9872,3.062,3.1563,3.278,3.3043,3.3622,3.4855,3.5171,3.5301,3.5553,3.543,3.5461,3.6075,3.581,3.5409,3.5281,3.5424,3.5573,3.5704,3.5926,3.61,3.6226,3.6476,3.6909,3.7732,3.8212,3.8767,3.9809,4.0791,4.1644,4.2074,4.291,4.3464,4.3115,4.3052,4.3202,3.687,3.7189,3.7242,3.7105,3.6672,3.5473,3.4308,3.3149,3.1831,2.9738,2.722,2.6282,2.5983,2.623,2.7057,2.796,2.8938,2.9942,3.0932,3.1867,3.2419,3.299,3.3655,3.3768,3.4318,3.52,3.5251,3.555,3.6148,3.5904,3.5556,3.5152,3.4895,3.4541,3.4163,0.0,0.0,0.0,3.072,2.9737,2.8232,2.5504,2.3442,2.2107,1.9567,0.0,1.6541,1.5022,1.4162,1.4082,1.3931,0.0,0.0,0.0,0.0,0.0,0.0,0.0,0.0,0.0,0.0,0.0,2.0706,2.0428,2.0293,2.1669,2.3193,2.4633,2.5417,2.6025,2.6607,2.6881,2.7445,2.8369,2.8715,2.91,2.9541,3.0517,3.1369,3.196,3.2759,3.374,3.4835,3.4918,3.5068,3.5883,3.6156,3.6579,3.743,3.667,3.6165,3.6222,3.6234,3.6028,3.5679,3.5782,3.591,3.5973,3.621,3.6398,3.6461,3.6769,3.7088,3.7503,3.7802,3.8203,3.8839,4.0076,4.1289,4.1759,4.3008,4.3942,4.3742,4.3676,4.3732,3.6468,0.0,3.6903,3.6806,0.0,3.5686,3.4611,3.329,3.1848,2.9756,2.7267,2.6586,2.648,2.6811,2.7561,2.8421,2.9347,3.0306,3.1205,3.1999,3.2481,3.3106,3.3897,3.3897,3.4452,3.5483,3.5483,3.5854,3.6519,3.65,3.6322,3.5984,3.5945,3.5705,3.5239,3.4546,3.3405,3.1788,3.1045,2.9987,2.8589,2.6377,2.4395,2.2769,0.0,0.0,0.0,0.0,0.0,0.0,0.0,0.0,0.0,0.0,0.0,1.8077,1.8754,1.9441,2.0241,2.0927,2.1656,2.2437,2.2861,2.2874,2.2307,2.3887,2.5359,2.6346,2.7172,2.7904,2.8459,2.8688,2.903,2.9622,3.0047,3.0556,3.1241,3.1999,3.2781,3.3487,3.4057,3.478,3.5686,3.5827,3.5939,3.6344,3.6645,3.6895,3.72,3.7255,3.7161,3.6881,3.6747,3.6537,3.6189,3.6163,3.6335,3.6491,3.6647,3.6739,3.6754,3.6998,3.7238,3.7387,3.7685,3.8144,3.9036,4.0177,4.1255,4.2185,4.3284,4.4126,4.4193,4.4217,4.4241,3.5817,3.6227,3.6417,3.6483,3.6347,3.5699,3.4445,3.2719,0.0,0.0,0.0,2.6929,2.6986,2.7405,2.7971,2.8724,2.9668,3.06,3.1427,3.2133,3.2646,3.3299,3.4022,3.4148,3.4703,3.5631,3.5656,3.5999,3.6709,3.6968,3.6916,3.6654,3.6873,3.6609,3.5907,3.506,3.3938,3.2565,3.135,3.0192,2.906,2.7585,2.5765,2.3503,2.1676,2.0167,1.8993,1.7323,1.6385,1.6298,1.601,1.6019,1.6414,1.7177,1.8115,1.9152,1.9998,2.0769,2.1531,2.266,2.362,2.4254,2.5103,2.5295,2.4589,2.5868,2.7039,2.7859,2.8849,2.9656,3.0213,3.045,3.0608,3.0717,3.1169,3.1792,3.2545,3.3157,3.3808,3.4648,3.4975,3.5339,3.5945,3.6231,3.642,3.6485,3.6743,3.6979,3.6738,3.7382,3.7752,3.7345,3.7147,3.6957,3.6645,3.6585,3.6677,3.6892,3.6984,3.703,3.706,3.718,3.7313,3.7491,3.7836,3.8581,3.9548,4.0561,4.1572,4.276,4.3609,4.4198,4.4483,4.4567,4.4595,3.5152,3.585,3.5927,3.6072,3.6248,3.5462,3.3732,3.1312,2.9949,2.8787,2.7853,2.7982,2.7885,2.7708,2.8901,2.9695,3.0171,3.107,3.1889,0.0,3.3371,3.4028,3.4603,3.5079,3.5606,3.623,3.6281,3.6424,3.6686,3.6968,3.6942,3.6703,3.685,3.6411,3.5223,3.4633,3.3922,3.3089,3.1877,3.0859,2.9979,2.8259,2.6381,2.4468,2.2881,2.1245,1.9644,1.8819,1.8227,1.7917,1.8135,1.844,1.8797,1.954,2.0285,2.0922,2.1659,2.2313,2.2905,2.3992,2.5339,2.6913,2.8056,2.8084,2.6813,2.7122,2.7938,2.9196,2.9737,3.0258,3.0796,3.1063,3.1341,3.182,3.2109,3.2508,3.3184,3.3624,3.4325,3.5495,3.5806,3.6116,3.6585,3.6551,3.6448,3.6578,3.6447,3.6558,3.7013,3.7382,3.7443,3.7295,3.7345,3.7199,3.6848,3.6831,3.6938,3.6984,3.7104,3.718,3.718,3.7404,3.7658,3.7819,3.8544,3.9296,3.9901,4.1099,4.2165,4.296,4.3662,4.4212,4.4544,4.4581,4.4671,3.4596,3.5102,3.529,3.5538,3.5713,3.464,3.3161,3.1425,3.0218,2.9093,2.8174,2.8388,2.8473,2.8453,2.9602,3.0309,3.0623,3.1426,3.2279,3.3148,3.3661,3.4327,3.513,3.5382,3.5807,3.638,3.6405,3.657,3.6898,3.7038,3.7165,3.7277,3.73,3.6802,3.5927,3.5301,3.4622,3.3839,3.263,3.1551,3.0631,2.9132,2.7627,2.608,2.444,2.2943,2.164,2.0661,1.9992,1.9733,1.9889,2.0169,2.0561,2.1303,2.2106,2.2933,2.3717,2.443,2.5117,2.6568,2.7725,2.8461,2.8994,2.932,2.9231,2.9344,2.9704,3.0308,3.0886,3.1343,3.1613,3.1739,3.1902,3.2173,3.2336,3.2855,3.3854,3.4261,3.4966,3.617,3.6518,3.6615,3.6673,3.659,3.6331,3.6053,3.5781,3.5912,3.657,3.6655,3.6863,3.7238,3.72,3.708,3.6969,3.7059,3.7134,3.7256,3.7331,3.7359,3.7374,3.7584,3.792,3.84,3.8988,3.9765,4.0747,4.1647,4.2485,4.3432,4.3829,4.4227,4.4516,4.4692,4.4831,3.403,3.4451,3.4674,3.4924,3.4991,3.379,3.2712,3.1659,3.0708,2.9722,2.8907,2.8979,2.9188,2.9444,3.038,3.0991,3.1285,3.1995,3.2813,3.3563,3.4059,3.4703,3.5458,3.5608,3.5956,3.638,3.6452,3.6687,3.7062,3.7155,3.7436,3.7808,3.7575,3.7132,3.664,3.5929,3.5187,3.4337,3.3337,3.2317,3.1171,3.0081,2.8847,2.7463,2.602,2.4712,2.363,2.2572,2.1863,2.1543,2.159,2.1724,2.1872,2.2774,2.3807,2.4831,2.5588,2.6436,2.7465,2.8824,2.9675,2.9836,2.9864,3.0263,3.1075,3.1263,3.1254,3.1343,3.1784,3.2173,3.2173,3.2173,3.22,3.2218,3.2527,3.3221,3.4371,3.4928,3.5638,3.6762,3.6978,3.6822,3.6552,3.6437,3.6124,3.5421,3.5162,3.537,3.5862,3.6037,3.6517,3.7185,3.7126,3.6939,3.7133,3.7255,3.7329,3.7495,3.7495,3.7495,3.7541,3.7709,3.8157,3.8863,3.9473,4.0333,4.1746,4.2288,4.2851,4.38,4.4097,4.4212,4.4544,4.4789,4.4995,3.336,3.4086,3.4171,3.4199,3.4134,3.332,3.241,3.1435,3.0864,3.0514,3.0229,3.0235,3.0431,3.0774,3.153,3.202,3.2325,3.3022,3.3538,3.3981,3.4881,3.5408,3.5558,3.6056,3.6331,3.6428,3.6593,3.6805,3.7108,3.7343,3.7598,3.7808,3.739,3.6898,3.6428,3.5884,3.5114,3.4138,3.4019,3.3198,3.1686,3.0878,2.9689,2.8064,2.7419,2.6316,2.4834,2.4454,2.3899,2.3136,2.3391,2.3329,2.2873,2.4063,2.5354,2.6385,2.6898,2.7866,2.9417,2.9879,3.0432,3.1291,3.1492,3.162,3.1801,3.1965,3.2055,3.2055,3.2128,3.22,3.22,3.22,3.2218,3.2282,3.2983,3.3873,3.4538,3.5451,3.6248,3.6914,3.6998,3.685,3.641,3.6047,3.5608,3.5183,3.5313,3.5633,3.6136,3.6456,3.6908,3.7577,3.7436,3.7138,3.7304,3.7391,3.7545,3.7558,3.7541,3.7621,3.7778,3.8184,3.8762,3.9329,4.024,4.1333,4.2025,4.2643,4.331,4.3852,4.4174,4.426,4.4559,4.4803,4.4981,3.2913,3.3303,3.3664,3.3784,3.3734,3.3282,3.2635,3.1885,3.1668,3.1482,3.1416,3.1684,3.175,3.1656,3.255,3.3006,3.3151,3.3767,3.4327,3.4831,3.5307,3.5682,3.6031,3.6256,3.6405,3.6428,3.6617,3.6851,3.7132,3.7528,3.7808,3.7831,3.7366,3.6922,3.6546,3.5763,3.4969,3.4286,3.4014,3.3401,3.2476,3.1656,3.0818,2.9816,2.8555,2.7425,2.638,2.5683,2.5146,2.4847,2.4993,2.5105,2.5184,2.6035,2.6721,2.7285,2.847,2.9585,3.047,3.0792,3.1219,3.1762,3.1853,3.1945,3.2073,3.2164,3.22,3.22,3.22,3.22,3.22,3.22,3.2237,3.2418,3.3156,3.3984,3.4678,3.5554,3.6323,3.6885,3.7095,3.6863,3.6124,3.5514,3.531,3.5478,3.5948,3.6526,3.708,3.7467,3.7913,3.8402,3.8435,3.8309,3.8211,3.8461,3.8317,3.7874,3.8191,3.8586,3.8269,3.8787,3.9496,3.994,4.0841,4.1745,4.2474,4.2818,4.329,4.386,4.4332,4.4474,4.4587,4.4803,4.4981,3.2542,3.2771,3.336,3.3551,3.3466,3.3268,3.2769,3.2166,3.2237,3.2235,3.2186,3.2848,3.304,3.2965,3.3528,3.3883,3.4081,3.4495,3.4994,3.5508,3.5682,3.5981,3.6405,3.6405,3.6428,3.6523,3.6711,3.6992,3.732,3.7693,3.79,3.7831,3.7436,3.7038,3.6639,3.5907,3.5187,3.4531,3.4162,3.3693,3.3124,3.2481,3.1811,3.1039,2.9636,2.8489,2.7804,2.6875,2.6352,2.6266,2.6399,2.6671,2.7125,2.7563,2.7965,2.8435,2.9776,3.0816,3.1198,3.1522,3.178,3.1963,3.1982,3.2036,3.2164,3.22,3.22,3.22,3.22,3.22,3.22,3.22,3.2327,3.2645,3.3441,3.427,3.5068,3.5863,3.6558,3.6991,3.7144,3.6902,3.6082,3.5658,3.5615,3.6161,3.6815,3.7463,3.795,3.8329,3.8754,3.9213,3.9469,3.9424,3.9123,3.9154,3.8902,3.8665,3.8934,3.9187,3.8902,3.9517,4.007,4.0419,4.1101,4.1752,4.256,4.2971,4.3325,4.3985,4.4422,4.4601,4.4651,4.4858,4.5009,3.217,3.2742,3.336,3.3438,3.3211,3.3182,3.2686,3.1906,3.2367,3.2499,3.2564,3.3448,3.4189,3.4606,3.4509,3.4645,3.5112,3.5319,3.546,3.5606,3.6081,3.6356,3.6405,3.6405,3.6499,3.6687,3.6968,3.7343,3.7834,3.7929,3.79,3.7903,3.7678,3.7253,3.6807,3.6479,3.5811,3.4945,3.475,3.4383,3.3742,3.3371,3.2599,3.1451,3.0504,2.9707,2.9012,2.8303,2.7696,2.7274,2.7622,2.7854,2.783,2.832,2.908,3.0113,3.0736,3.1261,3.1743,3.1872,3.1963,3.2146,3.2164,3.2182,3.22,3.22,3.22,3.22,3.2291,3.2318,3.2273,3.2364,3.26,3.3248,3.4065,3.488,3.5673,3.6415,3.6991,3.7183,3.7137,3.6969,3.6556,3.6494,3.6553,3.6891,3.7366,3.7852,3.8226,3.868,3.9304,3.9887,4.0224,4.0293,3.9661,3.9787,3.9692,3.9392,3.9407,3.9582,3.974,3.9993,4.0468,4.0896,4.1502,4.2092,4.2662,4.3194,4.3623,4.4115,4.4437,4.4615,4.4706,4.4886,4.5036,3.196,3.2727,3.2955,3.2955,3.2898,3.3118,3.2769,3.215,3.2803,3.3023,3.3062,3.3867,3.475,3.5571,3.5661,3.5705,3.5753,3.5964,3.6081,3.6081,3.6306,3.6405,3.6405,3.6546,3.6615,3.6756,3.7155,3.771,3.8402,3.8789,3.8998,3.895,3.8711,3.8316,3.7794,3.7196,3.6446,3.562,3.5235,3.475,3.4236,3.404,3.3601,3.2773,3.1431,3.0452,2.9826,2.9108,2.8563,2.8275,2.8564,2.8879,2.9288,2.9789,3.0423,3.1235,3.1868,3.2113,3.1952,3.2018,3.2128,3.2182,3.22,3.2227,3.22,3.22,3.22,3.2318,3.2928,3.3193,3.3019,3.2992,3.3147,3.3624,3.4658,3.5514,3.6012,3.6662,3.7192,3.7232,3.7168,3.7201,3.7528,3.7233,3.7104,3.7746,3.8271,3.8762,3.9385,3.997,4.0383,4.0699,4.1011,4.1146,4.0956,4.0862,4.0751,4.0404,4.0262,4.0308,4.0449,4.0718,4.1132,4.1083,4.1658,4.211,4.2602,4.3217,4.3691,4.4273,4.4581,4.4671,4.4762,4.494,4.5042,3.2047,3.2641,3.2698,3.2755,3.2869,3.3118,3.2966,3.2635,3.3141,3.3425,3.3593,3.4209,3.5066,3.5954,3.6358,3.6578,3.6609,3.6647,3.6718,3.6919,3.6919,3.6995,3.717,3.7315,3.7433,3.7576,3.7955,3.8494,3.8974,3.9416,3.9599,3.9575,3.9407,3.9079,3.8596,3.7937,3.7225,3.654,3.591,3.5331,3.4872,3.4726,3.4433,3.3895,3.2754,3.1638,3.0769,3.0066,2.9557,2.9324,2.9511,2.9973,3.0635,3.1236,3.1745,3.2176,3.2706,3.289,3.261,3.2678,3.2752,3.2752,3.2752,3.2752,3.2752,3.2405,3.2378,3.2815,3.3363,3.3795,3.3787,3.3926,3.4148,3.4418,3.5235,3.5983,3.6437,3.6957,3.7299,3.7424,3.7509,3.7878,3.8388,3.7996,3.8056,3.8656,3.9056,3.9612,4.0243,4.0794,4.1134,4.117,4.1358,4.1492,4.1399,4.1304,4.1304,4.1021,4.0847,4.0939,4.0934,4.1284,4.1458,4.1408,4.1623,4.2029,4.2537,4.3199,4.3809,4.4423,4.4637,4.4734,4.4858,4.4995,4.513,3.244,3.2669,3.2698,3.2898,3.3126,3.3239,3.3275,3.324,3.3397,3.3724,3.4058,3.4619,3.543,3.6101,3.6748,3.7257,3.7804,3.7518,3.752,3.7882,3.7932,3.8188,3.8572,3.8595,3.8765,3.9008,3.9403,3.9549,3.9601,3.9705,3.9758,3.9703,3.9758,3.9611,3.9212,3.8726,3.8176,3.7567,3.6852,3.6171,3.5668,3.5404,3.5138,3.4848,3.4484,3.3548,3.1895,3.1295,3.0744,3.0285,3.0622,3.1233,3.1836,3.2491,3.2915,3.2955,3.3203,3.3476,3.3711,3.3715,3.3641,3.3661,3.3788,3.368,3.3495,3.2921,3.2791,3.3514,3.3957,3.4107,3.4437,3.4994,3.5443,3.5746,3.5878,3.635,3.6975,3.7289,3.7376,3.7625,3.7982,3.8512,3.8785,3.88,3.8936,3.9284,3.9647,3.9999,4.0439,4.0848,4.1103,4.1273,4.1456,4.1572,4.1588,4.1588,4.1588,4.1542,4.1447,4.1413,4.1168,4.1308,4.1308,4.1323,4.1621,4.1997,4.2536,4.3181,4.3935,4.4481,4.4626,4.4817,4.4947,4.5117,4.5327,3.2469,3.2727,3.2955,3.3069,3.326,3.3657,3.3639,3.3408,3.3947,3.4336,3.4711,3.5499,3.6429,3.7341,3.7924,3.8484,3.9073,3.8891,3.875,3.8616,3.8568,3.8669,3.8847,3.902,3.9188,3.9533,3.9942,4.015,4.0228,4.0566,4.0775,4.075,4.075,4.0517,4.0028,3.9698,3.927,3.8687,3.791,3.7318,3.6957,3.6486,3.6121,3.593,3.5835,3.5298,3.4399,3.3004,3.1853,3.1052,3.1405,3.2035,3.2839,3.3427,3.3695,3.362,3.3681,3.3608,3.3478,3.351,3.3556,3.3529,3.3645,3.3696,3.3742,3.3773,3.3784,3.412,3.4826,3.5427,3.5328,3.5859,3.6153,3.584,3.6406,3.688,3.7251,3.7519,3.7739,3.7985,3.8171,3.8519,3.9011,3.9172,3.9253,3.9709,3.994,4.0139,4.0626,4.0916,4.1137,4.129,4.1456,4.1539,4.1506,4.1423,4.1357,4.139,4.144,4.1406,4.124,4.1173,4.1173,4.1357,4.1654,4.2029,4.255,4.3184,4.392,4.4519,4.4778,4.494,4.509,4.5327,4.5627,3.2612,3.2898,3.3097,3.3345,3.3551,3.3946,3.4053,3.3999,3.4381,3.4807,3.53,3.6048,3.6992,3.7965,3.8555,3.922,3.9838,3.9913,3.9847,3.9682,3.9452,3.9504,3.9709,3.9884,4.0055,4.023,4.0592,4.0724,4.0775,4.109,4.1273,4.1273,4.1299,4.1116,4.0724,4.0391,4.0006,3.9594,3.8859,3.8256,3.7882,3.7432,3.7008,3.6715,3.664,3.6385,3.5831,3.467,3.3547,3.2552,3.2515,3.2979,3.362,3.4,3.4246,3.4252,3.4222,3.4145,3.3987,3.4047,3.3973,3.3993,3.4112,3.4211,3.4317,3.4721,3.4799,3.4819,3.5495,3.6113,3.5974,3.6325,3.6537,3.6415,3.688,3.7347,3.7529,3.7787,3.7985,3.8163,3.8339,3.8734,3.9147,3.9329,3.9379,3.9887,4.0011,4.0257,4.0712,4.1033,4.1153,4.1256,4.1373,4.1406,4.1388,4.1256,4.1122,4.1173,4.1271,4.1187,4.1052,4.1021,4.1021,4.134,4.1654,4.1933,4.2438,4.3136,4.3839,4.4342,4.493,4.5213,4.5432,4.5759,4.6149,3.2898,3.3182,3.3211,3.3551,3.403,3.4136,3.4373,3.4808,3.4766,3.511,3.5849,3.6407,3.7163,3.8066,3.8835,3.9607,4.031,4.0463,4.0698,4.0857,4.0675,4.0623,4.0963,4.1014,4.1039,4.1142,4.1194,4.1221,4.1194,4.1247,4.1299,4.1299,4.1299,4.1299,4.1116,4.0698,4.0491,4.0311,3.9646,3.9031,3.859,3.8192,3.7818,3.733,3.725,3.7016,3.6559,3.6191,3.5404,3.4145,3.3665,3.3662,3.4021,3.4251,3.4371,3.4553,3.4688,3.4697,3.4889,3.4668,3.4762,3.4709,3.4791,3.5168,3.5129,3.5285,3.5453,3.546,3.5944,3.6238,3.6369,3.6595,3.6842,3.7211,3.7318,3.7548,3.7872,3.8052,3.8154,3.8246,3.8554,3.8966,3.9371,3.939,3.9583,3.9887,4.0011,4.0344,4.0794,4.1049,4.1137,4.1221,4.124,4.1189,4.1153,4.0885,4.0749,4.0766,4.0865,4.0814,4.0865,4.0933,4.1004,4.1323,4.1705,4.1997,4.2421,4.3181,4.3942,4.4676,4.5164,4.5501,4.5884,4.6247,4.6852,3.2898,3.3211,3.3409,3.372,3.4114,3.4311,3.4457,3.468,3.5041,3.5532,3.6295,3.7189,3.8142,3.922,3.9803,4.0434,4.0886,4.1038,4.1115,4.1247,4.1168,4.1141,4.1273,4.1299,4.1299,4.1299,4.1299,4.1299,4.1299,4.1299,4.1299,4.1299,4.1299,4.1299,4.1247,4.1116,4.1064,4.0985,4.0414,4.0,3.9764,3.9128,3.8754,3.8594,3.8316,3.8001,3.7677,3.713,3.6063,3.4565,3.3947,3.3725,3.3883,3.3946,3.403,3.4021,3.4021,3.4021,3.4084,3.4105,3.4168,3.4335,3.4501,3.4714,3.4942,3.527,3.5433,3.5595,3.5986,3.6345,3.6445,3.6733,3.7084,3.7471,3.7625,3.7834,3.8033,3.8165,3.8221,3.8277,3.8804,3.9169,3.9364,3.942,3.9565,3.9887,4.0064,4.0222,4.0712,4.0916,4.0984,4.1018,4.1052,4.0967,4.08,4.0543,4.0387,4.0335,4.037,4.0383,4.0591,4.0865,4.1052,4.129,4.1883,4.2253,4.2704,4.3269,4.4106,4.4981,4.5663,4.6138,4.6515,4.6914,4.7638,3.2955,3.3381,3.3523,3.384,3.4255,3.4429,3.4646,3.4924,3.5257,3.5868,3.6688,3.7575,3.8631,3.9697,4.0236,4.077,4.1249,4.1299,4.1273,4.1273,4.1273,4.1273,4.1299,4.1299,4.1299,4.1299,4.1299,4.1299,4.1299,4.1299,4.1299,4.1299,4.1299,4.1299,4.1299,4.1299,4.1299,4.1221,4.0933,4.0697,4.0357,3.9928,3.937,3.9076,3.8718,3.8434,3.7916,3.7208,3.6256,3.5281,3.4753,3.4427,3.4131,3.4221,3.4076,3.3671,3.3509,3.3441,3.3428,3.3407,3.3535,3.3768,3.3979,3.4272,3.4605,3.4977,3.5196,3.5453,3.5971,3.6278,3.6476,3.6909,3.7317,3.7586,3.7853,3.8081,3.8183,3.8202,3.8192,3.8352,3.8689,3.9206,3.9375,3.942,3.9583,3.9887,4.0011,4.0296,4.0694,4.0732,4.0766,4.0814,4.0773,4.0636,4.0406,4.0107,4.0068,4.0033,4.0325,4.0277,4.0637,4.0986,4.1235,4.1569,4.2077,4.2635,4.3196,4.3761,4.4375,4.5247,4.6108,4.6907,4.7341,4.7686,4.841,3.3069,3.3586,3.3586,3.3924,3.4451,3.4507,3.4813,3.5257,3.5368,3.6004,3.6982,3.7705,3.8657,3.9723,4.0262,4.0796,4.1299,4.1299,4.1299,4.1299,4.1299,4.1299,4.1299,4.1299,4.1299,4.1299,4.1299,4.1299,4.1299,4.1299,4.1299,4.1299,4.1299,4.1299,4.1299,4.1299,4.1299,4.1299,4.1247,4.0985,4.0644,4.0404,3.9955,3.9325,3.8807,3.8402,3.7701,3.6997,3.6338,3.5896,3.5767,3.5153,3.4638,3.4867,3.4411,3.3604,3.3255,3.3119,3.2979,3.2957,3.3043,3.33,3.3513,3.3831,3.4246,3.4615,3.4985,3.5284,3.5884,3.627,3.6595,3.7162,3.751,3.7663,3.7938,3.8165,3.8202,3.8202,3.8211,3.8217,3.8439,3.8833,3.9208,3.9427,3.9499,3.9803,3.9975,4.024,4.0487,4.0591,4.0574,4.0539,4.0458,4.0322,4.0015,3.9697,3.9719,3.9783,4.0293,4.0546,4.1006,4.1348,4.1574,4.1959,4.2655,4.3358,4.4063,4.4545,4.4875,4.5991,4.7138,4.7822,4.8382,4.8651,4.9169,3.3069,3.3586,3.3586,3.3946,3.4451,3.4507,3.473,3.5091,3.5312,3.5922,3.682,3.7628,3.8657,3.9723,4.0236,4.0821,4.1274,4.1299,4.1299,4.1299,4.1299,4.1299,4.1299,4.1299,4.1299,4.1299,4.1299,4.1299,4.1299,4.1299,4.1299,4.1299,4.1299,4.1299,4.1299,4.1299,4.1299,4.1299,4.1299,4.1196,4.1036,4.0769,4.0501,4.0081,3.9204,3.8522,3.803,3.7187,3.6576,3.6109,3.5459,3.4908,3.469,3.4345,3.3916,3.3452,3.3212,3.2995,3.2627,3.2577,3.2615,3.2831,3.3086,3.3411,3.3831,3.4298,3.4718,3.5182,3.5783,3.6445,3.6971,3.7326,3.7681,3.7825,3.8083,3.8318,3.8231,3.8231,3.8221,3.8248,3.8397,3.8726,3.9272,3.9245,3.9373,3.9696,3.991,4.0134,4.0305,4.0493,4.0559,4.0593,4.0575,4.0504,4.0132,3.9943,4.0006,4.0121,4.0554,4.1079,4.1497,4.1873,4.2149,4.2698,4.338,4.4067,4.4808,4.47,4.4892,4.652,4.806,4.8615,4.9114,4.9459,4.9582,3.3069,3.3586,3.3586,3.3924,3.4451,3.4507,3.4758,3.5146,3.534,3.595,3.6877,3.7681,3.8631,3.9697,4.0262,4.0796,4.1199,4.1299,4.1299,4.1299,4.1299,4.1299,4.1299,4.1299,4.1299,4.1299,4.1299,4.1299,4.1299,4.1299,4.1299,4.1299,4.1299,4.1299,4.1299,4.1299,4.1299,4.1274,4.1147,4.1097,4.1069,4.0837,4.0447,4.0112,3.9189,3.8436,3.8072,3.7277,3.6714,3.6249,3.5511,3.4868,3.481,3.4624,3.4216,3.3521,3.3285,3.3021,3.2656,3.237,3.2249,3.2269,3.2658,3.3133,3.3577,3.4074,3.4778,3.5488,3.6307,3.7058,3.7802,3.8274,3.8443,3.854,3.8823,3.9083,3.8967,3.858,3.8202,3.824,3.8275,3.8472,3.8686,3.89,3.9222,3.9529,3.9775,3.9983,4.0629,4.0779,4.083,4.0867,4.087,4.0722,4.0337,4.0253,4.0496,4.0707,4.1093,4.1668,4.2255,4.2556,4.2823,4.3519,4.4237,4.4798,4.5348,4.5163,4.5604,4.7238,4.8609,4.9263,4.9674,4.9784,4.9838,3.304,3.3586,3.3586,3.3946,3.4451,3.4507,3.4819,3.534,3.5395,3.6032,3.7062,3.7681,3.8526,3.9568,4.016,4.0744,4.1174,4.1299,4.1299,4.1299,4.1299,4.1299,4.1299,4.1299,4.1299,4.1299,4.1299,4.1299,4.1299,4.1299,4.1299,4.1299,4.1299,4.1299,4.1299,4.1299,4.1248,4.1173,4.1022,4.0846,4.0744,4.0516,4.0158,3.9574,3.889,3.8339,3.7941,3.7295,3.6702,3.6456,3.5819,3.5332,3.5133,3.5126,3.4953,3.3661,3.3474,3.3141,3.2666,3.236,3.2145,3.1891,3.2492,3.3106,3.3651,3.4281,3.5057,3.6043,3.6933,3.7819,3.8784,3.9037,3.9239,3.9416,3.9724,3.998,3.9846,3.9006,3.8629,3.8225,3.8426,3.8662,3.8551,3.8631,3.9021,3.9402,3.9649,3.9992,4.0631,4.1,4.1027,4.1063,4.1075,4.1281,4.0988,4.1234,4.1362,4.1623,4.1907,4.2565,4.3239,4.3871,4.4302,4.4553,4.5131,4.5729,4.6298,4.6584,4.7293,4.8465,4.907,4.9651,4.9936,5.008,5.0218,3.304,3.3586,3.3586,3.3974,3.4451,3.4507,3.4819,3.534,3.5395,3.6059,3.7039,3.7518,3.8315,3.9284,3.9929,4.0593,4.1147,4.1299,4.1299,4.1299,4.1299,4.1299,4.1299,4.1299,4.1299,4.1299,4.1299,4.1299,4.1299,4.1299,4.1299,4.1299,4.1299,4.1299,4.1299,4.1299,4.1147,4.0997,4.0846,4.0618,4.0389,4.0058,3.9776,3.9242,3.8665,3.8288,3.7911,3.7264,3.677,3.667,3.6123,3.5736,3.5476,3.5235,3.4631,3.3959,3.3672,3.3363,3.2794,3.2512,3.2558,3.2742,3.3106,3.372,3.4304,3.478,3.5501,3.6551,3.7525,3.8339,3.8813,3.9263,3.9292,3.9345,3.9572,3.9754,3.9708,3.9587,3.9301,3.8916,3.8929,3.8918,3.8887,3.8913,3.9293,3.9683,3.994,4.0349,4.0931,4.111,4.1105,4.1181,4.1234,4.1525,4.1718,4.2201,4.2542,4.2792,4.3158,4.3794,4.4538,4.5403,4.5856,4.5804,4.611,4.6728,4.7254,4.772,4.8519,4.9335,4.9713,5.0054,5.0405,5.0769,5.0893,3.3069,3.3586,3.3586,3.3924,3.4429,3.4507,3.4819,3.534,3.5423,3.6032,3.6928,3.7515,3.821,3.9206,3.9878,4.0542,4.1122,4.1299,4.1299,4.1299,4.1299,4.1299,4.1299,4.1299,4.1299,4.1299,4.1299,4.1299,4.1299,4.1299,4.1299,4.1299,4.1299,4.1299,4.1248,4.1147,4.1022,4.0871,4.0516,4.0236,4.0005,3.9517,3.8871,3.8613,3.8387,3.8136,3.791,3.7368,3.6999,3.6901,3.6457,3.6166,3.5951,3.5687,3.5132,3.4291,3.3979,3.3717,3.3195,3.2934,3.2817,3.3077,3.3425,3.386,3.4429,3.4984,3.5937,3.712,3.8342,3.9146,3.9591,3.9662,3.9746,3.983,4.0011,4.0177,4.0288,4.0445,4.0216,3.9824,3.9783,3.9682,3.9479,3.9557,3.973,3.9971,4.0252,4.0703,4.1194,4.1283,4.1293,4.1578,4.1723,4.1988,4.2316,4.2799,4.3428,4.3767,4.4195,4.4866,4.5496,4.6235,4.6527,4.6557,4.7062,4.7881,4.8028,4.8446,4.9335,5.0213,5.0779,5.1203,5.1282,5.141,5.1582,3.304,3.3586,3.3586,3.3924,3.4451,3.4507,3.4819,3.5312,3.5395,3.5977,3.6982,3.7385,3.8077,3.9076,3.9878,4.0593,4.1274,4.1299,4.1299,4.1299,4.1299,4.1299,4.1299,4.1299,4.1299,4.1299,4.1299,4.1299,4.1299,4.1299,4.1299,4.1299,4.1299,4.1299,4.1248,4.1072,4.0921,4.0516,4.0032,3.9747,3.9331,3.8528,3.7822,3.7841,3.7868,3.7897,3.7825,3.7615,3.7399,3.7278,3.7012,3.6699,3.6603,3.6555,3.5996,3.4932,3.4473,3.4188,3.3783,3.3474,3.3334,3.3577,3.381,3.4204,3.4919,3.5842,3.672,3.7865,3.8879,3.9694,3.9944,4.0093,4.008,4.0118,4.0376,4.0689,4.0626,4.0746,4.1028,4.0796,4.0677,4.0452,4.024,3.9768,3.9828,4.0097,4.0381,4.0749,4.1226,4.1533,4.164,4.2093,4.2338,4.2491,4.282,4.326,4.3936,4.458,4.5064,4.5678,4.625,4.6879,4.7186,4.7724,4.8498,4.917,4.9169,4.9363,5.0344,5.123,5.1933,5.2047,5.1651,5.1931,5.2375,3.304,3.3607,3.3586,3.3924,3.4429,3.4507,3.4869,3.5368,3.5395,3.5895,3.6793,3.7089,3.7705,3.8738,3.9955,4.0719,4.1148,4.1299,4.1299,4.1299,4.1299,4.1299,4.1299,4.1299,4.1299,4.1299,4.1299,4.1299,4.1299,4.1299,4.1299,4.1299,4.1299,4.1273,4.1198,4.0946,4.0669,4.016,3.9544,3.879,3.8048,3.7468,3.7257,3.7281,3.7465,3.7599,3.7652,3.7668,3.7779,3.7832,3.7808,3.7541,3.7204,3.7108,3.6641,3.5936,3.5334,3.476,3.4233,3.3898,3.39,3.4148,3.4583,3.5327,3.6051,3.7088,3.8001,3.8635,3.9336,3.9672,3.9777,3.9749,3.97,3.9678,3.9766,3.9853,3.9919,4.0402,4.0765,4.1093,4.0749,4.0961,4.099,4.0386,3.9925,4.0199,4.049,4.0916,4.127,4.1554,4.1919,4.2316,4.2828,4.305,4.3638,4.4024,4.4766,4.543,4.5969,4.6554,4.7225,4.7862,4.8636,4.9247,4.9943,5.037,5.0439,5.0806,5.1576,5.2215,5.2907,5.2451,5.1649,5.223,5.3134,3.2955,3.3381,3.3551,3.3861,3.4255,3.4451,3.4869,3.5312,3.5423,3.5868,3.663,3.7009,3.7814,3.9102,4.0134,4.0796,4.1224,4.1299,4.1299,4.1299,4.1299,4.1299,4.1299,4.1299,4.1299,4.1299,4.1299,4.1299,4.1299,4.1299,4.1299,4.1299,4.1299,4.1173,4.1047,4.0669,4.0262,3.9673,3.8795,3.7822,3.7203,3.6827,3.6642,3.6685,3.6955,3.7194,3.7358,3.7622,3.7865,3.7947,3.8,3.7928,3.7685,3.7589,3.7344,3.6739,3.6161,3.5457,3.4632,3.4301,3.426,3.4457,3.4945,3.5595,3.6711,3.7736,3.8561,3.8809,3.9074,3.9296,3.9341,3.9131,3.9069,3.9047,3.9168,3.9264,3.9397,3.9771,4.017,4.0522,4.0851,4.0986,4.1125,4.0894,4.0465,4.0645,4.0853,4.1087,4.1397,4.1683,4.2091,4.2517,4.305,4.3548,4.4345,4.4978,4.5901,4.6577,4.6955,4.756,4.8299,4.9019,4.9672,5.0295,5.086,5.1226,5.1565,5.1967,5.2466,5.3149,5.3833,5.328,5.2796,5.3225,5.3989,3.2898,3.3211,3.3494,3.3833,3.4227,3.4507,3.4924,3.5368,3.5505,3.595,3.6661,3.7227,3.8315,3.9517,4.0262,4.0796,4.1299,4.1299,4.1299,4.1299,4.1299,4.1299,4.1299,4.1299,4.1299,4.1273,4.1299,4.1299,4.1299,4.1299,4.1299,4.1299,4.1173,4.1022,4.0719,4.0287,3.9775,3.8945,3.7902,3.713,3.6665,3.6453,3.6344,3.6417,3.6576,3.6847,3.7116,3.7435,3.7756,3.7947,3.8,3.7976,3.7928,3.7904,3.7757,3.7298,3.684,3.6184,3.5359,3.4809,3.4478,3.4628,3.5187,3.6073,3.7064,3.7949,3.861,3.899,3.9431,3.9351,3.9112,3.9009,3.8822,3.8769,3.8705,3.8822,3.9011,3.9378,3.9705,4.0001,4.0334,4.0636,4.0788,4.105,4.1078,4.1149,4.1248,4.1311,4.1571,4.188,4.2494,4.3003,4.3718,4.4406,4.5286,4.6082,4.6997,4.7662,4.8073,4.8687,4.9457,4.9979,5.0555,5.1132,5.1749,5.2351,5.2809,5.3062,5.3313,5.3801,5.419,5.4331,5.4284,5.4526,5.4655,3.2919,3.3211,3.3494,3.3896,3.4479,3.4841,3.5119,3.5423,3.5671,3.6168,3.6931,3.7814,3.8815,3.9671,4.0313,4.0846,4.1299,4.1299,4.1299,4.1299,4.1299,4.1299,4.1299,4.1274,4.1248,4.1248,4.1173,4.1173,4.1248,4.1198,4.1248,4.1274,4.1047,4.0795,4.0364,3.9826,3.8919,3.8077,3.715,3.6746,3.6445,3.6309,3.6309,3.6336,3.6576,3.6823,3.7066,3.7435,3.7729,3.7974,3.8,3.8,3.8,3.8,3.7904,3.7709,3.73,3.6718,3.6138,3.5322,3.487,3.5066,3.5766,3.6799,3.7723,3.8777,3.9279,3.9382,3.9737,3.9984,3.9782,3.953,3.8877,3.8624,3.8512,3.8545,3.8737,3.9035,3.9294,3.9511,3.9964,4.0608,4.0991,4.1365,4.1042,4.1057,4.1355,4.1447,4.1829,4.2223,4.2989,4.3692,4.4519,4.537,4.6318,4.7169,4.7893,4.8548,4.9025,4.9814,5.0658,5.1135,5.129,5.2092,5.2724,5.3412,5.3891,5.3843,5.3917,5.4256,5.4494,5.451,5.4589,5.4636,5.4849,3.2983,3.3466,3.3579,3.384,3.4311,3.4785,3.5146,3.545,3.5895,3.6657,3.7521,3.8475,3.9259,3.9929,4.0491,4.0946,4.1274,4.1299,4.1299,4.1299,4.1299,4.1299,4.1274,4.1122,4.1047,4.0997,4.0896,4.0795,4.077,4.0946,4.0896,4.0846,4.082,4.0618,4.016,3.9206,3.813,3.7361,3.6847,3.6576,3.6336,3.6282,3.6282,3.6309,3.6553,3.6823,3.7089,3.7435,3.7729,3.7945,3.7974,3.8,3.8,3.8,3.8,3.7952,3.7493,3.7132,3.6771,3.5979,3.5525,3.6186,3.7016,3.7916,3.8577,3.9436,3.97,3.9826,3.9941,4.0089,4.0041,3.9336,3.8596,3.8421,3.8391,3.8407,3.8607,3.8894,3.947,3.9924,4.0545,4.1194,4.153,4.1813,4.134,4.0927,4.1254,4.1689,4.2216,4.286,4.3779,4.4676,4.5535,4.648,4.7483,4.8165,4.8762,4.9323,4.9904,5.0587,5.1266,5.1623,5.193,5.2784,5.3416,5.3766,5.4026,5.4237,5.4399,5.4463,5.4494,5.4494,5.4589,5.4818,5.5201,3.3069,3.3558,3.3586,3.3918,3.4395,3.4897,3.534,3.5726,3.6196,3.7039,3.8159,3.8973,3.9672,4.0236,4.0694,4.1022,4.1223,4.1299,4.1299,4.1248,4.1223,4.1173,4.1047,4.0871,4.0618,4.0618,4.0415,4.0287,4.0415,4.0593,4.0542,4.0491,4.044,4.0211,3.9646,3.8475,3.7411,3.685,3.658,3.6522,3.6305,3.6282,3.6282,3.6309,3.6553,3.6823,3.7116,3.7435,3.7729,3.7918,3.8,3.8,3.8,3.8,3.8,3.788,3.7687,3.7372,3.7038,3.6611,3.6281,3.6924,3.7835,3.8768,3.9551,4.0039,4.0357,4.0357,4.0204,4.0049,4.0177,3.9442,3.8667,3.8466,3.839,3.8437,3.8672,3.8971,3.9738,4.0401,4.0997,4.1498,4.1812,4.2094,4.2187,4.1846,4.2149,4.2639,4.3197,4.3923,4.4867,4.5787,4.674,4.7712,4.8655,4.9017,4.9377,4.9866,5.0423,5.0906,5.1466,5.1838,5.2361,5.3042,5.3533,5.3899,5.4159,5.4402,5.4481,5.4478,5.4529,5.4598,5.5057,5.5322,5.5857,3.3019,3.3558,3.3586,3.4142,3.4924,3.5257,3.5703,3.6223,3.6661,3.7441,3.8552,3.9388,4.0006,4.0491,4.0846,4.1072,4.1223,4.1274,4.1274,4.1224,4.0997,4.0921,4.0719,4.044,4.0185,4.0057,3.9852,3.9801,4.0032,4.0083,4.0083,3.9929,3.9749,3.9491,3.9154,3.7892,3.7036,3.6688,3.6417,3.6359,3.6305,3.6282,3.6282,3.6359,3.6607,3.6877,3.7116,3.7492,3.7785,3.7947,3.8,3.8,3.8,3.8,3.8,3.7976,3.7952,3.7711,3.7304,3.6955,3.7242,3.7767,3.8711,3.9474,4.0075,4.0624,4.1017,4.092,4.0897,4.0587,4.0262,3.9701,3.8915,3.851,3.8438,3.8617,3.8891,3.9307,4.0094,4.0965,4.1284,4.1571,4.1942,4.2333,4.2795,4.2927,4.3142,4.3552,4.4157,4.5124,4.6133,4.6946,4.7851,4.8508,4.9312,4.9651,5.0014,5.0492,5.0858,5.1237,5.167,5.2125,5.2661,5.3264,5.3667,5.3997,5.4274,5.4513,5.4685,5.4874,5.472,5.4821,5.5349,5.5926,5.6514,3.2748,3.3586,3.3586,3.4233,3.5229,3.5566,3.59,3.6472,3.7548,3.8554,3.931,4.0134,4.0567,4.082,4.0997,4.1173,4.1223,4.1047,4.1022,4.0997,4.0744,4.0542,4.0287,3.9955,3.9723,3.9517,3.9284,3.9102,3.9232,3.9388,3.9388,3.9232,3.8915,3.8447,3.8024,3.7251,3.6688,3.6495,3.6359,3.6282,3.6282,3.6282,3.6305,3.6332,3.6715,3.6985,3.717,3.7599,3.7892,3.7974,3.8,3.8,3.8,3.8,3.8,3.8,3.8,3.8137,3.8258,3.8453,3.8716,3.9095,3.9669,4.0443,4.1118,4.1297,4.1404,4.1182,4.0916,4.0389,3.9598,3.9235,3.8723,3.8541,3.8546,3.896,3.9322,3.9879,4.0557,4.1495,4.2061,4.2708,4.3194,4.3322,4.3658,4.4059,4.4247,4.461,4.5167,4.6381,4.75,4.8173,4.8907,4.9421,4.9927,5.0097,5.0305,5.0666,5.0972,5.1312,5.178,5.2269,5.2783,5.3281,5.37,5.4094,5.4526,5.4892,5.5168,5.5237,5.5373,5.549,5.5931,5.6611,5.727,3.2316,3.3091,3.3289,3.4078,3.5121,3.559,3.6204,3.7173,3.8502,3.9414,4.0006,4.0643,4.0946,4.1047,4.1122,4.1173,4.1122,4.0871,4.0618,4.0618,4.0338,3.9981,3.9621,3.931,3.8893,3.871,3.8447,3.8236,3.8368,3.8579,3.8674,3.8555,3.8102,3.7878,3.7479,3.7037,3.658,3.6413,3.6282,3.6282,3.6282,3.6305,3.6359,3.6526,3.6823,3.712,3.7385,3.7679,3.8,3.8,3.8,3.8,3.8,3.8,3.8,3.8,3.8212,3.8528,3.9026,3.957,3.9753,3.9929,4.0841,4.1347,4.1597,4.1569,4.1445,4.1172,4.0644,3.9981,3.9288,3.8945,3.8607,3.8423,3.8659,3.9052,3.9622,4.0135,4.0867,4.1842,4.2701,4.3471,4.4209,4.448,4.4629,4.5006,4.5377,4.5757,4.6167,4.7274,4.8345,4.9036,4.9521,4.988,5.0175,5.0383,5.0628,5.0839,5.1105,5.1387,5.178,5.2218,5.2749,5.3281,5.375,5.4265,5.4902,5.5357,5.5823,5.6217,5.6473,5.6572,5.6669,5.7278,5.8044,3.1715,3.222,3.2672,3.3579,3.4674,3.5572,3.6834,3.8423,3.9335,4.0006,4.0516,4.0795,4.1022,4.1173,4.1022,4.0896,4.0795,4.0542,4.0262,3.9981,3.9698,3.9259,3.879,3.8344,3.8104,3.7705,3.7465,3.7599,3.7596,3.7782,3.7971,3.8136,3.7805,3.761,3.7356,3.7033,3.661,3.6382,3.6282,3.6282,3.6282,3.6282,3.644,3.6657,3.6955,3.7224,3.7492,3.7838,3.7947,3.8,3.8,3.8,3.8,3.8027,3.8,3.8185,3.8605,3.9102,3.9646,4.0211,4.0542,4.0665,4.0995,4.1424,4.1524,4.1424,4.1249,4.0846,4.0313,3.9774,3.9206,3.8788,3.837,3.8473,3.8657,3.9129,3.9724,4.0389,4.1172,4.2016,4.2798,4.3594,4.4303,4.4751,4.5092,4.5605,4.6049,4.6789,4.7228,4.7787,4.879,4.9461,4.9912,5.0129,5.0383,5.0666,5.0801,5.101,5.1162,5.1424,5.1835,5.22,5.2713,5.3213,5.3802,5.4471,5.545,5.6184,5.6702,5.7062,5.742,5.757,5.7649,5.8173,5.8889,3.159,3.221,3.2528,3.3241,3.4319,3.6027,3.7665,3.9051,3.9724,4.0287,4.0795,4.1072,4.1097,4.1022,4.0921,4.0669,4.0364,4.0006,3.9569,3.9259,3.8945,3.8447,3.8077,3.7759,3.7515,3.7304,3.717,3.7089,3.7197,3.7251,3.7534,3.788,3.7686,3.7548,3.7391,3.7118,3.6709,3.6401,3.6305,3.6282,3.6282,3.6282,3.6495,3.6739,3.6982,3.7277,3.7599,3.7865,3.7974,3.8,3.8,3.8,3.8,3.821,3.8394,3.8919,3.9284,3.9697,4.0185,4.0567,4.0871,4.1022,4.1072,4.1022,4.1122,4.1123,4.0897,4.0364,3.9929,3.9413,3.8998,3.8605,3.8447,3.8605,3.8867,3.9413,4.0006,4.0694,4.1498,4.2259,4.3063,4.3784,4.4495,4.4885,4.5299,4.5956,4.6638,4.7422,4.8061,4.8563,4.9158,4.9852,5.0187,5.0383,5.0653,5.0934,5.1029,5.1111,5.1275,5.1443,5.1794,5.2179,5.2626,5.3431,5.4481,5.5376,5.6291,5.6943,5.7564,5.7991,5.8333,5.8466,5.8718,5.9243,5.9825,3.1164,3.1705,3.2142,3.306,3.4445,3.6128,3.7671,3.8961,3.9879,4.0567,4.1022,4.1097,4.1047,4.0871,4.0567,4.016,3.9724,3.931,3.8867,3.8394,3.8157,3.7759,3.7435,3.7247,3.7036,3.6901,3.6793,3.6739,3.682,3.6863,3.7072,3.7813,3.7669,3.7641,3.7552,3.7422,3.6953,3.6557,3.6282,3.6282,3.6282,3.6309,3.6522,3.682,3.7062,3.7304,3.7679,3.7945,3.7974,3.8,3.8,3.8053,3.8185,3.8526,3.8919,3.9413,3.9801,4.016,4.0593,4.0896,4.1047,4.1072,4.0972,4.0744,4.0593,4.0542,4.016,3.9699,3.9413,3.9074,3.8736,3.85,3.8631,3.8738,3.9232,3.9724,4.0364,4.1022,4.1794,4.2577,4.33,4.4044,4.4583,4.5,4.552,4.624,4.7011,4.7807,4.8427,4.8883,4.9493,5.0148,5.0402,5.0647,5.0915,5.1105,5.1143,5.1148,5.1237,5.1443,5.179,5.2488,5.3221,5.4308,5.5502,5.6369,5.7238,5.7858,5.8443,5.8889,5.9473,5.9832,6.0068,6.0319,6.0922,3.0594,3.0891,3.1641,3.2997,3.4699,3.5829,3.7084,3.8464,3.9702,4.0693,4.1047,4.0997,4.0871,4.0542,4.0057,3.9492,3.9051,3.8605,3.813,3.7542,3.7518,3.7224,3.6874,3.6661,3.663,3.6413,3.6336,3.6445,3.6336,3.6459,3.6879,3.7729,3.7665,3.7573,3.7527,3.7522,3.7058,3.6442,3.6282,3.6282,3.6282,3.6359,3.6549,3.6985,3.7173,3.7334,3.7788,3.8,3.8,3.8,3.8053,3.8183,3.8657,3.8998,3.9388,3.9826,4.0262,4.0567,4.0846,4.1072,4.1022,4.0972,4.0846,4.044,4.0211,4.0261,3.9954,3.9337,3.8971,3.8892,3.8656,3.8736,3.8893,3.9232,3.9724,4.0211,4.077,4.1498,4.2286,4.3012,4.3586,4.4303,4.4769,4.5178,4.5798,4.6558,4.7292,4.8082,4.8728,4.9159,4.9807,5.042,5.0531,5.0724,5.1029,5.1181,5.1199,5.1218,5.1334,5.1671,5.215,5.2983,5.3932,5.5099,5.6303,5.7295,5.8169,5.8634,5.9237,6.0151,6.0738,6.129,6.1563,6.1643,6.1916,3.0724,3.0905,3.1914,3.2968,3.3985,3.508,3.6299,3.7566,3.8768,3.9778,4.0592,4.077,4.0516,3.9955,3.9492,3.8947,3.8291,3.7945,3.7465,3.7116,3.6955,3.6847,3.6495,3.6417,3.6359,3.6309,3.6282,3.6282,3.6282,3.6373,3.653,3.7122,3.7237,3.726,3.726,3.726,3.692,3.6327,3.6282,3.6282,3.6282,3.6363,3.6526,3.6931,3.7147,3.7438,3.7788,3.8,3.8,3.8,3.8185,3.8657,3.9336,3.9517,3.9955,4.0491,4.0694,4.0921,4.1022,4.1047,4.0946,4.077,4.0542,4.0134,3.9954,4.0106,3.9848,3.9125,3.8736,3.8708,3.8761,3.8971,3.9284,3.9749,4.0211,4.0719,4.1198,4.1991,4.2822,4.3348,4.3918,4.4462,4.4949,4.5498,4.609,4.6726,4.7413,4.8145,4.8893,4.9478,5.0171,5.0655,5.0543,5.0743,5.1081,5.1375,5.1453,5.1653,5.1834,5.2178,5.2609,5.3724,5.4919,5.5945,5.7069,5.8066,5.8772,5.8978,5.9754,6.0982,6.1745,6.2195,6.282,6.306,6.3176,3.0879,3.1112,3.2063,3.2777,3.3384,3.4437,3.5519,3.6576,3.7568,3.8517,3.9474,3.9982,3.9981,3.9284,3.8868,3.8344,3.7655,3.7331,3.6982,3.6657,3.6549,3.6495,3.6359,3.6282,3.6282,3.6282,3.6282,3.6282,3.6282,3.635,3.6507,3.6892,3.6984,3.6984,3.6984,3.6961,3.6732,3.63,3.6305,3.6282,3.6282,3.6336,3.6553,3.6931,3.7197,3.7465,3.7788,3.8,3.808,3.8344,3.871,3.9076,3.9646,4.0032,4.044,4.077,4.0972,4.1072,4.1072,4.0972,4.077,4.0542,4.0364,4.0006,3.9544,3.9593,3.9413,3.8819,3.9228,3.9227,3.9386,3.9594,4.0057,4.0542,4.0972,4.1423,4.2092,4.2846,4.3245,4.344,4.4111,4.4862,4.5367,4.583,4.6491,4.7334,4.794,4.8825,4.9471,4.9975,5.0607,5.0926,5.0873,5.1063,5.1482,5.1726,5.1842,5.2062,5.2365,5.3166,5.394,5.4874,5.591,5.7054,5.8058,5.8836,5.9406,5.9665,6.0617,6.1918,6.2544,6.3032,6.3694,6.4409,6.4775,3.097,3.1347,3.2164,3.2594,3.2896,3.3867,3.4768,3.5545,3.6309,3.7072,3.788,3.8858,3.8952,3.8661,3.8185,3.7601,3.7147,3.6874,3.6549,3.6413,3.6309,3.6309,3.6309,3.6282,3.6282,3.6282,3.6282,3.6282,3.6282,3.6327,3.6484,3.6847,3.6915,3.6892,3.6915,3.6847,3.6645,3.6369,3.6282,3.6282,3.6282,3.6282,3.658,3.6874,3.7116,3.7411,3.7761,3.8053,3.8159,3.8579,3.9102,3.962,4.0006,4.044,4.0719,4.0997,4.1047,4.1047,4.0946,4.0795,4.0516,4.0236,4.0134,3.9878,3.9441,3.921,3.9005,3.9311,3.9694,3.9899,4.003,4.0415,4.095,4.1482,4.1883,4.2408,4.3145,4.3794,4.3891,4.3961,4.4612,4.5441,4.6272,4.6703,4.7221,4.8028,4.8809,4.9696,5.0455,5.087,5.1365,5.1421,5.1311,5.1558,5.1996,5.2158,5.2314,5.278,5.3208,5.4241,5.5276,5.6254,5.7266,5.8298,5.9204,5.9849,6.0232,6.0543,6.1638,6.2734,6.3814,6.4426,6.469,6.5444,6.6268,3.0925,3.1578,3.224,3.2519,3.2695,3.3494,3.4012,3.4425,3.5249,3.5901,3.6552,3.708,3.7541,3.8133,3.7812,3.7331,3.682,3.6522,3.6413,3.6282,3.6282,3.6282,3.6282,3.6282,3.6282,3.6282,3.6282,3.6282,3.6282,3.6305,3.6327,3.6461,3.6461,3.6438,3.6438,3.6415,3.6415,3.6282,3.6282,3.6282,3.6282,3.6359,3.6495,3.6739,3.7009,3.7304,3.7652,3.8104,3.8289,3.8631,3.9258,3.9981,4.0415,4.0693,4.087,4.0971,4.1047,4.087,4.0719,4.0542,4.0211,4.0109,4.0032,4.0006,3.9725,3.9624,3.9726,4.0236,4.0543,4.0619,4.085,4.1465,4.2027,4.2666,4.32,4.3963,4.4716,4.5049,4.5224,4.5447,4.5869,4.7091,4.8489,4.8715,4.8745,4.9474,4.9993,5.0783,5.1141,5.1602,5.2154,5.2058,5.1962,5.2232,5.2696,5.2756,5.2932,5.342,5.4189,5.545,5.6597,5.7692,5.8691,5.9392,6.0164,6.0847,6.1161,6.1402,6.22,6.335,6.5044,6.594,6.6052,6.6301,6.6968]}]]